GFSSW_sfc_dewp_000.txt.gz
Dewpoint
52 53 53 54 54 53 53 54 55 55 55 55 55 57 59 60 60 60 58 56 53 64 62 49 49 48 46 45 44 41 33 27 29 28 30 35 34 35 34 31 31 30 37 49 54
52 52 52 53 52 53 53 53 53 54 54 55 55 56 58 60 54 55 60 62 63 66 47 46 44 45 44 43 43 40 36 29 27 29 35 36 37 35 34 32 31 31 42 52 54
52 52 53 52 52 53 53 52 53 53 53 54 55 56 58 58 52 50 62 63 65 64 48 46 46 45 44 44 41 39 36 35 28 35 36 35 34 37 32 34 34 32 41 48 54
51 52 53 52 52 53 52 52 53 53 54 55 56 58 58 54 40 45 63 64 66 62 52 46 45 44 43 41 40 37 35 32 32 36 36 33 35 34 34 34 34 34 40 47 52
52 50 50 51 51 51 52 52 52 53 54 54 57 58 55 51 46 49 64 65 61 61 51 46 44 44 42 40 37 36 33 31 31 32 36 34 32 34 34 35 34 34 36 45 48
51 51 51 51 50 51 51 51 52 54 56 56 56 58 52 45 48 49 59 60 58 59 50 47 44 44 42 38 34 33 35 32 33 33 34 32 32 33 33 35 34 34 34 36 43
51 51 51 51 51 51 50 51 53 55 56 56 56 55 50 46 47 51 59 59 58 53 51 47 45 43 42 37 35 33 31 34 32 32 31 32 30 30 32 34 33 33 32 34 36
52 51 51 51 51 51 51 52 54 55 55 55 53 53 45 49 57 55 55 57 52 51 49 47 47 44 40 34 34 32 32 30 31 31 31 31 28 28 30 39 31 32 32 33 34
51 51 50 51 51 52 52 53 55 56 55 54 48 49 42 54 54 55 55 52 49 49 49 49 44 38 35 32 33 31 25 26 26 31 30 30 29 31 31 29 29 29 29 30 30
51 50 51 53 54 53 53 55 55 54 51 49 46 45 47 44 51 56 55 52 50 48 44 45 39 33 32 28 28 26 24 24 24 30 30 28 28 28 27 27 28 27 26 26 26
54 53 54 55 54 54 54 54 48 46 46 45 43 42 43 55 57 56 54 52 50 47 44 41 34 29 28 30 27 29 25 22 23 30 28 26 26 26 24 24 30 22 26 27 27
54 55 54 55 56 56 55 49 49 50 46 51 50 49 52 53 50 52 54 47 48 48 43 37 30 28 28 31 32 28 25 24 28 29 29 26 27 23 22 22 23 26 29 32 32
53 54 55 54 55 55 52 50 54 53 47 49 51 49 51 54 50 50 50 48 47 47 41 30 27 29 34 33 31 28 27 28 28 29 30 28 27 23 24 27 28 30 33 34 34
54 54 54 55 53 53 51 54 54 53 40 43 45 48 52 52 46 53 52 46 45 44 31 27 32 32 32 30 30 27 31 31 30 28 26 27 23 23 25 29 29 32 34 35 35
54 54 54 55 53 51 53 53 54 52 31 44 46 54 52 46 47 46 50 42 35 29 30 29 30 31 31 30 32 32 35 30 29 27 26 25 24 22 26 28 30 31 35 36 36
54 54 53 54 54 54 53 53 53 43 32 42 46 46 44 46 43 45 46 45 33 28 29 29 30 30 31 31 32 33 28 28 27 26 24 21 21 21 24 27 31 33 34 36 36
54 54 52 51 49 54 50 51 43 35 43 42 42 45 41 41 42 42 32 29 29 25 25 27 25 24 27 26 29 28 27 26 26 25 23 20 22 22 23 29 31 33 35 36 37
54 53 53 50 50 50 52 46 36 40 41 45 45 44 40 42 40 36 29 32 33 32 27 29 27 26 26 28 27 25 28 28 26 25 22 22 23 24 23 26 29 33 36 37 36
53 52 52 54 52 51 50 40 40 40 42 43 44 40 42 44 42 41 33 35 37 38 32 30 29 28 28 26 24 29 30 27 27 31 25 25 28 25 23 24 26 31 35 36 36
48 49 50 52 51 53 47 40 42 43 43 42 40 41 39 41 39 38 38 40 42 42 40 35 29 30 29 27 26 22 22 24 26 22 21 23 25 23 22 23 25 31 34 36 36
50 46 49 51 54 50 41 41 42 42 42 40 38 39 41 41 40 36 36 40 41 41 40 37 35 33 31 30 28 25 24 23 22 22 21 20 22 24 25 24 24 32 36 36 36
50 42 50 53 45 45 41 42 42 41 43 41 41 39 37 38 36 36 38 40 42 42 38 40 37 33 33 32 34 28 27 25 24 23 23 21 21 27 27 32 33 35 36 35 37
45 43 50 52 40 40 41 40 41 41 41 40 40 42 41 39 38 39 40 42 42 42 40 40 36 32 33 34 34 34 32 28 29 29 29 21 21 28 29 32 35 35 36 35 37
45 41 47 46 41 39 38 38 39 42 41 41 40 41 38 39 40 40 38 43 44 42 45 42 35 32 27 27 30 32 33 33 31 27 26 25 25 26 28 31 32 30 36 35 36
43 39 42 40 38 37 37 36 36 37 41 40 39 37 37 36 37 36 38 39 39 42 40 39 32 30 30 30 28 28 29 29 30 30 27 24 25 25 25 27 28 35 36 35 36
43 38 39 37 37 33 36 35 33 34 36 37 38 37 36 35 36 36 37 36 36 37 36 36 30 29 26 24 21 22 23 22 25 27 27 27 26 28 28 36 35 35 35 37 36
45 42 41 37 36 32 35 34 35 35 36 38 38 37 37 34 32 32 34 37 37 34 33 32 28 25 21 23 25 24 25 25 25 25 25 23 25 28 30 35 36 36 37 37 36

GFSSW_sfc_dewp_003.txt.gz
Dewpoint
53 53 53 53 54 54 54 54 54 55 56 55 55 55 56 58 60 58 53 57 60 62 59 50 50 49 50 43 43 40 33 26 26 28 29 36 35 36 33 32 30 35 41 48 52
53 53 53 52 53 54 54 53 54 54 54 54 55 55 56 58 55 53 54 62 64 65 54 46 47 46 43 41 41 38 35 31 28 31 29 35 34 35 34 32 33 40 52 53 53
52 52 53 52 53 52 53 53 53 53 54 54 54 55 56 57 49 46 56 62 64 65 56 48 46 45 43 43 41 38 36 37 36 36 34 33 33 35 35 33 34 31 47 53 53
52 51 51 51 53 53 53 53 52 53 53 53 53 55 57 53 38 42 55 60 64 63 58 47 46 43 43 42 42 39 38 37 38 36 35 34 33 31 35 34 35 35 43 53 53
51 50 49 50 51 52 52 53 53 52 53 54 54 56 54 48 45 45 59 62 60 60 57 49 45 44 42 42 42 39 38 37 34 33 32 35 34 31 32 34 35 38 45 49 53
51 51 51 51 51 50 50 52 52 52 52 53 55 56 50 43 47 48 52 58 58 59 57 50 45 45 43 42 40 35 35 34 34 32 33 34 32 33 32 33 33 33 39 45 49
52 52 52 51 51 51 51 51 51 52 54 55 55 53 47 42 45 48 47 58 58 59 54 52 48 45 44 43 39 36 33 33 34 34 32 31 29 28 30 32 33 32 33 35 43
51 50 51 51 52 52 52 52 52 54 54 55 56 52 44 49 50 50 48 53 58 59 55 53 54 47 44 39 33 32 32 31 33 33 33 29 28 30 30 31 32 31 30 31 33
51 50 51 52 52 52 52 53 54 55 55 55 51 49 43 54 50 49 50 55 57 57 57 55 50 43 40 34 32 32 28 28 29 31 31 29 28 30 30 29 29 29 29 27 27
53 54 52 53 54 55 53 54 55 55 53 48 46 45 46 44 49 53 56 57 55 51 51 52 50 39 35 31 29 29 27 26 25 28 29 29 28 30 29 26 26 26 26 29 32
54 54 54 54 54 54 53 53 46 46 46 41 41 43 44 48 50 53 57 56 50 48 47 49 44 39 35 31 30 29 27 24 25 30 28 28 28 28 25 22 27 28 30 31 33
54 54 54 54 56 55 54 48 47 46 39 42 44 44 52 51 48 52 56 51 47 45 45 43 40 36 32 32 31 28 26 25 27 30 27 27 28 25 22 24 29 33 34 34 36
54 54 54 54 55 55 52 51 53 51 43 45 43 47 50 54 49 50 53 50 46 45 45 41 38 35 32 31 30 28 27 29 29 30 29 31 28 22 25 28 32 34 34 36 37
54 55 54 54 52 53 51 54 54 53 38 41 45 49 51 52 48 54 52 50 49 45 44 37 31 32 32 32 29 25 30 31 30 27 26 28 23 23 27 29 32 33 34 35 36
55 54 54 55 52 51 53 55 55 51 29 41 44 52 52 47 48 48 51 48 47 45 40 31 30 30 31 30 29 31 34 30 30 26 27 25 24 24 29 29 31 34 35 35 36
55 55 54 54 54 54 55 54 52 40 30 38 46 46 44 47 44 46 45 49 47 42 31 29 32 31 31 31 31 32 29 29 28 26 24 24 23 23 27 30 31 33 35 35 35
55 55 54 53 50 55 54 52 40 35 42 39 42 43 41 41 41 42 42 42 38 27 25 25 23 22 27 26 26 27 27 26 25 24 24 22 21 22 25 31 32 34 35 36 36
54 54 53 50 53 51 51 46 36 39 40 44 42 42 40 42 42 40 37 33 27 26 27 27 24 23 25 26 26 25 27 28 26 25 24 22 21 22 25 32 35 36 37 36 36
53 52 52 52 51 52 50 40 40 40 42 42 43 39 41 44 39 37 34 36 39 34 30 28 28 28 28 25 26 27 28 29 26 29 25 26 28 23 27 31 34 36 36 36 35
47 47 48 54 51 53 46 42 43 45 44 44 38 41 37 38 37 38 39 40 42 41 41 33 28 29 29 28 26 23 25 25 26 22 21 23 26 23 24 25 29 35 36 36 36
47 44 46 52 53 48 41 41 43 44 43 43 42 41 39 40 39 36 38 40 41 41 40 38 34 32 31 29 28 27 24 22 24 24 21 20 21 25 24 24 28 33 36 36 37
47 36 45 52 43 43 41 42 43 43 44 42 43 41 40 41 36 39 39 40 42 43 39 40 35 32 33 31 33 29 27 25 23 24 24 21 21 26 32 29 35 36 36 36 38
42 42 48 46 39 39 41 41 42 42 42 42 41 42 40 39 38 40 39 42 43 42 39 39 35 32 31 31 33 33 32 29 29 29 26 21 22 28 33 33 35 36 35 36 39
43 37 42 42 41 39 39 39 40 42 41 41 40 40 40 39 40 39 38 42 42 41 45 41 33 29 27 27 31 32 32 32 30 26 25 26 26 26 29 31 33 33 37 37 38
40 36 40 35 35 35 36 37 38 39 41 40 38 38 38 37 37 36 38 39 38 41 38 36 28 29 28 29 27 27 28 29 31 30 26 22 24 25 26 28 30 35 36 36 35
40 36 38 36 35 33 36 34 35 36 37 39 39 38 37 35 37 36 37 37 36 36 35 34 29 26 23 24 23 21 22 23 25 27 29 29 27 29 30 30 36 36 36 36 33
43 42 35 36 33 33 34 34 35 36 37 37 37 37 35 33 31 31 33 35 37 34 33 31 26 24 20 25 25 24 25 25 25 24 23 23 24 27 30 33 36 37 36 35 32

GFSSW_sfc_dewp_006.txt.gz
Dewpoint
54 54 54 53 53 54 55 55 56 55 57 57 57 56 56 58 59 56 52 54 61 64 65 52 52 49 51 44 43 39 33 28 25 26 27 31 32 36 36 32 32 41 40 44 49
52 53 53 53 53 54 54 55 55 55 55 56 57 56 56 57 54 52 54 57 62 66 59 49 48 48 44 42 40 37 35 34 32 31 33 33 34 34 35 34 33 42 51 52 53
51 52 52 53 53 53 54 54 54 54 55 55 55 55 56 56 48 45 57 58 59 64 62 55 48 45 43 42 41 38 35 37 37 37 38 34 34 34 33 34 34 33 47 52 52
51 52 52 52 52 52 53 54 54 54 54 54 54 54 56 53 36 42 55 58 61 61 60 54 47 44 43 41 43 39 39 37 39 40 37 33 34 33 32 33 35 35 39 52 52
52 51 51 51 51 52 53 53 53 54 53 53 53 55 52 46 42 44 54 56 55 61 59 51 45 44 42 42 42 40 40 40 39 39 34 33 33 34 32 32 34 35 47 52 52
52 52 52 52 52 51 51 51 52 54 53 53 54 55 50 41 44 44 46 50 56 59 59 52 46 45 43 42 41 40 37 35 34 34 34 33 33 33 32 32 31 34 42 49 52
52 52 52 52 52 52 51 51 51 53 53 52 53 52 48 41 44 44 44 50 57 59 56 52 49 45 44 43 42 37 35 35 33 34 33 33 30 28 31 30 30 32 33 38 45
52 52 52 52 52 52 52 52 51 52 52 53 55 51 42 46 46 46 48 49 55 59 57 55 54 49 45 42 34 32 32 30 32 34 33 31 29 31 31 30 30 31 30 30 31
53 53 52 52 52 52 52 52 52 53 53 54 51 47 39 54 49 46 46 47 52 57 58 56 53 46 43 38 32 32 29 28 29 31 31 29 29 30 31 28 29 29 26 30 34
53 54 55 54 53 53 54 53 53 53 52 51 50 43 44 45 49 48 49 48 54 54 56 55 53 44 37 33 32 30 29 28 26 26 30 28 28 29 30 24 25 26 30 33 35
53 54 54 55 55 54 53 52 45 44 49 42 42 42 43 47 50 50 52 49 54 53 49 52 47 43 42 34 33 30 28 26 26 28 28 28 28 29 28 26 27 30 32 34 36
53 53 53 54 55 55 53 49 45 45 40 43 43 44 50 48 43 49 54 49 50 45 48 48 44 45 42 37 31 29 27 26 27 29 28 26 25 28 23 27 31 33 34 36 38
53 53 54 54 54 54 50 50 53 50 38 42 44 41 45 48 46 48 53 51 46 44 46 44 44 45 38 32 32 30 28 27 29 30 29 33 28 23 27 31 33 34 35 37 38
54 55 55 54 51 53 51 54 54 53 38 37 41 43 47 50 47 53 54 51 46 42 44 43 39 40 38 32 29 27 29 30 30 27 25 28 24 23 26 30 32 33 34 35 38
55 55 54 55 53 50 53 55 55 50 28 39 42 52 50 46 48 49 53 51 44 42 42 40 36 36 32 31 30 28 32 30 29 26 26 25 24 24 27 28 32 33 34 35 37
55 55 55 54 54 55 55 55 52 38 28 39 45 46 42 46 46 49 49 50 47 40 38 35 34 33 31 31 31 33 28 29 28 26 24 24 25 23 26 28 31 34 34 35 37
55 55 54 55 50 55 55 51 37 34 40 39 41 42 41 42 44 45 45 44 41 35 35 35 26 24 30 26 27 28 27 25 24 24 23 25 23 24 25 30 31 34 34 35 37
54 54 54 51 55 55 52 45 35 38 38 42 42 41 40 41 42 42 42 38 38 32 30 31 24 23 24 27 26 26 27 26 23 24 24 23 20 21 26 31 34 35 36 35 38
54 52 51 52 55 54 48 39 38 39 40 40 39 37 41 41 39 39 39 35 34 34 28 26 26 28 28 24 28 26 27 29 27 27 24 26 26 24 32 34 35 36 35 35 37
49 46 49 52 53 52 46 41 43 44 40 41 38 39 37 35 35 36 37 39 41 38 39 31 26 29 27 27 25 27 27 25 26 23 21 23 22 23 28 33 35 35 35 35 35
46 43 50 51 52 49 42 43 45 43 45 45 40 39 35 36 35 37 38 40 42 40 39 34 30 32 28 28 27 26 24 22 25 25 22 20 21 25 25 30 34 35 36 36 36
45 37 51 51 43 43 43 45 46 47 48 46 39 37 39 41 38 39 39 40 42 41 37 39 33 30 31 31 31 29 27 24 22 21 23 21 22 25 29 26 31 34 36 37 37
41 42 51 50 40 39 41 42 45 46 44 43 44 44 42 40 38 39 40 42 43 41 38 38 35 31 31 32 33 32 30 27 28 28 26 22 23 27 32 28 33 35 36 36 38
42 36 40 41 41 40 39 39 40 45 44 42 41 43 41 39 40 38 39 42 42 40 45 40 32 31 29 29 32 32 33 31 27 25 23 26 26 27 29 31 34 35 37 36 39
39 35 39 34 35 36 37 39 38 38 41 42 39 39 38 36 36 37 39 38 38 41 37 33 28 29 28 28 28 29 30 32 30 28 24 24 25 26 27 27 28 30 34 38 36
37 35 37 35 35 34 35 34 36 37 38 39 37 35 35 34 35 36 37 36 36 35 35 33 28 25 21 23 24 22 23 24 26 30 30 29 26 28 29 30 37 36 36 36 34
42 41 33 36 32 32 34 34 34 37 36 35 37 33 30 31 30 32 35 35 36 34 32 30 25 22 17 26 25 23 25 25 22 23 22 19 22 28 29 34 35 37 36 34 33

GFSSW_sfc_dewp_009.txt.gz
Dewpoint
53 53 54 54 54 54 54 55 56 57 57 57 58 58 57 58 58 54 51 52 56 63 65 56 55 50 50 47 43 37 33 30 28 25 25 31 34 34 35 34 34 40 41 45 48
51 52 52 53 53 53 54 55 55 56 56 56 57 57 57 57 53 51 53 57 58 62 60 49 48 48 46 44 40 37 35 35 33 28 32 36 36 34 34 33 33 35 51 52 54
51 51 52 52 53 54 54 54 55 55 56 55 56 57 56 55 47 44 55 58 58 58 61 57 49 47 44 42 39 38 35 37 36 35 38 37 35 34 33 32 34 33 35 51 53
51 51 51 51 52 52 53 54 54 54 55 55 56 56 56 52 35 42 53 57 58 54 58 58 52 44 42 41 42 38 39 37 39 40 40 36 34 33 33 33 34 35 35 50 51
51 52 51 51 50 51 52 53 54 53 54 55 55 55 52 46 42 44 52 54 52 53 56 55 45 43 42 42 42 40 40 40 40 40 39 37 33 32 33 33 34 33 37 47 51
52 52 53 52 52 52 51 52 53 53 54 54 55 55 49 40 44 45 44 49 51 52 58 55 46 45 43 42 41 41 41 39 37 36 34 33 33 34 33 33 32 31 32 42 51
52 52 52 52 52 52 52 51 51 53 54 54 53 52 47 40 43 46 43 47 51 56 57 56 50 44 44 42 43 39 34 34 34 36 34 33 31 30 32 31 30 30 30 34 40
53 52 52 52 52 52 53 52 51 52 54 53 53 50 42 46 47 46 45 49 51 56 58 56 52 49 45 44 34 32 32 30 33 33 33 32 30 32 33 33 29 30 28 30 33
53 53 55 55 53 52 52 53 52 51 52 52 50 47 40 48 45 45 44 46 48 54 58 56 52 48 45 41 36 32 29 30 29 31 31 30 29 31 31 29 28 27 29 34 36
51 53 54 55 55 53 53 52 52 51 51 50 49 43 43 43 47 46 46 45 52 51 55 55 52 45 41 40 37 31 30 29 28 28 31 29 29 30 30 25 25 28 33 35 37
53 53 53 53 55 55 53 50 44 45 46 41 42 42 42 44 49 45 45 44 51 50 48 52 47 43 42 40 38 33 28 27 27 27 27 28 28 29 29 26 26 30 33 36 38
52 52 53 54 55 55 52 46 44 44 40 44 43 43 46 48 45 47 46 43 46 42 48 49 44 45 44 38 33 31 29 29 28 30 28 27 28 29 26 26 29 32 34 36 38
54 53 55 55 55 54 48 48 53 50 40 40 42 42 43 47 42 47 46 46 43 41 45 43 45 47 43 42 36 32 30 29 27 30 29 28 28 28 27 31 33 34 36 38 39
54 55 55 55 51 52 48 52 54 52 34 36 41 42 43 45 42 49 47 47 44 40 43 45 45 46 43 37 40 38 32 31 29 28 26 31 25 26 25 31 33 34 36 37 39
55 55 55 54 53 50 52 53 53 47 22 37 41 49 46 42 45 48 54 51 41 40 45 41 43 44 44 39 32 33 30 29 30 27 26 25 25 26 26 29 31 33 34 37 40
55 55 55 55 54 54 55 53 48 34 28 37 42 40 41 43 44 49 50 52 44 42 40 38 42 44 42 37 31 32 28 29 29 26 24 25 25 25 25 26 31 33 34 37 40
55 55 54 55 49 55 55 50 36 29 37 37 37 40 39 39 43 45 45 46 39 37 37 34 35 33 31 28 30 28 27 26 24 24 24 25 25 24 25 27 31 33 34 36 39
54 54 54 52 56 55 51 41 31 37 37 42 41 39 37 40 42 43 44 43 40 36 36 31 32 27 26 28 27 27 28 26 21 23 22 24 21 22 27 29 32 35 34 36 38
54 51 50 52 56 54 46 34 37 39 41 40 40 37 39 40 42 41 42 40 37 37 32 30 28 27 26 26 28 26 27 29 27 26 25 25 25 26 33 33 34 35 35 35 38
49 46 49 52 55 52 43 38 42 41 41 39 36 39 36 38 39 39 39 40 35 34 32 30 24 28 26 26 24 27 28 25 27 24 21 22 23 25 29 32 35 35 34 35 37
45 43 51 54 53 47 41 42 42 42 44 42 38 39 36 37 38 39 38 39 41 38 38 30 27 30 27 27 25 23 22 24 26 25 21 20 22 25 25 32 34 35 35 35 36
44 38 51 52 46 46 42 46 42 41 48 46 41 37 36 36 37 39 39 39 42 40 37 37 30 27 28 33 30 28 25 23 23 22 22 21 22 26 30 31 35 35 36 36 36
40 45 51 50 41 42 45 46 46 46 46 43 38 40 42 39 39 39 40 42 42 40 38 37 33 30 30 32 34 32 28 25 27 27 24 21 22 27 29 28 32 35 36 36 37
41 37 45 48 43 42 39 43 44 47 44 43 43 43 40 38 39 38 39 41 41 40 44 39 33 29 25 29 32 31 31 28 27 25 24 24 26 26 30 31 34 35 36 36 38
39 34 38 36 37 38 39 41 42 42 45 44 42 42 39 37 36 37 39 37 38 40 36 31 28 28 28 28 31 31 32 30 27 26 24 24 26 25 27 29 28 31 33 37 38
38 35 36 35 34 34 36 35 37 37 42 42 40 39 40 36 36 37 37 37 36 35 33 31 28 25 21 25 23 22 25 32 31 30 28 29 27 29 29 30 33 36 35 37 35
42 41 33 35 32 32 34 35 36 35 35 39 36 35 35 30 30 33 35 34 35 33 31 27 24 20 18 25 25 20 24 23 22 24 24 19 21 29 33 35 36 37 36 36 34

GFSSW_sfc_dewp_012.txt.gz
Dewpoint
52 53 53 54 54 54 54 55 56 57 58 58 58 59 59 58 58 54 51 52 53 60 64 57 54 51 50 48 41 36 33 32 30 25 24 31 35 36 35 34 34 35 39 42 51
52 52 52 53 53 53 54 54 55 56 56 57 57 58 58 57 52 50 53 56 57 59 58 54 51 48 45 45 40 37 35 35 34 28 28 35 37 36 34 33 32 33 42 51 53
52 52 52 52 52 53 54 54 54 55 56 56 56 57 57 54 47 44 55 58 57 56 56 58 52 46 44 41 39 37 35 37 37 34 35 38 38 37 33 32 33 32 33 41 52
51 52 52 52 52 52 53 53 53 54 54 55 55 56 56 51 38 42 53 55 57 53 53 58 53 44 44 41 41 38 38 37 39 40 40 39 37 35 33 33 34 34 35 37 48
51 52 52 52 52 51 51 52 53 54 54 55 55 55 52 46 43 43 51 49 51 52 52 55 46 44 42 42 42 41 40 41 40 41 40 39 36 34 33 34 34 34 34 34 43
52 53 52 52 53 52 52 51 52 53 53 54 54 54 48 41 43 44 44 43 50 51 52 56 47 45 43 42 41 42 42 41 40 39 37 34 35 33 34 34 32 32 32 31 39
53 53 53 52 52 52 52 52 51 52 53 53 55 51 47 41 43 45 46 42 48 51 51 57 52 45 44 42 43 41 37 36 34 35 35 35 32 32 33 32 31 30 30 31 32
53 54 54 53 52 53 52 52 52 52 52 53 54 49 41 46 45 44 45 46 50 52 52 58 52 48 44 43 34 34 32 31 35 33 33 32 26 30 32 33 31 29 29 34 38
52 52 52 54 55 53 52 52 53 52 51 53 50 46 40 47 44 45 45 43 49 51 55 57 52 48 46 40 35 32 31 30 31 31 31 31 29 28 31 29 28 26 34 36 38
53 52 52 54 54 55 53 51 51 50 50 49 48 42 42 42 45 45 45 43 48 49 52 53 50 46 44 40 37 33 30 30 30 29 30 29 28 30 30 29 27 32 36 38 39
54 52 52 54 54 55 53 49 43 43 45 41 40 41 41 42 48 45 44 42 46 48 46 50 47 42 42 42 39 34 31 32 28 29 27 27 28 28 29 28 27 29 34 37 38
55 54 53 54 54 55 52 45 42 45 38 42 43 41 43 46 44 44 43 41 44 35 45 49 43 44 43 41 38 32 30 29 32 30 27 28 27 29 29 27 26 30 34 37 39
55 54 54 55 56 54 49 45 52 49 40 39 41 42 42 44 42 44 41 42 42 34 41 43 44 45 43 38 37 34 33 33 33 30 29 28 27 28 27 30 32 33 36 38 39
55 54 54 55 52 52 48 53 53 49 35 35 39 41 43 44 41 47 41 42 42 34 39 45 48 45 43 42 40 39 35 32 30 28 26 28 24 27 25 29 32 34 37 38 40
55 55 55 55 51 49 50 53 53 49 21 34 38 44 43 40 42 44 42 40 41 38 42 43 46 45 43 42 42 40 35 33 32 29 25 27 25 25 26 28 31 33 35 38 40
55 55 55 54 53 53 54 52 49 34 23 34 40 40 39 39 41 44 43 48 45 38 42 41 45 46 46 44 39 36 30 29 29 26 24 25 24 24 25 26 30 34 34 38 40
55 55 54 54 49 55 52 47 34 29 36 35 34 38 36 38 38 41 41 40 39 35 37 37 41 40 38 38 33 33 29 26 25 24 24 26 24 25 26 27 30 32 34 37 40
55 54 53 52 55 54 50 40 30 34 33 39 37 36 34 37 38 40 39 39 44 35 34 35 34 35 31 38 36 32 28 26 22 22 22 25 22 22 30 32 30 33 34 37 40
55 50 50 52 55 53 42 33 34 38 38 39 36 32 34 35 39 37 39 39 42 36 32 32 34 30 32 29 38 27 28 29 26 25 25 26 25 27 32 33 33 34 34 37 39
47 46 48 52 55 50 40 35 39 43 40 39 34 36 32 33 38 38 39 42 41 37 34 32 25 29 26 25 26 28 29 26 27 24 22 24 22 24 24 30 34 33 34 36 38
46 42 51 54 54 46 36 36 43 42 40 39 37 36 35 34 37 37 37 41 39 36 33 29 27 28 26 25 24 24 24 25 27 26 22 20 21 25 25 27 33 34 34 36 38
43 38 53 53 44 44 38 44 44 43 47 45 41 38 35 39 37 38 38 40 40 39 33 33 28 26 26 32 28 25 24 24 25 22 23 22 22 26 29 31 34 35 35 35 37
40 46 52 52 41 42 45 44 44 44 44 44 38 39 37 38 38 41 42 42 42 39 36 35 31 29 30 32 33 30 27 24 26 26 22 21 22 28 28 32 35 35 36 36 36
41 39 47 48 46 43 43 43 43 48 46 44 41 40 39 38 41 40 40 41 41 40 44 39 32 28 27 28 31 30 29 27 26 25 24 24 26 30 30 31 32 34 36 36 37
39 35 40 39 41 40 41 44 43 43 45 44 42 39 38 37 37 38 38 37 38 42 36 31 29 29 27 31 31 30 31 28 26 26 25 27 25 27 31 33 34 34 34 36 38
37 36 36 35 35 38 36 40 41 37 42 42 41 40 39 38 37 37 37 37 35 35 32 31 28 25 22 25 24 26 30 29 28 28 26 27 27 28 30 34 36 36 35 35 38
41 42 34 34 32 33 34 38 37 37 41 37 39 38 33 33 32 34 34 34 35 32 30 27 24 23 22 25 24 18 22 31 30 29 30 28 27 29 35 35 36 36 36 36 36

GFSSW_sfc_dewp_015.txt.gz
Dewpoint
52 52 52 53 53 54 54 54 55 56 58 59 59 59 59 59 58 54 51 51 53 57 58 58 56 55 49 48 42 37 35 33 33 28 31 29 36 37 36 35 34 34 38 42 51
53 52 52 52 52 53 54 54 54 55 56 56 57 58 58 58 53 51 53 57 57 57 53 56 52 50 46 47 41 39 38 36 36 31 30 32 37 38 37 35 34 33 37 45 51
52 52 52 52 52 53 53 54 54 54 55 56 56 56 57 53 48 46 55 58 58 56 53 55 58 48 45 43 41 39 38 38 37 36 34 37 39 39 35 37 35 34 35 36 45
51 51 51 52 52 52 52 53 54 54 54 55 55 56 56 49 37 42 53 52 57 54 51 54 56 46 45 42 41 37 38 38 39 40 40 39 39 38 36 37 37 36 36 36 35
52 51 52 52 53 52 51 51 52 53 54 54 54 55 52 47 44 45 49 49 48 52 50 51 52 45 45 43 41 39 40 40 40 41 41 41 39 38 36 37 36 36 37 35 34
53 53 53 53 53 53 52 52 51 52 53 53 54 54 48 41 44 45 45 43 43 50 51 51 52 45 44 43 42 42 42 41 42 41 40 37 38 36 38 36 34 34 33 32 33
53 54 54 53 53 53 53 52 52 51 53 53 53 51 47 42 44 45 46 45 42 49 49 51 54 45 44 43 43 42 40 39 37 37 37 37 34 34 36 35 33 32 30 34 37
53 54 54 54 54 53 53 52 52 52 51 52 53 49 42 46 46 45 44 44 48 50 51 51 54 50 44 41 38 39 35 37 38 34 34 33 33 32 32 33 33 30 32 38 40
53 53 52 52 54 55 54 53 52 52 51 51 49 47 39 46 45 44 43 42 45 52 52 50 54 49 46 38 34 34 37 32 35 35 35 33 31 33 31 31 30 28 34 37 39
54 55 52 52 53 54 55 52 50 51 50 49 48 43 42 41 45 44 46 43 44 50 49 48 51 47 44 41 36 33 33 31 32 32 31 30 30 30 31 31 31 28 34 38 39
54 55 53 52 53 54 55 50 43 42 45 40 40 39 40 41 45 45 44 42 42 47 40 45 46 43 42 42 39 33 33 35 35 31 29 29 28 30 31 30 30 29 35 38 39
55 55 54 54 54 54 53 45 41 41 38 41 42 41 42 45 42 44 43 38 41 38 41 43 43 44 43 42 37 34 33 31 33 31 29 30 29 30 31 31 29 29 35 38 39
54 55 53 53 55 54 50 45 51 47 39 39 40 41 42 42 40 41 41 41 42 35 38 40 42 44 43 42 39 35 34 33 35 33 30 29 29 29 29 29 31 32 37 38 39
55 55 54 54 53 52 48 51 51 49 34 36 37 39 43 43 38 42 41 40 42 33 34 41 47 43 42 40 41 38 36 36 34 35 31 29 26 28 28 28 32 34 37 38 40
56 55 55 53 51 49 50 52 52 46 23 36 37 43 44 38 40 42 42 39 39 34 36 41 46 43 42 41 40 40 40 38 36 32 26 26 26 27 26 26 31 34 37 39 40
56 55 55 53 53 53 53 52 48 33 22 35 39 39 39 39 39 42 40 42 47 35 35 44 49 45 43 43 42 33 31 31 29 27 25 26 26 26 25 26 30 33 36 39 40
56 55 54 53 49 54 53 46 33 27 35 35 35 38 34 36 36 38 37 36 38 31 32 40 45 47 46 37 38 35 36 33 27 25 25 26 25 26 27 27 31 33 35 39 41
55 54 53 51 54 53 49 40 29 31 32 36 36 36 33 36 36 37 36 35 39 40 29 35 35 40 40 42 39 39 36 28 23 23 23 26 24 23 27 32 32 33 35 39 40
55 50 50 50 54 52 43 31 31 33 35 36 35 31 32 35 36 37 36 34 38 39 28 33 33 37 33 36 42 36 36 31 27 26 25 27 27 28 30 32 33 34 36 39 40
47 46 48 51 54 47 37 35 36 41 40 35 27 31 29 32 34 36 34 39 37 41 36 33 27 31 27 29 29 35 33 32 27 24 23 25 23 26 26 27 33 33 35 38 40
47 43 51 53 52 42 34 35 38 40 40 35 35 34 30 30 36 35 35 40 41 41 35 29 28 28 28 28 26 30 31 28 28 27 24 21 22 26 26 27 30 34 35 38 39
42 40 53 53 42 41 37 39 42 43 42 40 38 38 34 31 34 36 37 38 41 40 30 29 29 30 27 31 31 28 28 27 26 23 23 22 23 26 29 29 32 35 35 37 39
40 45 52 51 39 38 40 40 41 43 40 43 40 38 36 33 37 39 39 40 42 40 34 33 31 29 29 31 33 28 25 26 26 25 22 22 24 28 31 34 35 35 35 36 38
40 42 46 46 46 42 42 42 42 47 45 46 40 39 38 38 40 38 40 42 43 39 44 38 31 29 29 29 31 29 27 26 26 24 24 23 24 27 31 33 35 36 36 36 37
40 37 42 39 41 42 45 43 40 42 45 46 41 38 37 38 39 39 40 38 40 44 37 34 30 29 27 30 30 30 29 26 25 26 24 25 25 26 29 31 33 34 36 36 37
38 35 37 37 36 42 42 42 41 43 43 41 39 38 39 37 38 38 38 37 37 36 34 32 29 26 24 28 30 30 31 28 26 27 26 26 27 28 30 33 34 35 34 35 37
40 40 35 36 33 37 36 40 42 43 44 38 38 38 40 35 34 39 37 36 36 33 31 31 25 26 25 25 23 23 25 30 29 29 27 26 28 30 34 35 35 36 36 36 37

GFSSW_sfc_dewp_018.txt.gz
Dewpoint
52 52 52 52 52 53 53 54 54 55 57 58 59 59 59 60 59 54 49 48 49 54 55 54 56 56 54 49 44 39 36 32 33 33 33 29 35 38 38 36 33 33 35 38 46
52 52 51 51 52 52 53 53 53 54 55 56 57 57 58 58 53 51 53 56 57 57 48 52 53 54 50 47 46 40 37 35 36 35 34 35 37 39 39 35 34 31 34 35 37
52 51 51 51 51 52 52 53 54 54 54 55 56 56 57 55 48 45 55 58 59 56 51 50 56 53 50 46 44 42 38 38 38 37 35 37 39 40 39 38 35 34 33 34 37
52 51 51 51 52 51 51 52 53 55 54 55 56 56 57 50 34 48 54 53 53 54 51 46 52 51 49 45 43 40 40 39 39 39 40 39 40 40 40 40 40 39 39 37 35
53 52 51 52 53 52 51 51 51 53 54 54 55 55 52 46 40 48 51 47 44 49 50 45 49 50 47 46 43 41 39 40 40 40 40 41 40 40 40 40 40 40 39 37 35
54 53 53 53 53 52 53 52 52 51 53 54 55 55 47 40 42 44 45 45 43 47 50 45 48 47 46 46 43 42 42 40 40 40 41 40 40 39 38 39 38 36 36 35 34
54 54 55 54 53 53 52 53 52 52 52 54 54 50 46 41 42 42 44 42 42 41 47 47 48 49 45 46 45 43 41 41 41 41 40 39 38 37 37 32 31 31 33 34 38
54 55 54 54 54 54 53 53 53 53 52 52 53 49 41 44 45 44 43 43 44 41 44 46 48 52 48 45 44 42 42 39 38 40 40 38 35 35 34 30 31 30 30 37 40
54 55 55 53 53 54 54 55 53 53 52 51 49 46 38 45 43 42 42 41 44 45 42 46 48 50 47 42 40 41 37 38 36 39 38 37 34 34 31 31 30 30 31 36 38
54 55 55 54 52 53 54 54 52 52 50 48 47 43 40 38 40 41 42 40 39 45 44 47 46 47 46 42 37 35 36 33 35 35 34 35 34 32 32 31 31 30 32 36 37
55 55 55 55 53 52 53 51 45 43 45 37 36 36 38 42 44 42 42 40 38 43 40 43 41 40 43 41 38 35 33 34 35 36 33 34 35 33 33 34 31 31 32 35 37
55 55 56 55 54 54 53 45 41 42 38 41 40 39 41 42 40 40 42 36 37 37 41 38 38 42 44 42 37 35 34 33 35 33 32 34 35 36 34 32 31 31 32 36 38
55 55 55 54 53 54 51 46 51 47 38 39 39 40 40 40 38 39 41 36 34 35 39 36 38 43 43 38 37 37 34 33 33 34 36 33 33 32 30 29 30 29 33 36 37
55 55 55 54 52 52 50 51 50 48 34 36 37 37 40 42 38 38 41 35 36 35 39 35 40 42 42 38 37 36 36 36 37 38 34 33 29 31 28 29 30 31 35 36 38
56 55 55 54 51 48 50 51 49 45 24 35 37 41 38 36 36 36 42 36 35 37 38 36 41 43 41 39 39 34 39 38 39 37 34 34 30 29 28 26 29 32 36 37 39
56 56 55 53 52 52 52 51 47 33 24 35 39 37 36 36 32 40 40 38 43 39 36 34 45 45 41 40 39 40 38 34 31 30 31 31 28 27 23 25 28 33 36 38 38
56 55 54 51 47 54 52 46 32 28 35 35 36 35 33 33 34 38 36 35 34 35 34 33 37 47 43 40 39 38 36 36 33 32 27 26 26 27 26 27 29 32 36 38 40
56 55 53 48 52 54 48 38 29 30 33 38 35 34 31 33 32 36 33 31 39 38 32 33 35 44 43 41 38 37 36 30 25 26 26 26 26 23 26 30 30 32 36 39 40
56 53 51 50 52 52 42 31 31 33 37 37 33 31 29 32 31 34 31 30 35 37 33 32 35 43 44 41 40 39 36 32 27 27 24 25 27 28 29 30 31 31 37 39 40
48 46 45 49 53 49 37 34 36 38 38 37 28 29 27 29 31 33 31 32 33 38 39 31 34 39 40 44 39 40 38 34 29 24 22 24 25 25 26 26 31 32 36 38 40
47 43 49 52 51 42 34 36 38 40 40 37 29 28 26 29 29 31 30 35 34 35 39 35 32 31 34 40 38 37 37 37 31 28 23 20 22 26 26 28 29 32 35 38 40
46 41 52 51 40 39 36 38 40 39 41 39 35 27 26 28 29 37 30 36 35 36 36 37 29 30 36 32 36 38 36 37 31 26 26 24 23 25 28 29 31 33 35 38 40
42 46 52 50 37 37 39 39 40 39 40 38 38 30 29 26 26 37 33 34 41 38 35 33 30 29 30 32 30 33 36 37 33 27 26 25 24 27 32 34 34 34 35 38 39
44 42 46 46 45 42 39 38 39 42 41 43 40 37 28 27 32 33 37 39 42 40 43 39 31 27 26 27 30 32 33 32 33 29 27 25 26 26 31 33 35 35 35 37 39
42 41 43 38 39 41 41 41 39 41 45 46 42 36 30 26 35 35 39 40 42 43 41 37 30 30 29 31 29 30 31 30 31 31 28 28 27 27 27 32 35 36 35 36 37
39 39 40 41 41 42 41 40 40 40 42 41 42 37 33 29 36 36 39 38 39 40 39 37 32 29 26 29 30 28 29 31 33 33 31 28 28 29 29 32 32 35 36 36 36
43 42 38 37 35 41 41 42 43 42 44 40 42 38 36 35 39 39 40 39 39 38 38 36 33 29 28 26 28 27 29 29 28 28 28 27 29 30 31 31 33 35 35 36 37

GFSSW_sfc_dewp_021.txt.gz
Dewpoint
53 53 52 52 52 53 53 54 54 56 57 58 59 59 60 60 59 54 48 48 49 55 55 50 48 54 54 51 48 44 36 33 32 31 30 33 33 34 37 36 34 33 34 37 38
53 53 52 52 52 53 52 53 53 54 55 56 57 57 58 58 52 50 53 55 56 57 49 45 44 47 51 49 46 42 37 34 33 33 32 33 36 38 38 36 35 35 33 35 35
53 52 53 52 52 52 53 52 53 54 54 55 55 56 57 55 47 45 55 58 58 57 51 46 47 52 49 48 45 43 38 37 35 35 36 35 36 37 38 38 37 35 34 37 37
53 53 52 51 53 53 52 52 52 53 54 54 55 56 57 49 33 46 53 51 55 54 51 46 42 47 48 47 44 40 39 38 38 38 38 38 37 37 38 39 39 40 40 40 38
53 54 53 52 53 53 53 51 50 52 53 54 55 56 52 44 39 50 51 48 44 47 49 46 40 41 42 43 46 41 39 38 38 38 39 39 38 38 38 39 40 39 40 40 39
53 54 54 53 54 54 53 53 52 50 52 54 55 55 48 39 37 39 47 45 43 44 46 46 41 40 40 41 42 43 40 39 38 38 38 38 38 38 38 39 37 37 36 36 37
53 54 55 54 55 54 54 53 53 52 51 52 53 50 45 40 40 40 41 40 41 42 43 47 45 41 42 42 42 44 41 39 39 38 38 39 38 37 38 37 34 29 29 31 34
54 54 56 55 55 54 54 53 53 53 52 51 52 48 43 43 43 42 41 41 41 40 40 43 48 42 45 45 43 40 44 40 38 37 38 39 36 36 34 34 31 29 28 33 38
54 55 56 55 54 53 54 55 55 53 53 51 47 46 39 45 41 41 41 39 39 41 40 40 44 43 46 46 42 42 38 39 39 37 36 38 36 35 34 33 30 30 28 33 37
56 55 56 56 54 54 53 54 54 52 50 48 45 41 39 37 39 40 40 40 37 38 39 39 42 42 43 43 37 36 37 38 37 34 37 36 35 35 34 32 33 30 28 32 36
57 56 56 56 55 53 52 51 45 43 47 41 39 36 35 37 40 41 38 39 38 36 37 39 39 37 37 43 38 37 36 35 35 33 34 34 34 32 32 33 33 32 29 32 36
57 56 56 56 55 54 53 46 42 44 40 43 40 38 37 41 38 39 39 37 35 33 34 37 36 36 35 39 43 37 35 34 32 34 34 33 31 33 33 34 35 33 30 32 37
57 56 56 55 54 52 50 48 50 45 39 39 41 40 38 39 36 36 38 37 31 31 32 34 34 36 32 40 41 38 36 31 30 33 34 33 33 34 35 35 34 31 30 33 37
56 56 56 54 50 48 49 52 50 48 33 35 38 39 40 43 39 37 39 37 33 30 31 35 36 36 34 38 42 38 35 34 31 34 31 35 27 29 29 31 30 29 30 35 37
56 56 56 54 49 49 50 50 50 46 25 35 37 41 39 40 34 35 36 38 33 31 37 33 36 36 36 38 43 35 36 34 35 34 35 35 33 29 30 27 29 29 32 36 37
56 56 55 52 50 50 51 49 47 32 25 35 38 38 37 38 35 36 35 38 36 33 39 32 38 38 37 40 44 40 36 36 35 35 32 32 31 26 27 27 26 30 34 36 36
56 56 54 47 44 53 50 45 33 28 34 35 36 38 35 32 34 33 36 35 36 32 33 34 35 41 43 42 45 39 37 35 32 31 26 28 29 27 25 27 28 31 34 36 38
56 56 54 45 49 52 48 37 29 30 32 38 37 35 32 29 29 32 35 35 35 35 34 33 31 38 40 44 41 40 37 27 25 24 24 27 25 25 27 28 28 32 35 37 38
56 54 52 49 51 51 42 31 31 34 37 36 37 33 31 28 29 32 35 32 31 33 33 33 33 37 45 46 41 39 33 33 27 27 25 27 27 26 28 30 30 31 35 37 38
52 49 48 51 51 49 39 34 36 38 39 38 34 30 27 27 28 30 33 32 29 34 37 36 33 36 44 42 42 39 36 32 29 24 22 24 24 24 26 26 30 30 35 37 38
47 43 47 51 52 44 33 35 38 39 40 37 35 30 25 24 26 30 29 30 28 31 39 40 36 35 41 42 39 38 36 36 31 28 23 22 22 26 26 27 29 31 35 37 38
47 39 51 52 41 40 35 37 40 39 41 40 38 32 25 23 25 29 27 28 30 34 38 40 38 34 37 36 39 40 36 35 30 28 26 24 23 25 28 30 30 32 34 37 39
44 45 51 48 36 36 38 38 39 39 40 39 38 35 26 24 25 31 32 29 37 35 35 38 33 34 34 36 38 38 38 38 35 31 28 23 24 28 32 32 32 33 35 38 39
45 41 46 45 44 40 37 38 37 41 40 40 36 33 27 25 26 29 34 35 38 33 43 39 32 28 27 31 36 36 38 36 35 31 29 27 25 26 31 33 33 34 35 37 39
44 42 41 38 39 40 41 39 39 39 42 41 41 34 29 24 25 28 32 34 36 40 37 38 31 29 27 29 33 34 35 36 35 34 30 28 27 26 28 31 33 34 35 37 38
42 38 43 42 39 39 40 39 39 39 42 40 40 36 31 23 25 31 33 35 36 39 36 39 31 30 28 30 29 28 30 33 33 33 31 29 29 31 30 29 33 34 35 36 37
46 43 39 38 38 40 40 39 39 41 42 43 41 40 32 26 28 38 38 36 38 38 37 37 35 31 27 28 29 28 29 29 30 31 30 29 31 32 30 31 32 35 35 35 36

GFSSW_sfc_dewp_024.txt.gz
Dewpoint
52 53 53 53 53 53 53 54 55 56 57 58 59 59 59 60 60 55 51 50 53 56 56 48 47 45 52 53 51 47 40 37 35 34 34 33 33 34 37 36 36 35 33 38 42
53 53 53 53 53 53 53 53 54 54 55 56 57 57 58 58 53 51 55 57 57 56 49 44 43 42 44 50 50 45 41 39 36 34 33 33 35 37 38 37 36 36 36 35 36
53 53 52 53 52 53 53 53 53 55 54 54 55 56 57 56 49 46 57 59 59 57 53 48 44 44 47 47 47 45 42 41 37 36 36 36 36 36 36 38 38 37 39 40 40
54 53 53 52 52 53 53 52 53 53 55 54 55 56 57 50 35 49 55 53 55 54 52 49 45 41 44 44 45 43 43 41 40 39 39 38 38 37 36 38 40 40 40 40 40
53 54 54 53 53 53 53 53 52 52 53 54 55 56 51 44 40 50 53 50 48 51 50 47 44 40 40 41 45 44 43 41 39 39 38 39 38 38 37 39 39 39 40 40 40
54 54 55 54 54 54 54 53 53 52 52 54 55 56 48 39 39 39 46 44 43 42 44 46 44 42 38 38 38 44 44 43 41 38 38 37 38 38 38 38 38 38 38 36 37
55 55 56 55 54 55 54 54 53 53 53 52 54 51 45 39 38 39 40 41 42 41 40 43 44 44 39 38 40 39 40 43 42 39 38 38 36 37 39 38 37 37 33 31 34
55 55 56 56 55 55 54 54 54 54 53 52 53 48 42 44 44 42 41 40 40 39 39 41 43 44 45 43 43 41 41 40 41 42 38 38 35 38 38 37 36 35 29 32 37
57 56 56 56 56 55 53 54 54 55 53 52 48 46 37 46 42 41 41 39 39 39 40 38 39 43 42 40 41 41 37 37 40 41 38 36 35 38 38 36 34 32 30 32 37
58 57 56 56 56 55 53 52 54 54 53 49 46 41 40 36 39 40 41 40 38 37 39 40 39 40 42 38 32 35 38 36 38 41 39 37 35 37 37 35 32 32 31 33 37
58 57 56 56 56 54 52 51 46 43 48 41 40 37 36 39 38 39 39 38 38 37 35 37 36 35 36 37 37 35 35 36 36 38 37 36 34 35 36 36 34 34 32 32 37
58 57 56 56 55 54 52 47 44 45 40 44 42 40 39 39 36 37 39 36 36 34 34 34 34 34 34 35 36 37 38 38 37 37 37 35 34 35 34 34 33 33 33 32 38
57 57 56 56 54 53 50 47 49 45 39 40 43 41 40 39 38 37 38 37 33 33 33 32 32 35 32 33 33 33 37 37 38 35 35 33 33 33 33 32 33 34 36 34 38
57 57 56 55 49 48 46 50 50 49 34 36 38 40 42 42 39 41 38 37 36 32 31 31 32 31 35 32 33 32 36 39 40 36 33 34 28 31 32 32 33 34 33 36 37
57 57 56 53 50 48 50 50 50 47 24 36 37 40 41 40 38 37 39 38 36 33 32 33 33 32 32 34 35 32 38 40 40 38 37 37 33 33 32 30 32 30 30 36 37
56 56 55 53 51 51 51 49 47 33 23 35 38 37 37 39 38 37 36 38 39 35 34 33 36 37 32 33 35 36 38 40 42 38 34 32 34 30 29 29 29 30 32 36 36
56 56 54 48 45 51 49 46 33 28 33 35 35 37 34 35 35 35 34 34 33 32 31 33 34 35 38 35 34 36 37 32 33 34 32 32 31 31 26 27 29 30 34 36 37
56 56 54 48 52 50 47 37 26 27 32 38 37 36 35 32 32 31 35 34 34 33 32 28 23 36 37 37 36 38 35 33 28 29 25 28 29 28 28 28 30 33 36 37 38
56 55 52 50 52 49 42 30 29 30 37 36 37 35 35 31 29 30 31 30 31 34 31 32 31 37 35 39 40 36 33 38 30 24 25 27 27 25 30 30 30 34 36 37 38
53 51 50 50 52 47 39 33 33 36 39 38 33 35 29 28 28 32 30 32 31 34 35 32 30 37 39 42 43 41 40 34 33 24 25 27 26 25 27 30 29 34 36 37 39
49 45 48 52 52 43 33 35 35 39 40 37 36 34 30 26 27 32 33 31 34 34 36 35 33 35 38 37 36 41 39 36 33 31 27 23 24 27 27 30 30 32 36 37 38
47 41 50 52 41 41 36 36 39 39 40 39 39 37 31 26 26 28 31 30 31 37 36 36 36 33 35 40 43 41 37 36 29 31 31 25 23 28 29 29 31 31 36 38 39
44 45 51 49 36 36 37 38 39 39 39 39 38 38 34 31 24 26 29 31 36 35 37 39 37 32 34 39 43 40 37 36 35 33 30 24 24 31 32 31 32 33 37 38 39
45 40 45 46 44 38 36 37 36 40 39 40 38 38 35 33 25 29 30 35 36 30 42 44 38 35 34 36 38 37 37 37 36 32 29 27 25 30 32 32 33 34 37 38 39
44 42 41 37 38 40 40 39 37 36 40 40 39 38 35 27 24 25 32 34 39 37 39 38 37 37 37 37 37 37 37 37 36 35 31 29 25 28 32 33 34 34 37 38 39
41 40 43 42 38 38 39 38 38 39 40 39 38 37 36 28 24 24 31 33 33 37 34 35 35 33 29 37 38 35 36 37 36 35 35 34 30 29 30 33 33 34 36 37 38
47 44 41 40 39 39 38 39 38 40 40 41 40 39 38 35 26 39 30 33 37 35 37 36 36 32 28 29 30 28 30 35 35 36 35 33 32 33 30 33 33 34 35 37 38

GFSSW_sfc_dewp_027.txt.gz
Dewpoint
53 53 53 53 53 53 54 54 54 55 57 58 59 60 60 60 60 57 52 52 53 55 56 49 47 47 46 52 53 51 42 39 38 35 34 35 31 34 35 35 37 36 34 39 47
53 53 53 53 53 53 53 54 54 55 55 56 57 58 58 60 54 53 56 58 58 56 51 48 47 45 42 49 51 48 43 42 40 38 35 35 33 36 38 38 37 37 38 38 45
54 54 54 53 53 52 53 52 53 53 55 54 55 57 58 57 50 47 57 59 60 57 54 52 50 46 43 43 48 48 45 43 42 40 39 37 37 38 37 38 39 38 38 41 40
53 54 54 53 52 52 53 53 51 52 54 54 54 56 58 53 40 50 53 56 56 55 54 52 49 44 42 44 45 46 47 46 44 44 42 38 38 37 37 37 40 39 40 40 40
55 53 54 54 53 53 53 53 52 50 52 53 54 55 52 47 45 51 53 52 50 51 52 50 48 45 39 40 42 44 43 45 44 43 41 40 38 37 38 39 39 39 39 40 40
56 54 54 55 54 54 54 54 53 52 51 52 54 56 50 42 43 43 47 45 44 50 50 49 47 45 42 38 38 40 42 43 45 44 41 38 38 39 39 39 38 38 39 39 38
58 56 56 56 54 54 55 54 54 53 52 51 52 51 48 41 41 43 44 45 44 43 40 43 47 45 44 40 41 42 39 38 38 44 43 42 37 37 39 39 38 38 38 38 33
58 57 56 56 56 55 54 53 54 55 53 52 51 50 43 45 46 44 43 42 41 41 41 41 41 41 43 45 41 40 41 37 38 41 43 40 37 38 39 38 38 38 37 34 37
58 58 56 56 57 56 54 53 52 54 55 53 50 47 41 46 44 44 43 41 40 40 40 38 40 40 42 40 38 39 35 37 38 41 42 41 38 38 39 38 37 36 35 32 38
58 58 57 57 57 56 54 51 53 53 54 51 47 42 42 37 42 43 44 42 40 39 39 40 38 36 39 38 30 31 34 36 38 38 40 40 40 38 38 38 37 36 33 33 38
58 57 57 57 57 55 52 49 45 44 48 42 42 38 36 41 40 41 41 41 39 38 35 38 35 32 34 38 36 34 34 35 37 38 38 38 38 39 38 37 36 35 32 34 38
57 57 58 56 56 55 51 46 45 45 40 45 44 42 40 41 38 39 41 38 37 35 36 35 33 34 35 34 38 35 35 35 36 39 38 38 38 38 37 36 36 36 35 37 39
57 57 57 56 55 53 49 46 48 45 40 40 44 43 42 42 39 40 39 37 35 34 34 32 31 33 33 33 34 34 34 34 33 37 39 38 37 37 37 36 35 36 35 38 39
56 56 56 55 50 49 48 50 49 49 35 35 38 41 42 43 39 41 41 37 35 33 34 33 33 31 34 33 32 31 32 31 32 35 34 38 35 34 35 33 33 32 34 37 39
55 56 56 52 47 45 49 50 50 48 22 35 37 42 42 40 39 39 42 41 39 36 35 34 33 31 30 31 34 31 33 33 33 35 37 36 36 34 32 32 33 33 35 37 39
55 56 55 50 50 51 50 49 46 33 20 34 38 36 39 39 38 38 38 40 40 39 38 36 37 37 32 31 32 34 33 34 35 35 32 35 37 33 32 32 32 33 36 37 39
56 56 54 50 45 50 49 43 32 25 32 34 34 36 33 34 36 36 36 36 33 30 28 34 35 36 38 35 36 34 32 26 26 28 27 35 35 35 31 28 32 31 36 37 40
56 56 54 48 51 49 47 38 26 27 31 37 36 34 34 34 35 34 35 33 35 33 32 26 24 34 35 33 31 33 31 25 20 22 25 36 34 30 36 29 31 35 36 38 42
55 54 52 51 50 49 41 30 26 29 35 36 37 35 34 33 33 32 32 31 31 33 29 29 29 35 34 34 32 31 30 31 32 33 30 32 29 26 29 31 35 35 37 39 42
52 51 50 51 50 47 38 32 32 37 39 38 34 35 31 31 31 30 30 31 31 33 33 33 28 31 34 38 35 35 34 30 32 26 28 27 24 24 28 29 34 35 36 39 41
50 46 51 52 50 43 33 34 33 36 39 37 36 35 34 33 30 31 31 32 32 32 34 36 33 32 36 36 34 35 35 33 34 29 29 25 25 27 29 29 34 35 36 39 41
48 41 51 51 40 40 36 36 38 38 40 39 39 38 36 34 32 30 32 33 34 36 34 37 36 30 33 39 39 38 35 35 29 32 33 25 23 28 29 30 33 35 37 39 40
45 45 51 49 35 36 38 36 38 37 39 38 38 38 36 33 33 29 29 33 37 36 36 38 33 31 33 38 41 38 38 37 38 38 32 25 23 32 30 30 31 36 37 39 40
45 39 45 46 44 38 37 36 37 39 39 39 39 39 38 35 35 32 27 34 37 36 41 39 37 33 33 36 37 35 39 41 38 34 33 28 28 30 30 31 33 36 37 39 40
45 41 41 37 39 39 39 38 37 35 39 40 37 39 36 34 33 30 32 33 36 38 40 41 35 38 38 36 37 37 38 38 38 38 32 28 29 31 31 32 33 37 38 39 39
42 42 42 39 39 39 39 38 38 38 38 37 37 37 38 35 32 24 32 34 35 36 35 39 36 37 37 37 36 36 37 38 38 37 36 35 33 30 33 34 33 37 38 38 39
46 46 43 41 38 38 38 38 37 39 39 40 39 39 38 37 37 35 36 36 36 36 32 35 36 37 31 35 35 32 36 37 37 36 36 34 34 31 33 33 33 36 38 38 39

GFSSW_sfc_dewp_030.txt.gz
Dewpoint
53 53 53 53 53 53 52 53 53 55 55 57 59 61 61 60 61 57 53 52 53 56 55 48 47 47 46 48 53 51 43 39 38 36 36 36 34 34 33 34 37 37 35 37 44
54 53 53 53 53 53 53 52 53 54 55 55 57 58 60 59 55 53 56 59 59 58 51 49 47 48 42 45 49 49 44 43 41 40 37 38 36 35 38 38 38 37 39 43 49
55 54 54 54 53 52 52 52 52 53 55 54 55 56 57 57 50 48 56 60 60 58 53 53 51 48 42 43 46 49 46 44 43 42 41 40 38 37 36 36 38 38 39 41 41
55 54 54 54 53 51 53 53 51 51 53 54 54 56 56 53 31 48 55 55 59 57 53 52 49 45 40 44 46 43 47 47 47 46 45 43 39 37 36 36 38 39 40 40 40
56 55 54 54 54 53 53 53 52 51 51 53 54 55 52 47 46 48 52 53 51 53 53 51 48 45 41 39 41 41 43 44 46 47 46 45 42 39 38 38 39 39 39 39 39
57 56 55 55 55 54 54 54 53 53 52 51 54 55 49 39 44 44 46 46 47 50 51 51 49 47 44 41 39 40 40 41 43 44 45 43 42 40 39 39 39 39 39 39 39
59 58 57 56 55 55 55 54 54 53 53 52 51 52 48 41 42 43 44 44 44 48 45 50 49 46 45 42 42 41 40 40 39 39 40 45 43 42 39 39 38 38 38 39 39
58 58 58 57 55 55 55 54 53 54 53 53 51 50 42 46 47 45 44 43 42 41 41 41 41 41 41 43 42 40 38 35 37 38 40 43 40 42 40 38 38 38 38 38 38
59 58 58 57 56 57 56 53 52 53 54 54 50 46 37 46 45 44 44 42 41 40 41 38 39 38 40 40 38 37 33 34 38 38 40 42 39 42 41 38 38 38 38 37 36
58 57 58 57 56 56 55 52 52 52 53 52 47 43 42 38 43 44 43 42 41 40 39 40 38 36 38 37 29 31 31 34 35 38 38 38 39 41 40 38 38 38 38 37 35
58 57 57 57 56 56 52 49 44 43 49 44 41 40 37 42 41 43 44 41 40 38 36 38 35 32 33 37 36 34 32 33 35 37 38 37 37 37 40 40 38 37 37 35 36
56 56 57 57 56 55 50 44 44 43 38 46 45 43 42 42 38 40 42 38 38 35 36 36 33 34 34 34 36 37 35 33 33 34 35 37 38 38 38 38 39 38 37 34 39
56 56 56 56 56 53 48 45 47 46 39 40 43 43 43 43 40 40 40 38 36 35 35 33 31 33 34 33 33 33 34 33 32 33 33 30 33 36 38 40 38 38 38 36 39
55 55 56 56 51 49 45 48 47 49 35 35 38 42 43 44 40 42 41 38 36 34 34 34 34 32 32 32 33 31 34 34 31 30 28 36 30 34 36 37 38 37 36 37 39
55 55 56 53 47 46 46 50 50 48 11 32 38 42 42 40 39 40 42 39 38 36 35 33 33 32 31 30 33 31 32 31 31 29 30 29 31 33 37 35 37 37 35 36 39
55 55 55 52 50 49 50 49 47 26 15 34 37 36 38 39 39 39 39 41 42 38 38 37 37 36 33 31 32 35 33 33 33 32 29 27 29 28 34 34 35 36 34 37 39
55 55 54 49 47 50 49 44 30 16 31 33 34 36 35 35 35 37 38 37 35 31 29 35 35 37 37 33 34 31 31 26 24 24 21 25 29 28 35 37 34 33 34 38 40
54 55 53 47 51 49 46 38 23 25 30 35 34 33 32 33 33 35 35 33 35 33 30 22 20 34 37 34 31 32 30 26 16 16 17 33 29 30 35 34 34 33 35 38 42
53 54 52 51 51 48 41 30 25 28 34 33 33 32 33 33 33 34 33 31 34 35 28 25 25 35 33 34 32 31 30 29 28 28 28 29 32 34 36 32 34 35 37 40 42
50 50 49 50 50 46 37 31 30 37 37 35 30 33 30 31 33 33 30 31 31 33 33 30 25 33 33 36 35 30 31 27 30 15 20 29 28 20 28 31 35 36 38 41 43
49 46 50 51 49 42 32 35 33 39 38 36 33 35 35 33 32 30 29 31 31 32 33 32 33 30 35 33 31 33 30 29 26 27 25 27 29 28 28 32 34 36 39 42 43
47 38 50 50 40 39 35 36 37 36 40 38 37 38 37 37 35 30 30 30 32 32 33 36 35 29 30 34 34 32 30 29 24 21 26 30 26 31 29 34 35 36 39 41 43
44 44 50 48 33 35 38 35 37 37 37 38 38 38 38 36 34 31 30 33 35 34 37 37 34 27 31 34 37 31 33 30 28 34 25 26 26 31 30 33 35 36 39 41 42
44 38 44 45 43 38 35 35 36 39 38 39 38 39 37 36 35 34 31 32 35 36 41 40 35 32 29 33 37 35 33 33 29 29 25 31 33 31 30 31 36 37 39 40 42
45 40 41 35 38 38 37 37 36 37 38 39 37 37 37 35 34 33 34 34 37 39 40 38 33 34 34 35 37 35 36 36 32 31 28 27 33 35 30 31 36 37 39 40 41
42 41 41 38 39 38 38 37 37 37 38 36 36 37 38 36 34 27 31 32 34 37 38 40 33 35 35 39 38 37 37 36 37 36 34 36 34 32 33 34 36 37 38 39 40
46 44 42 39 38 37 38 37 38 39 39 39 38 38 37 38 38 37 37 37 37 37 35 37 36 35 34 36 37 35 35 39 37 40 41 37 33 33 32 33 36 37 38 39 40

GFSSW_sfc_dewp_033.txt.gz
Dewpoint
54 53 53 53 54 54 53 53 54 54 55 57 59 61 62 61 61 58 53 53 54 56 55 48 48 49 46 46 52 48 42 39 37 36 36 37 36 36 35 33 36 36 38 38 46
55 54 54 54 53 54 53 53 53 54 55 55 57 58 60 59 56 54 57 60 60 58 51 48 46 48 42 44 48 49 44 41 41 39 37 38 36 37 36 37 37 37 39 47 51
56 55 54 54 54 53 53 53 52 53 54 54 55 56 57 56 49 48 56 60 61 59 52 52 50 47 42 43 45 47 45 44 44 43 42 40 39 40 37 36 37 37 39 40 48
57 56 55 54 54 53 53 53 52 51 53 54 54 55 56 52 32 47 54 55 58 56 53 52 49 43 41 42 45 41 44 47 47 47 46 44 42 39 37 36 38 39 40 40 39
58 57 56 55 54 54 53 54 53 52 51 53 54 55 51 46 46 46 55 51 53 56 53 51 47 44 40 40 40 40 42 44 45 46 46 47 45 43 42 41 40 39 40 39 39
59 58 57 56 55 55 54 54 54 53 52 51 53 55 48 37 42 45 44 45 46 52 52 52 49 48 44 43 40 40 40 40 40 42 43 43 43 44 42 41 40 39 39 39 39
58 59 58 57 55 56 55 55 54 54 53 52 52 52 47 40 42 43 43 43 43 49 49 51 50 46 45 42 43 42 39 40 39 39 38 41 39 40 44 43 39 39 39 39 39
58 58 58 58 56 55 55 55 54 54 53 53 51 49 41 46 47 46 45 42 42 42 43 45 43 44 40 41 41 39 37 34 36 38 39 39 34 41 43 44 41 39 38 38 39
58 58 58 58 57 57 56 55 52 52 53 54 50 44 36 44 44 44 44 40 41 40 41 39 39 37 38 39 35 35 31 32 35 38 38 40 36 38 43 41 39 38 38 38 39
57 57 57 57 57 57 56 53 51 51 52 53 47 42 42 39 42 44 44 43 40 41 39 39 38 37 38 36 26 28 31 33 33 37 37 36 36 39 40 41 40 40 39 38 38
57 56 56 57 57 57 53 48 43 43 49 43 42 41 39 43 43 43 43 41 39 38 35 37 34 31 31 35 36 35 32 31 33 35 35 35 37 38 39 39 40 40 39 38 38
55 57 55 56 57 56 50 43 42 42 39 45 46 42 42 44 40 40 42 38 37 35 36 35 32 34 34 34 35 35 34 32 33 34 32 32 32 34 32 33 39 39 40 40 37
53 55 56 56 56 53 48 45 47 44 37 39 43 43 43 44 40 40 40 38 36 35 35 32 30 33 33 33 32 32 31 30 31 33 33 32 28 25 28 35 38 40 39 39 38
52 53 57 55 53 51 47 47 46 48 34 34 38 42 44 44 40 42 41 38 36 34 35 34 34 33 32 31 33 30 32 32 32 32 26 32 23 26 29 32 36 38 39 39 37
51 52 56 55 49 47 46 48 49 45 13 32 38 44 43 40 39 40 42 39 36 35 34 32 34 33 32 31 33 30 32 33 34 31 29 28 25 25 30 29 33 38 39 39 38
51 51 55 52 50 48 49 49 48 30 17 33 37 38 39 40 39 39 40 41 42 38 37 33 37 36 33 32 32 34 33 34 36 31 25 25 27 21 22 29 35 37 38 38 37
51 50 54 51 45 50 49 45 32 23 30 31 32 34 33 33 35 37 36 38 35 32 30 34 36 37 37 33 33 31 33 25 24 25 21 24 25 24 24 32 35 36 36 37 38
51 51 52 51 51 50 46 37 24 25 30 34 33 34 31 33 34 35 35 34 36 35 30 24 20 32 36 34 31 31 31 26 19 19 19 25 23 23 27 27 25 27 35 36 39
50 49 50 51 51 49 41 29 24 26 33 32 32 30 30 32 32 34 34 31 31 34 29 26 24 33 35 34 33 32 30 30 27 29 26 25 25 25 28 30 34 34 34 37 40
48 47 48 52 50 46 37 29 29 34 35 33 29 31 27 30 31 33 32 31 31 34 33 27 23 31 34 35 34 31 31 27 29 19 18 21 24 20 21 20 17 32 35 38 41
44 42 49 52 50 41 33 35 32 39 37 34 32 31 32 30 32 31 30 30 32 34 34 31 31 30 35 33 30 32 31 29 25 25 20 18 21 31 25 22 23 35 38 41 43
44 36 50 50 36 38 35 35 36 38 39 38 37 34 34 34 33 30 29 29 32 33 32 32 34 28 28 34 34 32 31 30 23 20 23 27 22 30 31 30 35 39 40 43 43
39 42 50 45 32 33 37 36 37 37 37 36 35 36 37 36 35 33 31 32 33 32 33 36 33 26 28 33 36 34 35 34 28 26 21 17 16 32 27 35 35 40 43 44 43
40 34 43 42 42 36 36 35 35 38 38 38 37 38 38 36 36 34 34 33 34 33 39 39 35 31 26 30 34 32 33 34 30 24 24 23 21 21 24 34 37 40 43 44 43
41 37 39 33 36 36 35 35 33 36 38 39 38 38 37 35 34 33 34 34 35 38 39 38 32 34 34 34 35 35 32 31 29 26 24 24 27 28 28 33 38 41 41 42 42
40 41 42 37 39 38 36 35 34 35 38 37 37 36 37 36 33 31 33 33 31 39 38 40 33 34 32 34 35 35 35 31 31 27 29 33 30 32 33 36 37 39 40 41 42
45 46 42 40 38 37 37 37 36 38 39 38 38 38 37 37 37 38 37 37 37 36 37 37 35 34 31 36 36 33 36 32 33 32 29 33 33 33 33 34 37 38 40 41 42

GFSSW_sfc_dewp_036.txt.gz
Dewpoint
56 55 54 53 53 54 54 53 53 54 55 56 58 60 61 62 61 58 53 54 55 57 55 49 47 48 46 45 52 47 41 38 37 36 35 37 35 36 36 31 35 36 39 38 47
57 56 55 54 54 54 54 53 53 54 54 55 56 58 60 60 57 55 57 60 60 59 53 48 45 47 42 43 48 48 43 40 41 38 37 38 38 38 37 37 37 37 39 47 53
58 57 56 55 54 54 54 53 53 53 53 55 55 56 57 56 47 47 55 60 61 60 52 51 49 46 42 42 44 46 44 44 44 45 44 41 40 41 38 38 38 37 38 42 52
58 58 57 56 54 55 53 53 53 52 53 55 54 55 55 52 35 45 55 54 57 57 53 51 47 42 40 40 44 40 44 47 47 47 47 45 44 44 40 39 38 40 39 39 39
58 58 58 56 55 55 54 53 54 53 51 54 54 55 50 44 45 46 53 50 54 55 53 50 46 43 39 39 40 39 42 43 43 42 45 46 45 45 45 43 44 44 41 40 39
58 58 58 58 56 55 55 53 54 53 53 51 53 54 47 32 40 44 44 43 48 55 53 51 48 47 42 42 40 40 41 40 40 39 40 41 41 43 44 45 43 41 41 41 40
58 58 57 58 57 55 56 54 55 55 54 52 52 51 46 38 42 45 44 43 43 49 51 52 50 46 45 41 43 42 39 40 39 39 38 40 38 39 40 44 44 44 42 40 40
56 57 57 57 57 56 56 55 55 55 54 53 51 49 39 45 47 45 44 41 42 43 44 49 50 47 41 40 39 39 38 33 35 38 38 38 33 37 38 39 42 43 42 41 41
53 56 57 56 57 57 56 55 54 53 53 54 50 42 37 44 42 44 43 39 41 40 41 42 40 38 38 36 33 35 29 32 34 37 37 38 35 39 40 40 41 42 41 40 40
50 53 56 56 56 56 56 54 52 51 51 52 47 42 41 38 42 43 44 42 40 40 39 38 39 35 36 34 25 27 29 30 32 35 35 35 35 37 37 38 38 40 41 40 40
49 52 54 57 56 56 54 49 42 41 46 42 43 41 40 43 43 43 43 40 39 38 35 37 34 32 32 32 32 33 31 31 33 34 34 33 33 34 35 38 39 39 40 40 40
49 51 54 54 56 56 50 44 41 40 38 44 45 44 43 44 40 41 42 38 37 35 36 35 32 33 33 33 34 34 32 30 30 34 33 31 31 32 32 34 35 36 39 40 40
48 49 52 54 56 54 48 44 46 43 35 37 43 43 43 44 40 40 40 38 36 34 35 31 30 34 34 33 32 32 31 29 27 30 32 32 27 21 24 27 31 31 33 38 40
47 48 50 53 53 51 47 48 47 44 27 32 39 41 44 43 38 42 41 38 36 33 34 34 34 33 32 31 32 29 31 32 30 29 24 30 21 21 24 24 24 27 34 39 40
48 48 49 51 51 48 48 47 49 38 13 33 38 44 44 38 39 40 42 39 35 35 35 31 33 34 32 31 32 29 32 32 32 31 29 28 25 21 25 22 25 34 36 38 40
47 47 49 50 52 50 48 49 44 24 18 33 37 38 40 40 39 40 40 41 41 36 36 33 36 35 33 33 33 34 32 33 34 33 26 24 25 21 18 19 24 31 34 38 40
48 48 48 50 48 49 49 45 31 24 30 31 33 35 34 35 36 37 37 38 35 32 31 33 35 36 37 33 34 32 32 23 21 23 19 24 24 23 22 23 26 28 34 37 39
48 48 49 49 51 50 46 36 21 26 29 34 32 32 29 31 32 35 35 33 37 35 30 26 20 33 36 33 29 30 29 21 12 17 19 24 22 20 26 26 25 25 29 35 37
49 47 48 52 52 49 41 29 24 26 32 32 32 28 30 32 32 33 34 32 30 36 31 27 23 31 34 35 32 32 29 29 26 23 22 24 26 26 24 22 25 32 29 28 37
44 44 46 51 52 47 37 29 28 33 34 32 28 30 28 31 31 33 32 31 31 34 33 27 19 28 33 35 35 33 32 28 28 19 16 20 21 20 22 22 20 19 24 34 39
43 39 47 51 50 41 32 32 31 37 35 32 30 30 29 29 31 31 29 31 32 33 34 31 28 27 34 33 29 33 31 33 28 27 16 14 14 24 27 31 33 31 20 35 40
43 35 49 50 36 36 35 35 38 37 38 37 34 33 32 32 30 31 30 29 32 35 32 33 33 27 26 29 33 30 31 30 26 21 23 21 16 28 33 34 36 36 37 40 43
39 40 49 47 30 32 37 36 36 37 37 35 34 35 35 33 33 34 32 33 33 34 33 33 32 23 22 33 33 33 34 34 31 31 22 17 16 21 22 24 37 41 42 42 41
39 35 41 41 40 36 35 34 35 38 37 37 35 36 36 36 37 34 34 35 34 33 37 36 34 28 24 26 31 31 33 33 32 27 24 22 19 18 20 28 34 40 43 43 41
40 35 37 32 34 37 36 34 34 34 37 38 37 35 33 34 34 35 36 34 35 36 36 37 32 34 33 33 33 34 34 33 31 30 25 22 22 23 27 29 34 40 44 44 41
39 39 41 34 38 37 36 34 32 36 35 35 35 33 34 35 36 32 32 33 32 37 37 38 33 35 32 34 35 33 35 35 33 33 29 26 24 27 32 34 35 39 42 44 41
45 45 39 37 38 36 36 35 35 35 38 36 36 36 36 37 39 39 38 37 37 36 37 37 35 33 29 35 35 33 34 35 34 32 30 27 27 27 32 34 37 39 42 43 42

GFSSW_sfc_dewp_039.txt.gz
Dewpoint
59 57 56 54 53 53 54 54 54 54 54 55 56 59 61 61 61 58 53 54 55 58 55 50 47 48 46 46 51 46 43 39 37 35 35 37 35 37 37 34 37 36 38 40 51
58 59 57 55 54 54 54 54 54 53 54 55 54 57 59 59 57 56 58 59 60 59 54 48 46 46 42 44 49 48 44 41 41 39 38 38 38 38 38 38 38 38 39 47 52
58 58 59 57 55 54 54 54 53 53 54 55 54 55 56 55 47 47 54 59 61 60 52 50 48 45 42 43 46 48 43 44 44 44 46 44 43 41 39 41 40 39 40 41 50
57 58 58 58 56 55 55 54 54 53 52 54 54 55 55 51 38 45 55 54 56 58 53 50 47 42 40 40 43 42 44 47 46 46 46 45 46 46 43 42 41 40 41 41 41
55 57 58 58 58 56 55 54 53 54 52 53 54 55 50 43 46 46 51 47 55 55 53 50 46 42 39 39 40 41 42 43 43 41 41 45 45 45 46 47 45 46 46 45 44
52 55 56 58 58 57 55 55 53 54 53 52 53 53 45 30 39 43 44 43 50 54 53 50 48 45 43 42 40 40 41 41 41 40 40 40 40 44 43 46 46 46 46 45 43
50 52 54 56 57 57 56 55 54 55 54 52 52 50 46 38 43 46 44 43 43 53 52 52 49 46 45 43 43 42 40 40 40 40 39 39 37 38 40 42 43 44 44 45 45
49 50 52 55 57 57 56 56 55 55 55 54 52 49 38 45 47 45 45 42 43 46 48 53 51 47 43 41 37 38 36 34 36 38 39 38 30 36 37 39 39 40 41 43 43
48 49 50 53 55 57 57 56 55 54 54 53 49 42 39 44 41 43 43 39 41 41 42 48 42 39 38 36 34 33 29 33 34 37 37 38 35 38 41 39 39 40 41 42 43
48 49 49 53 54 57 56 55 53 51 52 52 48 42 42 38 41 43 44 42 40 40 39 39 39 36 37 34 26 28 31 32 32 33 35 33 33 35 35 36 36 37 39 40 41
47 49 49 51 54 56 55 50 44 42 47 40 42 39 40 42 44 43 43 40 39 38 36 38 35 33 33 33 32 33 33 31 31 33 32 32 32 32 34 34 35 35 35 37 40
47 49 48 49 54 54 51 44 41 39 38 42 43 43 44 44 39 42 42 38 37 35 36 35 32 33 33 33 33 32 31 29 30 31 32 31 30 30 31 31 31 31 33 35 37
46 48 48 48 51 51 49 44 45 42 33 37 41 43 43 43 40 40 40 38 36 35 35 32 30 34 33 33 31 32 31 29 28 29 30 29 25 21 22 26 28 30 32 33 35
46 47 48 47 47 48 48 48 47 45 27 30 39 41 44 42 38 43 41 38 36 34 35 34 35 33 33 32 33 28 31 31 31 30 24 29 20 21 21 21 21 23 27 31 32
45 46 47 47 46 47 49 48 48 41 10 32 39 44 44 39 37 40 42 39 35 34 34 31 33 34 32 31 33 29 31 31 31 30 30 27 26 22 24 23 24 25 27 28 32
45 46 46 47 47 48 51 50 43 28 13 34 38 39 40 37 39 40 39 41 41 35 36 33 35 34 33 33 33 33 32 32 33 33 25 24 26 21 20 20 21 22 24 33 34
47 47 46 46 43 50 51 46 30 21 29 32 33 37 35 35 37 37 38 36 35 31 31 34 35 37 36 33 34 32 33 24 21 22 18 23 25 23 22 23 23 23 25 29 34
47 48 47 46 48 51 48 36 24 26 28 32 32 34 31 33 33 36 34 34 37 35 31 27 22 33 36 34 28 31 30 23 13 15 18 24 22 21 24 26 26 26 26 27 35
49 46 46 47 49 50 40 30 25 26 32 31 31 29 29 30 31 32 34 32 33 36 30 28 26 30 35 35 33 30 29 30 24 23 21 19 21 21 22 23 26 25 26 31 30
45 41 42 48 50 47 36 32 27 33 34 33 29 29 26 28 31 32 32 31 31 36 34 30 26 27 32 35 35 32 32 27 28 19 17 19 19 18 21 20 25 33 35 33 30
44 37 45 49 49 39 32 33 32 36 34 31 30 30 29 31 31 31 29 31 32 33 35 32 28 25 33 31 28 31 30 32 31 29 20 15 14 19 19 25 33 35 38 38 30
42 34 48 50 34 33 34 34 39 37 37 36 34 32 30 31 30 30 29 30 32 34 32 33 32 25 25 30 32 30 29 29 26 25 27 24 19 23 30 35 36 37 41 42 41
37 38 49 44 30 32 37 36 38 37 35 34 34 35 35 33 31 31 32 33 34 33 32 33 32 25 21 29 32 33 32 30 32 31 26 22 18 21 22 25 32 37 42 41 40
39 33 38 40 38 33 35 35 35 38 37 36 36 35 35 34 35 32 33 35 34 34 36 35 33 25 21 22 28 31 33 33 32 27 24 26 22 21 22 23 31 33 43 41 39
39 35 38 32 35 35 36 34 35 34 37 37 35 34 33 32 32 33 33 34 35 36 35 36 32 32 30 31 32 33 33 33 31 30 27 23 25 25 25 31 31 34 42 42 39
38 36 40 35 37 37 37 34 33 35 36 35 33 35 34 33 32 33 33 33 32 36 34 38 33 35 32 33 33 33 35 35 35 32 32 30 28 30 28 34 35 37 42 42 39
43 44 40 37 37 37 36 34 34 36 36 35 36 35 34 35 36 37 38 38 37 36 36 36 35 33 28 32 33 33 36 35 35 34 32 30 31 31 30 31 34 39 41 43 39

GFSSW_sfc_dewp_042.txt.gz
Dewpoint
59 58 58 57 56 54 54 54 55 54 54 54 55 57 60 61 61 58 53 52 54 58 56 50 46 45 45 44 50 48 34 28 30 29 30 35 33 33 35 33 36 35 36 42 47
57 58 59 58 57 56 54 54 55 54 53 54 55 56 58 58 58 56 56 59 60 59 51 48 45 43 41 42 45 42 36 32 33 35 33 34 36 35 36 35 35 36 38 43 48
55 57 57 59 58 56 55 55 54 54 53 54 54 55 56 55 49 49 58 61 61 60 55 50 46 43 40 42 43 42 38 36 40 40 43 42 41 41 37 36 37 36 37 41 44
51 54 56 57 58 58 56 55 54 54 53 53 54 54 55 51 33 51 55 53 57 58 53 50 46 42 40 38 40 40 40 41 42 44 44 43 43 42 40 36 39 41 41 43 43
49 51 53 54 57 58 57 56 55 54 54 52 54 54 49 41 42 45 49 47 54 55 52 49 46 43 40 39 40 39 37 39 39 42 40 40 39 40 40 42 43 44 45 44 44
49 49 51 52 55 57 57 56 55 54 54 52 52 54 43 30 40 43 43 44 53 52 52 50 47 45 42 40 39 38 39 39 39 39 39 38 37 37 37 38 37 38 41 42 43
47 48 49 50 52 55 58 57 55 54 55 53 53 48 44 36 40 44 43 42 47 52 49 50 47 45 44 41 43 40 38 36 36 36 37 38 35 35 36 36 35 36 36 38 38
46 48 49 49 51 54 56 57 56 56 55 54 53 47 40 44 44 43 42 41 48 50 51 50 49 45 41 40 37 35 36 31 33 36 36 36 28 29 34 35 36 35 35 36 38
45 48 48 49 50 52 54 57 56 55 55 54 49 45 40 44 41 40 41 38 43 44 47 51 47 40 39 35 32 32 25 29 31 35 35 36 32 33 39 36 36 34 36 37 38
45 47 48 49 50 51 53 57 56 54 52 51 48 43 42 38 39 42 42 41 39 42 42 41 38 35 34 33 24 24 27 27 28 30 32 31 31 32 34 34 34 35 36 37 38
45 47 47 49 49 50 52 54 45 43 45 37 37 38 39 41 43 41 41 40 40 38 35 38 35 32 31 32 31 30 29 29 28 30 29 27 26 26 27 28 28 29 31 32 33
46 46 46 48 48 49 51 47 42 42 38 41 43 40 42 42 38 41 41 37 37 34 36 36 32 32 32 32 32 30 29 27 28 28 28 26 25 26 26 27 28 27 25 24 25
46 46 46 48 47 47 46 46 46 43 35 39 40 41 42 42 38 39 38 37 34 35 35 32 30 32 32 32 31 30 28 27 26 27 28 28 25 23 21 22 24 25 26 26 26
45 46 45 47 45 46 43 50 50 45 37 34 37 37 42 41 37 40 38 36 35 32 34 33 33 31 31 30 30 27 29 30 29 28 25 28 21 22 22 22 23 22 23 25 27
44 46 46 46 44 41 47 52 50 45 26 33 38 42 40 36 37 40 40 37 33 33 34 32 33 33 31 30 31 28 30 29 29 28 28 26 27 19 19 20 20 21 22 23 25
46 47 46 45 45 43 48 51 46 32 24 33 39 39 39 36 36 40 39 39 36 34 34 31 34 33 31 32 32 32 31 30 30 31 25 21 25 17 10 11 15 19 21 22 23
46 47 46 45 41 45 49 44 31 29 30 32 33 38 34 33 37 37 37 36 34 32 32 32 33 34 34 31 33 32 33 27 24 24 20 18 20 20 16 20 22 21 20 23 25
48 49 48 45 46 47 46 33 28 27 28 32 33 35 34 32 35 35 35 34 34 32 30 28 27 32 35 32 30 33 29 24 18 15 10 20 20 15 19 23 24 23 21 28 29
48 46 45 46 47 48 41 29 30 26 30 30 32 30 31 32 32 32 33 31 33 34 31 28 28 30 34 34 31 29 29 29 27 24 21 15 15 16 17 17 19 21 28 31 31
46 44 44 47 48 45 36 31 32 32 31 31 28 28 27 29 29 29 30 30 30 33 32 30 30 27 31 35 34 30 29 26 30 19 17 16 15 15 17 18 20 21 28 30 34
45 39 43 48 48 37 32 34 33 33 33 30 29 29 28 27 29 29 29 31 31 33 34 31 29 29 31 31 28 31 31 31 29 28 20 18 17 18 17 17 18 29 30 32 38
41 34 44 48 36 34 35 36 36 34 36 34 32 31 29 30 29 29 29 29 32 34 32 32 31 27 28 28 28 27 27 27 27 26 28 26 22 22 22 23 31 29 28 33 40
38 37 47 46 33 34 37 37 37 35 34 33 33 33 33 30 30 29 30 32 34 32 31 32 31 27 28 31 29 31 30 29 33 31 28 24 22 22 24 29 28 27 28 32 40
39 33 39 41 40 35 36 36 36 38 36 36 34 34 32 31 33 32 32 34 34 32 36 35 32 31 26 23 28 32 33 34 32 29 26 27 25 24 21 24 25 25 28 37 41
37 34 38 35 36 35 35 34 34 33 36 36 34 32 32 31 31 32 33 33 35 35 35 33 33 31 31 30 30 32 32 34 32 31 29 26 25 25 26 26 27 27 32 39 41
36 35 39 35 36 34 36 33 32 35 34 34 32 33 32 30 30 31 31 32 32 34 34 36 32 33 32 30 31 34 35 37 37 37 34 33 31 31 31 29 29 33 35 40 42
43 43 39 36 35 35 34 33 33 34 35 35 34 34 33 33 34 33 36 36 37 35 34 34 33 33 29 30 31 33 36 37 37 35 34 32 31 31 31 33 32 35 37 38 40

GFSSW_sfc_dewp_045.txt.gz
Dewpoint
54 57 58 58 59 57 56 55 55 55 55 54 55 55 57 60 61 57 54 53 53 58 58 48 46 45 44 43 43 45 36 29 29 24 24 28 29 32 31 30 31 30 32 41 46
52 53 56 57 58 59 57 56 55 55 54 54 54 55 56 58 56 54 56 57 58 59 52 47 43 43 41 42 43 42 34 30 26 25 26 30 32 31 33 32 30 33 34 40 45
49 51 52 55 56 58 58 56 55 55 54 53 55 55 55 55 50 50 61 60 61 59 51 48 45 42 39 39 40 41 35 31 31 38 37 35 32 35 34 34 31 31 34 39 44
47 48 50 52 54 56 58 58 56 55 54 53 55 55 55 51 38 50 56 61 62 58 54 49 45 42 40 38 37 37 36 35 36 39 41 40 39 36 35 36 33 35 39 40 41
45 47 48 50 52 54 55 58 56 55 55 53 54 55 49 45 41 50 51 49 51 53 54 49 45 42 39 37 37 37 37 35 36 38 39 40 38 38 37 39 38 38 40 42 42
46 45 47 48 49 50 53 56 58 56 55 54 53 54 45 34 38 43 45 46 48 50 51 50 47 45 41 39 38 37 37 36 37 36 37 37 36 36 35 35 35 37 38 39 41
45 46 46 48 50 49 52 54 58 56 55 55 52 48 43 37 37 39 43 44 50 47 50 51 48 44 42 40 41 39 37 36 35 35 35 36 34 34 35 35 34 33 34 34 35
44 44 46 47 49 50 51 53 55 57 56 55 53 46 41 43 42 41 41 44 51 50 47 48 48 44 40 40 36 35 34 30 31 33 32 34 30 28 31 31 32 32 32 33 34
45 44 45 46 48 49 51 51 54 58 56 54 49 46 40 45 40 39 38 39 46 48 50 49 47 42 39 34 30 31 26 27 27 31 32 34 31 29 33 34 31 31 31 32 33
46 44 45 47 48 49 50 51 53 57 54 52 47 42 40 38 40 40 40 38 41 41 43 42 39 35 34 31 24 25 26 26 24 28 30 29 29 30 31 31 33 33 33 34 33
45 45 46 47 47 48 48 48 49 47 49 41 41 36 39 40 41 40 40 38 39 39 35 36 33 30 30 29 29 29 27 26 27 27 27 26 26 26 26 26 26 27 28 29 30
45 45 46 47 47 48 47 42 44 46 41 40 39 39 40 40 38 38 40 36 35 35 34 35 34 31 31 30 30 30 28 26 26 27 27 25 24 25 26 26 26 26 26 26 27
45 45 45 47 47 45 43 41 48 47 40 40 40 38 41 41 36 38 38 36 33 32 32 33 30 32 31 31 30 29 27 26 25 26 27 26 25 23 24 26 26 26 26 26 27
45 44 46 47 44 43 40 45 48 50 35 35 38 38 41 40 37 39 39 35 34 31 33 32 32 29 30 30 29 27 27 27 27 27 24 27 23 23 21 21 22 22 23 24 25
44 45 47 47 43 40 40 49 48 46 27 35 36 38 40 36 37 38 38 36 32 30 32 32 32 31 30 29 29 28 29 28 28 27 27 26 26 21 17 14 16 19 21 21 23
44 44 46 46 45 41 44 48 45 30 27 34 38 36 37 34 36 38 37 37 34 31 33 31 32 32 31 31 31 31 29 29 29 29 26 23 23 18 10 9 13 13 18 21 21
45 47 46 45 41 43 45 44 30 25 32 33 33 36 34 32 34 36 36 35 33 31 31 31 31 32 32 30 32 32 30 27 26 25 21 16 16 18 15 16 17 17 19 19 20
46 49 48 45 47 46 44 34 26 33 29 31 35 34 32 32 33 32 33 33 32 30 29 28 28 30 34 31 30 31 30 25 20 17 14 17 17 14 15 19 20 21 22 22 22
48 47 45 45 45 48 39 28 30 31 30 32 34 33 31 31 34 33 31 31 30 30 31 27 28 30 33 33 31 31 30 29 26 23 20 15 11 13 15 16 17 19 21 23 26
45 44 43 45 47 45 36 28 34 32 31 32 29 29 30 30 31 29 32 31 30 30 31 29 30 28 31 33 33 29 28 26 29 20 17 14 15 16 18 18 19 19 21 24 28
45 38 45 47 47 39 32 34 36 31 31 29 28 27 27 28 28 28 29 30 30 31 32 31 30 28 30 31 29 30 30 29 26 26 20 18 17 19 20 20 19 20 21 27 29
42 35 46 46 36 36 34 36 38 33 35 32 30 28 27 28 28 28 28 29 31 31 30 31 31 29 29 28 28 27 27 27 27 24 27 26 22 23 23 22 23 23 26 28 27
39 37 46 46 34 35 36 38 38 33 33 32 32 30 29 28 28 28 29 31 32 31 30 31 31 27 29 29 28 28 28 27 30 32 29 25 23 22 22 25 24 26 27 25 26
38 34 39 41 40 36 36 36 36 38 35 34 33 32 30 30 31 30 30 33 34 31 37 34 31 31 27 27 28 32 31 32 33 29 26 27 25 25 26 28 28 25 26 28 28
37 35 38 35 36 38 35 37 33 32 35 34 33 31 30 29 30 30 30 34 35 35 33 33 32 31 30 29 29 30 31 32 33 33 29 28 28 30 32 32 31 30 28 28 35
37 36 38 35 34 36 34 37 34 34 33 31 31 31 29 29 28 29 31 31 32 34 33 35 31 31 31 30 30 32 31 31 34 37 36 36 34 36 34 31 33 31 29 35 37
43 42 40 36 33 32 31 30 31 34 34 33 32 32 31 32 32 33 33 34 36 34 34 35 34 33 28 29 28 32 34 36 38 38 37 33 32 32 32 35 39 39 40 39 40

GFSSW_sfc_dewp_048.txt.gz
Dewpoint
50 51 53 55 56 57 59 58 57 56 56 56 55 55 55 57 59 58 52 54 56 58 56 52 47 46 45 45 43 42 37 33 32 29 28 26 29 31 32 30 30 31 31 43 51
47 48 50 52 54 56 56 59 57 56 56 55 54 55 55 56 54 53 54 58 59 59 50 47 44 43 43 43 42 42 40 38 35 29 30 31 31 32 32 30 30 31 32 43 46
47 46 47 49 51 54 55 56 58 56 56 55 54 55 55 54 49 47 59 59 60 59 54 49 45 42 41 41 40 40 39 36 32 30 39 38 36 35 33 34 34 31 32 39 44
47 47 46 46 49 51 53 54 56 58 56 55 53 55 55 50 37 51 60 60 61 58 53 50 46 42 40 37 37 37 38 38 38 37 40 39 39 38 34 35 36 35 36 40 41
47 46 46 46 47 48 50 52 55 57 57 55 54 55 49 45 43 54 56 54 58 57 53 52 44 42 39 38 37 35 35 36 36 36 37 40 40 39 39 38 37 37 38 40 41
47 47 46 45 47 48 50 50 53 55 58 56 54 55 46 36 38 47 47 45 48 53 54 53 47 45 43 40 38 37 37 37 37 36 36 36 36 37 36 36 36 37 38 38 40
48 47 46 45 46 47 49 50 52 53 56 56 54 50 43 39 38 38 43 42 47 47 51 52 49 46 43 41 41 39 37 38 37 36 36 36 34 35 36 36 35 34 34 35 37
47 47 47 45 46 46 48 50 51 52 53 57 55 46 41 43 43 40 39 41 46 47 50 51 50 46 45 40 38 37 37 34 32 34 34 34 31 33 34 34 34 34 33 33 34
46 47 47 46 46 47 48 49 50 51 53 57 51 46 39 46 41 40 38 39 45 46 49 50 48 44 40 37 34 33 28 30 30 33 32 32 31 33 32 33 33 32 32 32 32
46 47 46 46 46 47 48 49 49 49 52 54 49 45 40 39 41 40 38 40 43 47 48 47 44 39 37 34 27 27 28 27 26 31 31 30 30 30 30 29 32 33 33 32 33
46 46 46 46 47 47 47 46 43 45 49 44 44 38 39 40 41 39 38 37 40 43 38 41 37 34 33 34 31 29 28 27 27 27 26 26 26 26 27 27 26 28 29 30 32
46 46 46 46 47 47 46 40 40 45 38 47 45 39 39 40 38 39 40 37 37 35 36 35 32 32 31 31 30 28 28 28 27 27 26 26 25 26 26 25 25 25 25 26 28
45 46 45 46 47 45 42 40 47 44 36 41 45 39 38 39 37 39 38 36 35 34 34 32 32 33 32 31 30 30 28 27 25 27 27 26 25 25 25 27 26 27 26 26 27
45 45 45 47 44 43 40 46 48 46 32 37 41 39 40 40 36 39 39 36 34 32 30 31 32 29 31 30 30 27 29 28 27 27 24 27 23 23 22 22 23 24 26 27 27
45 45 45 46 43 39 41 48 47 43 21 39 40 41 41 36 38 37 40 36 33 31 33 32 32 31 30 29 30 28 31 29 29 27 26 25 24 24 21 19 17 19 22 24 25
44 45 45 44 45 42 45 46 43 29 20 35 38 38 37 36 35 37 37 38 36 31 32 32 33 33 31 30 31 32 30 30 29 28 24 25 24 22 17 15 15 15 19 21 21
44 45 46 47 40 43 45 41 29 23 35 34 35 36 34 34 35 35 35 34 33 30 31 30 31 32 33 30 32 32 29 22 23 23 19 20 23 22 19 18 19 17 18 20 19
47 48 46 45 48 44 44 34 23 30 33 35 34 35 30 33 34 34 35 32 33 30 30 28 26 31 32 31 30 31 31 24 16 18 20 22 19 16 18 18 21 21 21 23 23
47 45 46 46 48 45 38 26 26 34 35 36 34 34 30 31 33 33 33 29 30 31 30 28 29 32 32 32 31 30 29 29 26 23 18 18 13 13 13 14 16 19 22 22 23
44 44 44 47 47 44 35 27 32 36 34 34 31 31 29 30 31 30 31 31 29 32 31 31 29 30 32 34 33 30 29 26 26 12 14 17 14 15 18 20 20 19 20 22 24
44 39 45 48 47 39 30 33 35 38 35 31 28 28 27 30 29 28 29 30 29 30 31 30 30 29 31 31 29 30 31 29 27 24 17 18 17 20 22 23 23 23 24 24 28
40 34 46 47 35 36 34 34 39 38 36 31 30 28 28 28 28 26 28 29 31 31 29 30 32 29 29 29 31 30 28 28 21 18 24 22 22 24 24 24 27 27 25 26 28
38 38 46 45 30 31 36 37 38 38 34 32 30 29 28 28 28 29 29 31 33 31 31 32 31 24 26 28 29 28 29 28 29 29 24 23 21 22 24 27 28 29 29 27 28
39 34 39 41 40 34 34 35 36 38 35 34 31 29 29 29 30 29 30 33 34 33 38 34 32 27 23 28 31 28 29 29 31 28 25 26 25 27 28 32 35 35 34 31 31
39 35 38 34 36 36 37 37 34 32 35 35 33 30 29 28 28 28 32 33 35 37 32 33 29 30 31 30 28 29 30 31 32 30 28 26 28 31 36 35 35 36 38 38 32
37 35 37 37 38 36 37 36 34 33 34 31 32 31 31 29 29 28 30 31 32 34 33 34 30 32 27 29 29 29 30 30 31 32 36 36 36 38 36 33 35 38 40 41 38
43 42 39 37 36 35 35 35 34 35 35 33 32 32 32 33 33 33 35 32 34 33 32 35 33 31 27 29 28 28 31 32 37 38 38 35 36 37 37 36 39 40 41 41 40

GFSSW_sfc_dewp_051.txt.gz
Dewpoint
48 48 48 48 49 53 55 56 57 59 57 56 56 55 55 56 57 56 53 53 57 61 56 53 50 48 46 44 44 41 37 35 36 34 31 31 30 30 32 29 30 31 37 49 56
48 48 48 47 47 48 51 55 55 57 58 56 56 55 54 56 53 52 55 58 60 61 54 49 47 45 43 43 43 39 38 37 37 35 32 35 37 34 31 30 30 31 42 46 55
48 48 47 47 47 47 48 50 53 55 58 57 56 54 55 54 50 48 57 59 60 60 51 49 48 43 42 42 41 39 38 40 39 38 37 39 37 38 33 34 31 30 32 44 47
49 48 48 48 47 47 46 50 50 53 55 58 56 54 55 51 37 53 60 60 60 58 55 52 50 46 40 39 39 38 39 39 39 39 39 39 41 40 39 35 37 36 37 39 43
49 49 49 48 47 46 47 47 50 51 54 56 56 54 53 46 46 54 59 60 56 56 54 52 49 44 39 39 38 36 37 38 38 38 36 38 39 39 39 40 39 39 39 38 40
50 50 48 48 47 47 46 47 48 50 53 55 57 56 49 40 42 53 52 54 55 55 54 53 48 44 43 42 39 39 38 37 38 37 37 36 36 37 38 38 36 36 36 38 39
49 49 48 48 48 47 47 46 48 49 51 54 56 52 46 40 38 48 47 44 49 53 53 53 52 46 44 41 41 40 38 38 38 38 37 36 35 35 37 38 37 36 35 35 36
48 48 47 47 48 47 46 47 48 48 50 53 54 49 41 45 43 40 39 43 46 48 50 55 53 48 45 40 38 37 37 35 36 36 37 36 32 35 36 36 35 36 36 35 35
48 47 47 47 47 46 46 47 48 49 50 50 51 47 38 49 43 41 39 41 45 47 51 51 51 45 43 38 35 34 29 33 34 33 35 35 32 34 34 33 32 34 35 35 35
47 47 47 47 46 47 47 47 48 48 47 47 51 43 44 41 42 41 39 41 45 48 48 47 45 40 37 36 31 28 30 29 28 31 31 30 31 32 33 31 30 32 34 33 33
46 46 46 46 46 47 46 44 38 40 43 42 44 41 40 43 42 41 39 39 46 46 42 45 40 35 36 36 33 32 28 28 29 29 26 28 28 27 28 28 28 28 29 30 32
46 46 46 46 46 47 46 40 38 41 36 41 45 42 41 41 38 39 39 38 41 40 37 38 35 37 36 36 35 32 28 28 29 28 27 26 26 27 27 27 27 27 27 28 29
45 46 46 46 46 45 42 42 45 44 36 37 38 43 40 41 39 38 38 38 36 36 35 33 31 34 33 33 30 30 28 28 27 28 27 26 25 25 27 27 27 27 26 26 26
45 45 45 46 43 43 40 47 47 46 31 35 38 43 41 41 38 40 39 37 36 34 35 33 34 32 32 32 30 28 29 29 28 27 24 27 22 25 24 21 23 26 27 27 27
44 44 45 46 43 41 43 47 45 42 17 36 38 47 40 39 38 38 41 38 34 34 33 32 32 31 30 31 31 29 31 29 29 27 25 25 23 23 25 20 20 18 21 26 28
44 45 46 45 45 43 46 47 44 25 15 35 40 39 37 37 37 38 38 38 38 34 33 32 34 33 31 31 31 31 30 29 29 27 21 24 23 19 20 19 16 19 18 23 24
45 46 46 46 41 44 45 41 22 13 33 33 35 36 36 35 35 36 35 34 32 31 32 31 32 32 33 30 32 30 27 16 24 23 18 24 24 23 24 23 21 20 18 20 20
47 49 46 45 47 44 42 33 16 26 30 38 38 35 34 33 34 35 34 32 34 30 28 24 23 31 32 31 30 30 27 18 13 15 21 23 22 20 20 23 20 21 20 20 22
49 45 45 46 48 44 37 25 23 31 36 36 36 34 34 34 34 34 33 31 31 31 27 26 27 32 32 32 32 31 27 29 22 22 16 20 17 16 17 20 17 20 21 21 22
45 43 43 47 46 42 32 28 31 35 35 37 33 33 31 32 31 31 31 31 29 31 33 31 28 31 33 34 34 29 30 23 20 8 12 18 16 15 20 22 23 24 24 25 26
44 38 45 46 44 37 27 31 33 35 39 37 32 30 29 31 30 30 30 31 30 30 33 31 29 31 33 31 29 31 31 28 25 22 14 15 18 20 21 23 24 26 27 27 26
40 33 44 47 32 34 33 34 36 37 40 37 33 29 28 31 29 28 29 30 31 32 30 32 32 27 27 30 31 31 29 27 17 14 19 23 22 25 24 25 27 28 33 33 34
38 38 44 42 27 29 36 35 36 38 37 34 31 30 30 29 28 29 30 31 32 31 30 32 30 24 28 29 31 30 31 29 27 26 17 18 20 23 25 26 28 35 37 36 36
38 32 38 39 39 36 34 34 35 39 38 35 31 30 30 30 32 31 30 34 35 35 40 35 31 22 21 25 30 26 28 29 30 24 23 23 23 24 26 28 34 37 37 37 38
39 35 37 34 35 37 37 37 35 34 36 35 30 31 30 29 30 31 32 33 35 36 34 33 25 28 30 30 31 29 29 29 25 27 27 24 25 27 30 36 38 39 38 38 39
37 35 38 36 38 36 37 36 36 34 35 32 30 32 31 31 30 30 32 32 32 33 31 34 26 30 26 29 30 29 29 30 30 29 29 28 30 35 38 38 38 40 41 41 41
42 42 39 37 37 36 36 36 36 35 34 33 33 35 35 35 34 34 33 33 34 33 32 33 30 28 23 28 28 25 29 30 30 33 32 33 36 40 40 39 40 41 41 40 40

GFSSW_sfc_dewp_054.txt.gz
Dewpoint
49 48 48 48 48 47 48 48 52 55 56 59 57 56 56 55 56 54 51 53 56 61 57 53 50 48 48 44 43 41 37 36 34 32 32 34 34 32 31 29 30 32 43 51 56
49 48 49 48 48 47 47 46 47 50 53 55 59 57 56 56 53 50 54 59 59 59 58 49 50 48 44 43 42 39 37 37 38 37 35 34 37 36 32 30 30 37 47 55 57
49 50 50 50 48 48 48 46 47 49 50 53 56 57 55 54 48 47 55 59 60 59 56 53 49 45 43 43 41 39 38 39 39 40 40 39 38 39 36 32 32 34 46 48 55
49 50 50 50 49 48 48 47 45 46 50 51 54 58 55 52 33 49 59 58 60 58 54 51 50 47 41 40 41 39 39 38 40 40 39 38 40 40 39 36 40 40 38 38 45
51 51 50 50 49 48 48 48 47 47 46 50 53 57 53 45 43 48 59 58 55 57 54 51 49 47 40 39 39 37 38 38 39 39 38 37 38 39 39 40 40 39 39 38 38
49 49 49 49 49 48 48 47 47 46 47 49 52 55 50 40 43 45 54 56 55 56 54 53 50 48 41 41 39 39 37 37 38 38 38 37 36 36 38 39 38 38 37 37 37
48 48 48 48 48 48 48 47 46 47 47 49 50 52 47 39 40 53 52 53 56 55 52 53 52 46 44 41 41 40 38 38 38 38 37 38 35 35 37 37 37 37 37 37 36
48 48 47 47 47 47 47 47 46 47 47 49 50 49 44 45 44 43 41 43 46 51 54 55 54 48 45 41 38 37 37 34 36 37 36 36 32 35 36 36 36 36 36 36 37
48 48 47 47 47 47 47 47 47 48 48 48 46 46 41 47 45 42 40 41 44 47 52 54 52 48 46 38 35 34 30 32 33 35 35 36 33 34 35 34 34 34 34 35 36
47 46 47 46 47 46 47 48 48 46 46 45 45 43 44 41 43 43 41 40 45 48 48 50 49 43 43 38 32 31 31 30 30 29 33 32 34 34 33 33 33 32 31 33 35
46 46 46 46 46 46 46 43 36 37 40 36 38 39 41 43 43 42 39 39 47 47 43 46 40 38 37 38 32 32 30 28 29 30 27 26 27 29 30 29 29 29 29 30 31
46 46 46 46 46 47 45 39 38 39 35 38 39 41 44 43 40 40 39 38 44 40 42 41 37 38 38 37 35 34 32 30 29 29 27 26 26 27 27 27 27 27 27 28 28
46 46 45 45 47 45 41 41 46 45 35 34 37 40 43 41 39 39 38 40 42 39 38 37 37 37 34 33 34 31 28 28 28 28 27 26 21 22 26 27 27 27 28 28 28
45 45 44 45 42 43 39 45 47 45 29 30 35 38 46 42 38 40 38 39 38 37 36 34 34 33 33 32 30 28 29 29 28 26 23 27 20 24 24 25 23 25 27 28 28
45 45 45 45 43 39 42 46 46 42 7 34 36 42 45 38 38 38 41 38 36 35 35 33 32 32 31 32 31 29 30 29 29 26 24 25 23 21 23 21 20 18 18 21 28
45 45 47 45 45 44 45 45 43 19 10 33 38 38 38 38 37 38 38 38 38 34 33 32 34 32 31 32 31 31 29 29 29 25 15 22 23 19 20 19 16 18 20 21 24
45 48 47 46 42 45 45 41 22 15 32 32 34 39 36 35 35 37 36 34 33 32 32 32 32 32 33 30 32 30 25 14 13 13 14 24 24 23 23 24 23 23 22 20 22
49 48 46 45 47 44 42 33 18 28 28 33 38 37 36 34 35 36 34 31 33 31 29 27 25 30 32 31 30 28 25 18 9 17 20 23 21 20 23 22 20 20 22 24 25
48 44 43 47 47 43 36 22 24 30 33 34 37 34 34 35 35 34 32 31 32 31 27 25 25 33 32 32 31 30 24 27 21 18 14 19 19 15 22 22 23 25 27 27 28
44 43 43 47 45 41 31 27 32 35 34 37 32 33 30 32 34 31 30 31 30 32 32 29 24 32 33 33 34 29 30 23 17 4 9 16 18 15 19 22 23 26 28 30 34
39 38 43 46 44 37 27 30 34 35 36 37 33 30 31 30 31 30 29 31 30 30 32 30 27 33 33 31 28 31 29 26 23 20 13 14 15 20 20 23 26 28 29 34 35
38 33 42 46 31 33 32 36 36 36 40 39 32 32 31 30 29 29 29 30 31 31 30 32 30 27 30 31 32 31 29 25 16 11 15 22 19 25 25 25 27 28 34 37 37
38 36 42 41 30 31 34 35 36 37 38 36 30 30 31 29 28 29 29 32 32 31 31 30 28 22 25 27 32 29 30 29 25 23 15 15 18 24 25 26 28 30 36 38 37
34 30 34 38 38 36 34 33 36 38 39 34 31 30 30 31 32 30 31 36 34 32 40 35 29 21 20 22 28 23 29 30 29 20 21 21 21 23 25 27 31 36 38 39 38
38 34 37 32 35 37 37 37 34 34 34 35 31 32 32 32 30 31 32 33 34 37 34 32 25 27 29 30 30 29 27 28 26 27 22 23 24 25 26 28 34 40 41 41 41
37 36 37 37 38 37 37 37 35 34 34 33 35 34 33 32 31 31 32 32 31 32 33 33 24 29 25 28 30 29 30 29 29 27 27 27 27 28 30 40 40 40 40 40 38
42 42 39 35 35 36 36 36 36 36 36 37 36 35 34 35 35 34 33 33 33 32 32 31 28 28 22 27 28 25 29 29 29 30 29 28 29 33 39 40 39 35 35 34 32

GFSSW_sfc_dewp_057.txt.gz
Dewpoint
50 49 47 49 49 48 48 47 47 46 49 51 53 56 58 57 56 53 48 50 54 59 60 55 54 51 48 45 43 41 37 35 33 33 33 34 34 35 34 29 30 31 45 49 56
50 50 50 50 50 50 48 46 47 46 47 50 52 54 58 57 52 50 52 55 58 58 55 51 49 47 45 44 42 39 37 36 37 36 35 35 37 37 35 33 29 38 51 56 59
51 51 52 51 50 50 49 48 48 46 46 46 50 53 55 55 48 42 51 56 57 58 56 54 50 47 43 42 41 40 37 38 39 40 40 39 37 39 37 34 34 36 37 44 57
49 51 51 51 50 50 50 49 49 48 46 46 47 50 54 52 32 44 56 57 56 56 53 53 48 45 42 41 41 39 39 39 40 41 40 38 39 39 39 38 39 41 40 38 44
49 49 49 49 49 49 50 49 48 48 47 47 47 48 51 46 41 42 51 59 50 55 54 52 48 46 41 41 40 38 39 39 39 39 39 38 37 39 39 40 41 40 39 38 38
50 50 49 49 49 48 48 49 48 48 47 46 47 48 48 41 42 42 40 55 51 55 54 51 48 47 44 40 40 39 38 38 37 37 38 37 37 37 37 40 39 38 38 37 37
49 48 48 49 48 48 48 48 48 47 46 47 47 45 46 43 41 44 47 55 53 55 53 53 51 47 45 41 41 40 38 38 38 38 37 37 35 36 37 37 37 37 37 37 37
46 47 47 47 47 47 47 47 47 47 47 47 47 46 42 47 46 43 44 48 56 56 54 55 54 47 43 40 38 38 37 34 36 37 37 36 31 35 37 36 36 36 36 36 37
47 47 46 47 46 46 47 47 47 47 48 47 44 42 39 47 44 45 42 42 44 52 55 53 52 48 45 37 35 34 31 33 33 36 35 35 33 34 35 35 35 35 35 35 35
46 47 46 46 46 46 47 47 48 47 45 44 43 39 40 41 43 43 42 41 44 48 50 52 49 46 44 38 32 31 31 30 30 29 33 33 34 35 36 34 35 34 34 34 34
46 46 46 46 46 47 45 42 34 33 41 35 35 34 42 44 44 43 41 39 44 47 43 47 41 39 41 40 33 32 31 29 29 30 27 27 28 28 29 30 30 31 32 33 32
46 46 46 46 45 47 44 38 37 40 34 37 38 37 39 45 41 40 40 37 41 42 43 42 38 41 41 42 38 34 32 31 30 30 27 27 26 27 28 28 28 28 28 29 29
45 45 46 46 46 44 40 39 44 45 35 32 36 34 40 45 39 41 38 39 42 41 39 37 37 38 37 36 35 33 31 29 28 28 27 26 23 23 24 26 27 27 28 28 28
44 45 45 46 42 43 39 44 46 45 28 27 35 37 42 45 39 41 39 42 42 39 38 35 35 35 34 32 33 30 29 29 28 26 23 27 18 23 23 23 25 24 24 27 28
45 45 45 46 45 40 41 46 45 42 4 31 32 43 43 41 39 38 41 40 37 36 36 36 33 34 33 32 31 29 30 28 28 26 22 24 23 21 21 20 20 21 20 21 23
46 47 49 48 47 44 46 44 43 19 12 31 34 33 36 38 37 38 38 39 40 36 34 33 35 32 31 32 31 31 28 28 28 24 15 22 21 16 18 19 18 22 22 22 22
48 49 46 47 41 46 44 41 19 10 29 31 31 33 36 34 35 37 38 35 36 32 33 31 31 32 33 30 31 28 25 17 13 13 14 24 23 21 23 25 25 23 23 27 28
49 46 45 45 47 44 40 27 16 27 28 34 34 36 36 35 36 38 34 32 32 32 31 27 27 30 32 31 29 28 25 18 8 13 18 23 21 20 22 21 21 25 28 31 32
47 45 44 47 45 41 34 21 23 30 33 31 36 33 34 36 36 35 33 31 31 31 28 24 24 32 32 32 31 29 22 26 21 18 15 19 18 14 22 23 26 28 29 31 35
40 40 43 47 44 41 31 26 32 35 33 34 33 33 31 35 35 33 31 32 30 31 31 27 25 31 32 34 33 28 29 22 18 8 10 14 17 12 19 22 26 27 28 31 36
38 34 40 45 44 34 27 30 33 35 36 36 31 30 30 31 31 29 29 31 30 31 32 30 27 33 33 31 30 30 27 25 23 20 14 14 10 20 19 24 26 27 28 32 36
35 26 41 44 30 32 30 34 37 36 39 38 32 31 30 30 28 29 28 29 31 31 29 31 29 30 31 31 31 30 28 25 17 14 16 20 17 23 25 25 26 28 31 35 38
34 33 41 40 28 30 35 36 36 37 37 36 30 31 31 28 27 29 29 31 32 31 30 30 26 18 26 29 32 29 30 25 24 20 13 14 16 24 25 25 27 29 34 40 39
33 28 34 35 37 35 33 35 36 38 37 34 31 31 30 31 31 30 31 35 33 32 38 33 27 21 19 21 27 22 29 28 28 20 20 20 20 22 23 26 27 30 40 41 41
36 32 37 32 33 37 37 36 33 32 35 35 32 32 32 30 30 31 32 32 34 39 33 31 25 26 27 29 29 27 27 29 25 26 19 22 24 24 26 27 28 40 40 38 39
37 35 38 36 37 35 36 35 35 35 35 34 34 34 34 31 31 30 31 31 31 32 32 31 25 28 24 28 29 28 29 28 29 29 28 28 27 29 29 29 39 39 35 36 34
41 42 39 32 32 34 35 35 35 36 37 38 36 35 34 35 34 33 33 33 32 31 32 31 28 26 20 26 27 24 28 29 29 29 28 27 28 29 33 39 40 35 33 31 31

GFSSW_sfc_dewp_060.txt.gz
Dewpoint
51 53 52 52 52 50 51 50 48 48 47 47 49 52 54 56 58 54 49 49 50 58 59 55 55 56 48 46 43 41 37 34 34 33 33 34 32 35 34 31 31 31 41 50 61
49 49 51 52 52 52 51 51 50 49 47 47 47 48 51 54 54 51 53 55 56 56 50 54 53 50 46 44 43 39 36 36 36 35 33 36 36 38 36 35 32 33 45 58 65
50 49 50 51 50 50 50 50 50 50 49 47 48 47 49 52 48 45 54 57 56 55 54 52 51 47 45 43 42 40 36 36 39 38 39 38 38 39 37 35 33 35 38 50 59
51 51 51 50 49 49 49 49 49 50 49 49 47 47 48 48 38 40 55 53 57 51 54 53 49 45 43 41 42 38 39 38 39 40 40 38 38 38 38 37 37 40 41 39 54
51 50 50 50 49 49 49 49 49 49 49 48 47 47 44 46 43 42 49 45 53 50 53 52 48 45 41 42 40 39 39 39 39 39 39 39 37 37 39 40 40 40 41 39 38
49 49 48 48 48 48 49 49 48 48 48 48 47 45 41 39 45 43 42 46 50 50 53 52 49 47 42 41 39 39 39 39 38 37 37 37 37 37 37 38 39 39 39 39 39
48 47 47 47 47 47 47 47 47 47 47 47 47 42 40 40 44 43 45 51 50 50 53 53 50 47 44 41 41 40 37 37 37 38 37 38 35 36 37 37 37 37 37 37 38
47 46 47 47 47 46 46 47 47 47 47 47 47 44 37 44 45 46 44 49 53 53 54 53 52 48 43 41 39 38 37 35 37 38 38 35 30 34 37 37 36 36 36 37 37
47 47 47 46 46 46 47 47 47 47 48 47 44 42 33 46 43 44 44 41 53 54 55 53 51 47 45 36 35 37 31 34 35 37 36 36 33 34 35 35 35 35 36 36 36
46 46 47 47 47 47 46 48 47 46 45 45 42 36 37 39 43 46 45 41 44 50 49 49 48 44 42 37 30 32 31 32 33 31 34 34 33 34 35 36 34 34 35 35 35
46 46 46 46 46 45 45 41 35 32 40 34 33 33 31 40 44 44 43 40 46 47 43 47 42 39 39 39 35 33 32 31 30 30 28 28 28 28 28 29 29 32 32 33 34
46 44 45 46 46 46 44 37 36 40 35 35 36 36 36 39 41 43 43 37 40 41 43 40 35 41 41 40 34 32 31 30 31 30 28 27 27 28 28 28 28 28 28 29 30
45 46 45 45 46 44 41 38 45 44 34 32 36 34 33 38 40 42 40 38 40 39 41 36 37 44 43 40 37 35 32 30 29 28 27 26 23 23 24 26 26 27 28 28 28
45 45 46 47 43 43 40 44 45 45 27 26 32 38 37 38 41 43 40 40 41 38 39 37 40 42 40 38 38 33 32 30 28 26 25 26 21 23 22 21 23 24 22 22 23
48 49 50 48 44 39 41 45 45 40 7 27 33 42 40 38 42 39 41 41 39 40 39 36 36 35 36 34 33 30 31 28 27 26 22 24 22 20 20 19 17 22 23 26 28
50 48 47 45 44 44 46 45 43 22 12 28 33 34 35 38 40 39 38 40 41 38 35 34 35 34 32 33 31 31 28 28 26 23 14 20 20 13 17 19 22 22 26 30 31
49 47 46 46 40 45 43 41 20 16 30 27 30 33 33 37 37 37 37 37 36 32 33 34 33 32 33 30 31 28 25 15 11 13 13 24 22 20 23 25 25 24 29 31 34
49 46 45 46 45 43 39 26 15 26 29 35 33 34 34 37 37 38 36 34 36 34 31 26 27 31 32 30 29 28 25 18 6 13 16 23 21 19 22 22 25 28 29 32 35
46 42 45 46 44 43 36 22 24 28 32 32 33 33 35 36 37 36 33 31 33 31 29 25 27 32 32 32 30 28 22 25 19 16 14 19 19 16 22 24 27 27 30 30 34
39 38 40 45 45 41 32 27 31 35 33 32 32 34 32 33 35 34 32 31 31 31 31 27 25 32 32 33 32 28 28 22 18 10 9 12 14 9 19 23 26 26 28 30 34
37 33 39 43 44 35 28 30 33 37 35 35 30 31 33 31 31 29 29 31 31 31 31 29 27 32 33 31 29 29 28 25 23 19 13 13 7 19 20 24 26 27 29 31 36
34 24 39 42 32 32 32 35 37 37 38 34 32 31 29 29 28 28 27 29 31 31 29 31 31 29 30 30 31 30 28 24 17 15 19 19 15 21 23 26 26 27 30 37 40
32 32 39 40 31 32 36 37 37 37 36 32 30 31 30 28 26 28 28 32 32 31 29 30 25 23 27 29 31 29 29 25 23 21 20 15 12 22 26 24 26 28 33 41 41
33 29 35 38 38 36 34 35 33 38 34 32 31 31 31 30 31 29 31 35 34 32 37 32 26 22 20 21 27 23 29 26 24 17 20 19 19 22 23 24 26 28 39 39 39
34 32 37 33 36 37 37 36 34 34 35 35 33 33 31 29 30 31 32 32 34 39 33 30 25 26 26 28 28 27 28 28 23 24 20 21 22 24 25 27 28 31 38 36 34
36 35 37 35 34 35 36 35 35 35 34 34 34 34 33 30 30 30 31 30 30 32 31 30 25 27 24 27 29 28 29 29 29 28 27 27 27 29 29 29 30 39 35 34 32
41 42 39 32 31 31 32 34 35 36 37 38 36 34 33 35 34 33 33 33 32 31 31 29 27 24 19 26 27 24 28 29 29 29 29 26 28 28 30 33 40 36 32 30 28

GFSSW_sfc_dewp_063.txt.gz
Dewpoint
52 50 50 50 51 52 52 52 52 51 50 49 47 47 48 51 53 50 52 51 52 56 58 54 54 57 49 46 43 41 38 34 34 33 33 33 31 34 34 31 32 32 37 48 60
53 53 52 51 52 51 50 50 50 50 50 50 50 47 47 49 47 48 54 57 56 55 49 50 52 53 50 46 43 40 37 36 37 36 34 35 35 37 36 35 34 34 44 61 64
52 51 51 51 51 51 50 50 49 49 50 50 49 50 47 47 45 45 56 60 58 55 52 50 54 51 48 44 42 41 36 37 38 36 38 39 38 39 37 36 36 35 40 57 62
51 51 50 50 50 49 49 49 49 50 49 49 49 48 47 43 36 42 53 57 58 54 50 52 51 48 45 43 42 39 39 38 38 40 40 39 39 38 39 38 37 41 41 43 60
50 50 49 48 48 47 48 48 49 49 49 48 49 49 45 38 41 45 53 48 47 53 49 51 48 47 42 43 41 40 39 40 39 40 39 39 38 38 38 40 40 41 41 40 42
49 49 48 47 47 47 47 47 47 47 47 48 48 48 42 34 43 44 44 44 50 52 49 52 48 47 44 43 41 40 40 39 39 39 38 38 37 38 38 39 39 39 40 40 40
48 48 47 47 47 47 47 46 46 46 46 47 47 44 40 35 40 43 41 44 49 50 49 52 50 45 43 40 42 39 38 39 38 38 37 38 35 36 37 38 37 37 38 39 39
48 47 47 47 47 47 47 47 47 47 47 47 47 44 36 40 40 39 38 45 50 50 50 53 53 47 43 41 40 39 38 35 38 37 37 35 29 34 37 37 37 37 37 38 38
47 47 47 47 47 47 47 47 47 47 47 47 45 40 35 39 40 38 45 43 49 49 52 53 52 47 43 38 36 38 33 35 35 38 37 34 32 34 36 36 35 35 35 36 37
46 47 47 46 46 47 47 47 47 45 44 45 42 36 37 32 44 41 46 45 47 50 49 48 46 43 43 38 29 33 32 34 32 33 36 35 35 36 34 34 35 35 35 35 35
45 45 46 46 45 46 46 42 35 33 39 32 33 33 33 38 41 43 44 42 45 47 42 44 41 38 38 38 33 34 31 32 33 31 29 30 30 29 30 30 29 30 31 32 33
46 46 46 45 45 45 44 37 35 37 32 36 36 35 35 37 37 43 45 39 42 41 43 41 37 39 40 40 35 33 31 31 30 30 29 27 27 28 29 30 30 29 30 30 30
47 49 49 49 48 46 42 38 45 42 34 32 35 34 33 35 36 43 42 38 38 40 40 37 37 42 42 39 36 33 31 30 29 28 27 26 25 24 24 24 25 25 26 26 26
49 48 48 48 42 43 39 46 46 45 26 24 31 36 36 37 37 45 44 40 39 38 40 38 41 40 39 38 37 35 34 31 28 28 27 26 22 25 22 21 24 27 29 30 30
49 48 48 46 40 38 39 45 45 41 10 31 34 41 38 36 39 42 43 41 39 39 39 36 39 38 35 35 38 35 36 29 28 26 25 24 23 21 20 19 23 26 30 32 34
49 48 48 45 43 45 44 45 42 21 3 28 33 35 35 35 37 42 39 43 42 37 36 36 39 39 36 39 37 32 28 27 26 24 21 20 20 15 18 20 23 26 31 33 36
49 47 46 46 42 44 44 40 22 16 30 24 29 32 33 35 38 37 36 37 36 32 33 35 35 35 35 31 31 29 28 21 18 20 17 24 22 19 21 25 25 28 30 33 37
48 45 45 44 46 44 41 25 17 27 29 35 33 34 31 36 37 36 36 35 36 34 31 29 28 33 33 32 31 28 29 22 12 14 15 23 21 18 22 22 26 29 30 33 36
46 40 41 44 44 44 36 18 22 29 33 32 32 30 34 36 36 36 33 35 35 31 28 26 29 32 32 32 31 28 26 24 19 18 17 19 20 19 23 26 27 27 30 33 36
38 37 37 43 45 43 31 29 31 35 34 33 31 34 31 33 34 33 33 34 33 32 31 28 29 33 32 33 31 29 28 24 21 13 14 11 13 13 22 24 26 27 29 32 37
36 33 37 43 41 35 28 31 34 38 37 35 31 32 30 32 31 28 30 32 31 31 30 29 28 32 32 31 28 29 28 25 23 20 14 11 7 17 23 25 26 27 29 34 41
33 26 38 41 35 34 33 36 38 37 38 36 31 31 30 29 27 28 28 30 31 31 30 31 30 29 30 31 31 29 27 23 20 19 20 20 14 20 22 26 26 27 29 40 41
31 31 39 39 32 33 35 36 37 36 34 31 30 31 30 28 26 28 29 32 32 31 29 29 26 25 27 29 30 30 28 25 24 24 21 16 13 21 25 26 26 27 30 40 39
33 29 35 36 37 37 35 30 32 36 34 33 31 32 30 30 31 29 32 34 33 35 36 31 26 24 21 22 28 25 29 26 25 23 21 21 18 21 23 25 26 28 37 38 34
34 32 37 32 32 34 34 34 33 33 34 35 32 32 30 28 30 31 31 32 34 36 32 30 26 26 26 29 28 27 29 26 23 24 23 22 22 23 24 26 28 30 37 36 33
34 35 37 34 32 32 34 33 34 35 34 34 33 34 32 31 30 30 30 29 30 32 30 30 27 27 25 28 29 28 28 29 27 27 25 25 26 28 29 29 30 37 36 34 31
40 41 39 31 29 31 34 34 35 35 37 38 36 34 33 34 35 33 32 32 32 31 30 29 28 25 21 27 28 25 28 28 29 29 29 27 28 29 29 31 39 37 34 30 27

GFSSW_sfc_dewp_066.txt.gz
Dewpoint
51 53 52 52 52 52 52 51 51 51 51 51 51 50 49 48 49 46 46 52 52 54 57 51 51 54 53 45 44 41 32 27 31 32 30 32 32 32 32 28 29 31 34 46 56
52 52 51 52 51 51 51 51 51 50 50 50 50 51 51 48 41 40 48 56 58 56 49 49 47 52 50 46 42 36 31 27 28 31 31 33 31 31 31 29 30 31 41 55 58
51 51 50 50 50 50 49 48 49 49 50 50 50 50 50 47 39 32 49 56 59 57 49 47 47 51 48 47 41 37 32 31 36 35 34 34 33 36 32 33 30 31 38 55 60
51 51 50 50 49 48 47 47 48 48 48 49 49 49 50 44 27 48 51 55 59 55 51 47 47 48 45 44 42 38 36 35 36 40 39 37 36 35 35 32 35 40 40 45 58
49 49 49 49 48 48 48 48 47 47 47 47 48 48 45 39 37 39 50 49 47 52 50 46 45 46 42 43 43 40 37 37 35 39 38 39 37 33 36 37 39 40 41 40 46
48 48 48 48 48 47 47 46 46 46 46 46 47 47 41 36 39 37 46 44 44 46 52 46 44 45 41 41 41 40 40 38 37 36 38 37 37 38 36 37 37 38 38 39 40
48 48 48 48 48 47 47 47 47 47 47 46 46 44 41 34 36 35 43 42 42 44 50 45 48 43 41 40 42 40 38 38 37 37 36 37 34 35 35 35 33 34 35 37 39
48 48 48 48 48 48 48 47 47 48 47 48 47 43 36 36 37 36 36 35 39 44 50 45 51 46 41 41 41 39 37 35 35 36 37 34 24 29 33 33 31 30 30 32 35
48 46 46 47 46 46 46 48 48 47 47 47 44 40 33 37 36 36 35 37 42 47 49 47 51 46 44 36 36 36 29 30 32 36 33 34 26 28 31 33 32 33 33 33 34
46 47 47 47 47 46 46 47 47 44 44 43 40 36 35 29 32 37 37 39 42 46 48 46 47 44 42 37 28 30 29 30 28 35 34 31 29 34 35 35 34 32 32 33 34
46 48 49 49 49 46 46 43 37 35 39 31 31 29 32 33 35 37 38 42 44 46 40 42 41 38 40 37 29 26 30 28 31 31 35 33 32 32 33 33 32 31 30 30 31
48 49 49 48 48 47 44 39 34 38 30 32 33 33 34 35 33 39 43 42 42 41 37 40 37 37 39 38 33 31 30 28 31 33 30 30 30 31 31 32 31 30 30 30 31
48 49 49 48 47 45 43 41 44 40 32 31 33 32 32 33 32 39 38 42 38 40 37 36 38 40 39 39 35 32 27 27 28 29 29 28 28 29 25 24 25 25 27 28 29
48 49 49 46 41 43 40 44 44 43 30 24 31 34 35 36 34 40 42 41 38 38 37 37 40 39 37 39 37 35 33 32 29 29 26 27 19 24 21 25 27 30 32 33 33
48 48 48 46 42 40 40 45 44 42 16 32 33 38 36 33 37 41 46 41 36 41 40 35 37 36 34 38 39 37 33 31 31 29 28 26 24 21 22 25 28 32 35 36 36
47 48 46 46 44 44 43 44 42 27 17 28 32 36 35 36 36 42 42 42 40 39 38 38 42 39 37 39 38 36 30 28 28 28 28 24 23 17 17 21 28 32 34 37 38
47 48 44 46 40 43 45 41 28 22 29 28 29 33 34 34 36 38 38 36 35 35 33 35 36 39 39 35 38 35 35 30 28 27 22 23 23 18 22 23 29 32 35 38 40
48 45 45 43 47 44 42 33 22 27 30 34 33 33 31 35 37 38 37 35 35 34 33 32 29 35 37 33 31 32 30 26 19 19 15 24 19 18 22 23 28 30 32 37 40
46 43 44 45 45 44 38 29 28 30 34 33 32 31 34 36 37 35 36 34 35 33 32 31 32 36 37 34 31 29 31 24 25 21 20 17 21 21 24 25 27 29 32 37 40
44 42 40 44 45 43 36 31 33 33 34 33 32 31 32 31 33 31 32 35 31 31 30 30 31 33 31 33 30 30 27 26 31 21 16 13 14 17 24 26 28 30 31 35 41
42 38 40 44 45 39 32 33 35 37 36 35 31 30 30 29 29 29 31 33 32 29 30 30 30 32 32 31 29 28 29 26 24 22 16 9 6 19 24 27 26 28 30 36 40
40 39 42 44 39 38 36 36 38 36 38 36 32 31 29 28 27 27 29 30 31 31 28 31 31 31 30 30 31 29 27 24 28 24 24 23 13 20 26 25 26 26 30 37 41
38 38 43 44 34 35 36 35 36 34 33 31 30 30 30 28 26 28 29 31 31 30 28 29 29 27 27 28 30 30 29 25 26 29 27 20 14 22 24 24 26 27 31 38 37
40 37 40 42 39 36 36 37 34 36 34 33 31 31 29 28 29 29 30 33 34 33 36 32 27 29 24 23 29 32 29 28 33 29 23 23 18 21 24 24 28 31 34 38 36
40 35 37 35 36 35 36 36 33 34 35 35 32 32 29 27 28 29 31 31 34 34 31 30 30 28 26 28 28 29 30 28 30 29 31 21 21 21 23 27 31 33 37 38 35
37 37 37 36 34 35 36 35 35 36 36 33 33 33 32 29 29 28 29 29 29 31 30 31 32 29 28 28 28 29 29 29 28 27 26 25 25 26 28 29 30 38 38 36 33
41 41 39 33 34 35 35 35 37 37 38 37 35 33 32 33 34 32 32 32 32 30 30 29 30 29 27 27 27 27 28 29 29 29 28 27 27 28 28 29 34 38 37 34 30

GFSSW_sfc_dewp_069.txt.gz
Dewpoint
52 52 52 52 52 52 52 52 52 52 52 51 51 52 52 51 50 43 39 48 53 56 53 47 48 53 53 49 44 38 33 31 32 30 29 30 32 34 33 30 28 29 27 47 59
52 52 52 51 51 50 50 50 48 49 51 51 51 50 50 51 45 40 43 50 56 58 49 48 42 50 50 46 43 38 33 29 31 31 30 32 32 33 30 29 27 26 32 48 55
52 51 50 50 50 50 49 48 48 48 48 49 50 50 50 48 40 36 49 49 56 57 51 44 42 46 49 46 41 39 31 31 26 33 32 32 31 29 29 27 26 27 28 44 50
51 50 50 49 48 49 49 48 48 48 48 48 49 50 49 43 30 47 53 46 54 54 51 43 40 44 44 44 43 36 35 32 32 36 36 32 30 27 30 28 29 30 37 43 52
50 49 49 49 49 49 48 48 48 47 47 48 47 48 45 38 36 39 45 43 44 50 50 47 37 39 39 40 42 38 34 34 35 38 36 35 33 28 31 34 35 39 40 38 45
50 50 49 49 49 49 48 48 48 47 46 46 46 47 41 33 32 34 37 41 42 46 48 48 38 38 38 39 41 41 38 36 36 35 37 37 33 34 33 34 35 36 37 38 38
49 49 48 47 47 48 48 48 48 48 47 48 47 43 39 33 32 33 43 44 42 42 41 49 42 37 40 38 41 40 38 38 36 35 35 36 34 34 35 34 33 34 33 34 36
48 47 48 48 48 47 47 47 47 48 48 48 48 44 36 35 35 34 33 36 37 38 42 47 48 43 38 40 37 39 37 33 37 35 35 34 28 29 34 33 32 30 29 31 32
48 47 48 49 50 49 48 47 46 48 47 46 44 42 32 38 34 33 33 32 38 37 44 47 51 46 40 40 37 37 33 30 29 34 34 34 27 25 30 31 29 28 27 27 28
48 49 50 50 49 49 49 47 45 45 43 40 41 37 33 28 31 33 33 33 40 42 45 48 46 44 42 39 34 31 30 27 26 32 32 32 31 29 30 30 30 29 28 29 29
48 49 49 49 49 49 46 44 38 36 38 31 31 29 30 31 33 33 34 34 40 43 42 45 40 35 38 36 33 26 26 24 26 33 32 30 28 29 29 33 31 29 28 28 28
48 49 49 49 48 47 43 38 36 38 29 31 31 30 30 31 30 29 36 34 34 36 40 38 36 38 40 36 34 28 23 24 27 29 32 29 28 28 31 31 31 30 27 26 26
49 49 48 49 44 42 40 42 44 39 34 29 31 31 31 32 28 31 39 35 37 39 35 33 34 36 40 38 36 36 26 24 25 30 31 27 26 28 29 30 29 29 29 29 30
49 49 48 48 43 41 39 43 44 41 29 25 29 32 32 31 29 36 41 40 39 37 34 32 39 34 37 38 39 32 28 25 26 28 21 28 14 23 25 25 25 26 28 30 31
48 49 48 47 42 39 41 43 43 40 15 32 35 38 35 33 36 36 41 41 37 37 39 36 38 38 37 37 39 36 34 30 30 27 27 27 24 23 23 24 25 29 32 34 34
48 48 48 46 42 42 43 43 42 29 17 30 33 33 34 35 37 39 40 41 40 38 38 38 40 38 37 39 40 33 32 32 31 30 30 25 23 20 21 23 27 30 33 35 36
48 48 46 44 39 43 44 41 31 24 29 29 30 35 34 35 35 35 36 38 35 32 33 36 36 38 38 35 38 36 35 31 30 28 23 24 23 19 21 24 28 30 33 37 39
49 47 45 41 46 43 42 34 25 28 31 33 32 36 32 35 33 37 34 34 37 35 35 33 29 34 38 37 34 36 36 33 24 22 20 22 22 20 22 24 30 33 35 38 39
48 42 43 44 44 44 39 31 28 30 34 33 34 31 32 35 36 33 33 33 33 33 31 32 32 37 38 37 37 35 33 27 23 21 19 17 19 22 23 24 29 30 33 38 40
42 41 41 43 44 43 38 30 32 33 35 34 32 28 29 28 29 28 30 34 31 31 31 30 31 36 38 37 32 33 31 27 33 21 17 14 15 17 20 24 27 30 32 36 40
42 38 42 43 45 41 33 35 36 37 36 35 29 27 27 26 26 27 29 32 31 29 30 31 30 33 33 35 32 30 29 27 26 24 18 11 9 21 23 26 29 30 31 35 39
42 41 44 45 38 39 37 35 37 35 37 36 32 28 27 26 26 28 28 30 31 30 27 31 31 30 30 30 31 29 28 26 29 25 25 25 15 22 25 27 27 29 31 36 40
37 39 45 45 35 37 36 34 35 33 32 31 29 30 28 27 26 28 30 31 31 30 28 30 30 28 27 28 30 29 28 26 26 32 29 21 16 23 26 26 26 27 31 36 39
39 38 40 40 38 34 35 37 32 36 33 32 29 29 27 26 27 28 29 32 34 32 36 33 28 30 26 25 30 34 29 28 32 30 23 23 17 21 25 25 25 30 33 37 38
39 37 37 37 37 35 35 34 31 32 33 33 30 30 27 25 26 29 30 31 32 33 30 29 29 29 26 27 27 29 30 29 31 29 32 20 19 20 23 24 27 33 36 39 37
38 37 37 36 36 34 36 34 33 34 35 31 30 31 28 26 29 27 28 28 28 30 29 30 32 29 30 27 27 29 28 29 28 27 25 24 23 24 24 29 31 34 39 38 36
39 41 39 36 35 34 35 35 35 36 36 36 35 32 31 33 32 31 31 30 30 29 29 28 30 29 27 27 27 27 28 28 29 28 27 26 26 28 28 29 31 36 38 37 34

GFSSW_sfc_dewp_072.txt.gz
Dewpoint
53 53 53 52 51 51 51 51 50 50 50 50 52 52 52 52 52 46 42 42 50 57 54 49 44 51 54 52 50 43 38 36 36 34 33 31 32 34 34 32 29 29 34 56 63
52 52 51 51 50 50 49 50 50 49 49 49 50 51 51 51 46 42 46 50 50 55 51 48 41 48 49 49 49 41 35 34 35 34 33 32 31 33 33 32 30 28 46 55 63
52 51 50 50 50 49 49 49 49 48 48 48 48 49 50 49 41 37 49 51 51 53 52 49 43 44 45 47 46 42 38 35 34 34 36 33 32 33 33 32 30 28 34 47 59
50 50 51 51 50 50 49 49 49 48 48 48 48 49 50 45 32 43 49 52 52 47 51 49 41 40 43 43 44 38 39 38 34 38 36 34 33 31 30 30 31 30 34 48 49
50 50 49 49 49 49 49 49 49 48 48 47 47 48 44 41 38 40 47 44 42 46 50 48 41 38 38 41 43 42 38 36 36 36 37 35 34 30 28 31 35 40 40 40 48
51 49 49 49 48 48 48 49 49 48 48 48 47 46 41 35 36 34 36 39 39 43 45 48 45 36 38 38 38 42 41 37 34 35 37 37 36 35 30 32 35 38 38 38 39
50 49 48 49 49 50 50 48 48 48 48 48 48 45 38 34 34 36 39 40 41 39 41 46 48 37 35 38 38 40 40 40 36 35 36 38 36 34 33 35 34 35 35 36 38
49 49 49 50 50 50 50 50 49 47 47 48 48 44 36 37 37 35 34 38 38 37 37 42 45 48 35 39 37 39 39 38 37 36 35 35 32 35 35 35 34 33 33 33 33
48 49 49 50 49 49 49 50 49 47 47 47 43 42 32 39 34 33 33 30 38 37 38 38 47 47 42 36 37 39 35 35 34 37 35 34 32 30 32 34 33 32 31 29 31
48 49 50 49 49 49 49 48 47 44 44 40 40 37 35 28 30 31 32 35 39 40 40 43 47 43 41 37 32 31 33 32 30 35 34 34 33 29 29 30 31 30 29 28 27
48 49 49 49 48 48 47 43 40 38 38 32 31 31 29 31 32 31 32 38 38 38 37 43 40 37 37 35 36 36 32 28 29 29 34 33 33 32 30 32 32 31 29 28 29
47 49 49 49 48 46 43 39 39 38 34 34 31 30 31 30 28 29 31 33 34 33 36 38 36 38 36 36 36 35 30 29 28 32 32 31 31 30 31 30 32 32 30 29 28
47 48 49 48 48 45 40 41 44 41 31 29 30 30 30 30 28 29 35 32 31 32 34 35 35 37 38 35 34 33 32 32 26 31 30 28 27 28 29 29 30 32 31 30 30
48 48 49 48 44 42 40 43 44 42 29 29 35 33 33 31 27 33 39 35 35 32 32 37 36 37 37 37 35 32 34 34 28 28 26 29 21 25 28 30 31 29 27 28 30
48 48 48 48 45 39 41 42 43 41 16 31 32 37 36 31 37 35 40 39 34 35 39 35 36 37 37 37 40 36 40 33 33 28 26 27 24 24 27 26 26 25 29 33 33
48 48 48 45 46 42 44 44 42 29 17 30 37 34 34 34 36 39 38 41 40 39 38 38 40 39 38 39 38 40 37 38 34 31 28 26 24 21 22 23 24 29 33 34 34
49 48 46 42 40 43 44 41 29 23 30 29 33 35 34 35 35 35 35 35 35 32 32 35 36 39 38 38 39 37 34 30 28 27 22 26 25 23 23 25 28 31 34 37 38
49 48 46 41 46 44 43 34 22 28 30 35 36 36 32 35 34 36 35 36 38 36 33 30 27 36 38 36 34 34 36 31 22 21 20 23 22 20 24 27 30 33 37 39 39
49 45 45 46 45 45 40 27 27 31 34 32 33 33 34 35 35 34 34 36 36 38 32 29 29 37 38 38 38 36 33 35 27 22 21 21 21 22 23 29 32 33 35 39 40
43 43 43 45 46 43 38 31 33 34 35 35 31 31 30 30 32 31 31 33 31 31 33 32 30 36 37 39 38 37 35 29 32 23 19 17 18 19 21 26 30 31 34 39 40
44 40 44 46 46 42 33 34 37 37 37 35 31 27 26 25 27 27 30 31 29 30 32 32 33 35 37 36 35 35 34 29 27 25 22 15 14 21 22 25 27 31 33 37 40
44 40 46 48 38 40 36 35 38 35 38 36 34 29 27 27 27 28 29 30 31 31 29 33 31 31 31 31 32 30 31 29 25 22 26 25 16 22 24 27 30 31 32 38 40
38 41 48 47 35 36 35 36 35 34 32 32 30 30 29 27 27 29 31 31 33 33 30 31 30 26 27 30 31 30 30 28 29 32 28 22 17 25 26 26 27 29 32 38 39
39 35 40 40 39 36 36 35 33 37 34 32 30 30 28 27 28 29 30 34 35 31 38 35 29 27 22 27 31 27 29 29 31 26 26 24 19 24 25 26 25 29 32 38 38
39 36 37 35 37 36 36 34 30 32 35 33 31 30 27 26 27 29 31 32 34 36 31 32 26 28 27 27 29 31 30 30 25 28 22 23 21 21 25 26 25 33 35 38 37
38 36 37 36 35 33 34 32 33 33 35 31 31 30 30 30 30 27 29 29 28 30 29 30 27 29 27 27 28 28 29 29 29 28 26 25 24 23 24 25 31 33 38 39 38
37 39 39 35 34 33 35 33 35 35 37 36 36 34 32 32 32 31 30 31 31 29 29 29 29 27 23 27 27 24 28 29 29 28 27 25 26 29 29 30 31 35 39 39 36

GFSSW_sfc_dewp_075.txt.gz
Dewpoint
52 52 52 50 50 50 50 49 49 50 51 50 49 50 51 52 51 47 45 46 44 53 56 52 46 50 54 53 52 50 42 40 41 39 39 41 40 39 33 30 31 32 55 61 64
52 51 51 51 51 50 50 50 49 49 49 48 48 48 49 51 47 43 46 51 52 51 51 50 46 48 50 50 50 44 40 38 39 39 38 38 41 42 42 32 30 50 62 63 63
50 51 50 50 50 49 49 49 49 49 48 49 49 48 49 48 42 37 48 51 52 51 45 51 50 47 47 47 48 44 37 38 37 37 37 38 43 38 39 32 31 45 60 62 62
51 51 50 49 49 49 49 49 49 48 48 48 47 47 48 45 31 42 52 48 51 48 45 50 48 44 44 44 45 40 41 40 39 37 38 34 34 36 39 30 37 34 48 60 61
51 50 50 49 49 49 49 49 48 49 48 48 47 46 44 40 37 40 49 43 43 46 44 47 47 42 41 41 43 43 41 40 39 40 38 37 33 31 29 31 39 39 44 50 56
49 50 49 49 50 51 51 51 50 48 48 48 48 46 40 35 39 39 39 39 43 43 43 48 47 45 40 40 41 42 42 42 39 40 38 37 34 35 31 31 36 38 37 38 44
49 49 49 49 50 50 50 50 50 49 48 47 48 45 41 36 37 38 40 40 41 40 40 44 49 46 36 37 40 41 41 43 41 37 37 37 35 35 35 35 35 34 36 37 38
49 49 50 50 50 50 49 49 49 49 47 46 47 45 36 38 38 37 37 39 39 41 37 39 45 46 45 40 38 38 39 38 40 36 36 36 33 36 36 34 34 35 34 34 34
48 48 50 49 50 48 49 49 49 48 46 46 45 42 35 39 37 36 35 35 38 38 38 37 45 46 43 37 35 37 36 35 36 38 35 33 32 33 36 34 34 34 33 32 32
47 48 49 50 49 47 46 47 47 44 42 42 43 36 36 30 34 33 33 39 39 39 40 41 43 43 41 36 30 30 33 35 34 36 36 34 33 33 30 32 34 33 32 31 31
47 48 49 50 49 47 44 44 39 37 41 34 33 33 31 34 33 34 38 38 37 37 35 41 38 36 36 34 34 33 34 33 34 34 34 33 33 34 33 31 31 31 30 30 30
47 49 49 49 49 46 42 39 40 40 34 35 35 34 33 34 29 31 37 35 34 32 34 36 35 38 39 35 36 35 32 31 30 33 35 33 33 34 34 32 31 32 32 31 30
48 49 49 49 48 43 40 40 44 43 31 31 32 30 33 32 29 30 35 36 32 33 34 33 36 41 37 35 35 36 33 32 30 31 32 30 29 32 33 32 32 32 33 31 29
48 48 48 49 43 40 40 43 44 42 23 31 34 35 36 34 31 37 38 35 34 31 33 33 34 37 36 34 35 34 34 35 34 30 30 28 23 25 29 31 29 31 31 29 29
47 48 48 48 43 38 42 43 42 41 15 33 33 37 37 32 35 36 41 38 31 33 34 31 35 37 37 35 36 34 40 38 36 35 27 28 23 22 26 28 29 30 27 28 31
48 49 48 45 45 43 44 43 42 25 16 32 36 34 33 34 36 37 37 39 37 35 36 38 40 39 38 39 39 38 37 37 36 35 29 27 24 20 25 27 27 26 30 33 35
48 49 46 43 39 43 43 38 23 20 29 30 34 35 34 34 35 35 34 33 32 29 31 36 36 39 40 37 38 37 34 29 27 28 21 27 24 21 24 26 26 30 33 34 35
49 50 46 43 44 44 43 27 17 26 28 33 33 35 33 34 34 34 33 30 34 35 32 30 28 36 38 36 34 35 34 30 24 20 22 25 24 24 23 26 32 34 36 37 39
49 44 43 45 44 43 38 24 27 30 33 32 31 32 34 34 33 34 34 35 36 38 30 28 30 37 38 38 37 36 33 36 28 24 21 22 21 21 26 32 34 36 38 39 41
42 41 41 45 44 41 32 29 31 34 35 36 29 32 32 34 34 34 35 34 32 34 33 32 29 36 37 39 38 38 35 31 29 23 19 19 19 20 22 30 33 35 37 40 41
41 38 42 45 44 37 30 32 35 38 37 35 33 31 27 30 30 30 30 30 31 31 33 33 30 34 37 35 33 35 35 34 31 30 22 15 15 20 22 30 30 32 37 40 41
39 33 44 45 34 36 36 37 38 37 38 37 36 32 28 27 28 30 30 30 32 32 31 33 33 31 33 36 36 36 35 31 24 24 25 22 19 22 23 29 29 31 36 40 39
36 37 44 41 28 33 34 35 37 34 35 33 31 31 29 27 28 30 30 33 34 32 30 31 29 25 28 30 31 29 33 32 29 30 24 22 18 26 27 29 31 32 37 39 39
38 31 36 39 38 36 36 34 34 37 35 33 31 31 28 28 30 30 31 35 34 31 38 34 30 23 21 25 29 26 29 28 25 20 24 22 21 25 26 26 27 31 35 39 38
36 36 37 32 33 36 35 35 33 32 35 35 32 31 29 26 28 29 31 33 33 35 31 30 25 26 27 28 30 30 29 29 22 26 22 23 22 25 25 25 25 28 33 39 38
33 34 36 34 36 33 34 32 32 33 34 35 35 35 33 31 31 28 28 28 28 29 29 31 26 27 24 27 27 27 29 30 28 27 27 26 24 23 26 26 27 32 36 38 37
36 37 38 34 34 32 34 34 34 36 36 37 36 35 32 33 34 33 30 31 30 29 29 29 27 24 20 27 27 23 27 29 30 29 27 24 25 28 25 27 32 35 39 39 38

GFSSW_sfc_dewp_078.txt.gz
Dewpoint
48 52 51 51 51 51 51 50 50 49 49 50 49 49 49 51 52 48 45 47 46 50 50 48 50 49 53 52 53 48 40 39 39 37 38 39 38 40 44 41 32 44 57 60 63
50 51 52 51 50 50 50 50 50 49 49 49 49 48 48 49 48 46 47 51 52 53 45 46 48 47 49 49 50 48 39 39 41 40 39 43 45 47 42 41 40 57 62 63 63
51 52 51 51 50 50 50 49 50 49 49 48 48 49 48 48 42 39 48 52 53 51 47 46 50 47 46 48 47 45 40 40 39 41 38 46 46 45 42 41 39 55 60 62 63
49 51 50 50 50 50 51 51 50 49 48 49 48 46 46 45 29 41 51 50 51 49 46 44 48 45 43 44 46 42 42 40 41 41 43 44 42 45 44 42 39 42 61 61 61
48 49 50 49 50 50 51 51 51 50 49 49 49 46 45 40 38 43 47 46 44 47 45 44 46 44 41 43 43 42 43 41 41 40 39 42 40 37 42 41 38 39 59 60 60
49 49 49 50 50 50 50 49 49 50 50 48 48 47 40 33 38 40 39 43 43 44 45 44 46 45 42 40 41 42 43 42 40 40 38 36 37 35 40 45 35 39 48 58 60
48 48 49 49 50 50 49 49 49 49 50 48 46 45 41 35 37 41 40 42 44 43 41 42 46 46 42 39 40 41 40 41 42 39 38 37 36 35 33 35 34 35 39 39 49
49 48 48 50 50 49 48 49 49 49 50 49 47 45 36 39 38 38 37 39 45 46 42 40 47 47 45 41 39 38 40 35 38 38 37 36 32 36 36 35 33 34 34 34 37
48 48 49 49 50 49 48 47 48 48 48 46 44 42 35 41 38 37 37 37 40 44 42 38 47 45 45 38 34 37 31 34 37 38 35 35 33 34 36 35 33 33 34 33 32
47 48 50 50 50 49 47 46 45 44 43 44 43 36 34 32 35 38 38 40 39 40 39 40 43 41 41 37 28 32 32 33 33 36 36 33 33 33 33 34 34 34 34 34 33
48 48 50 49 49 48 43 42 36 35 39 36 35 34 33 35 34 37 40 37 36 37 34 40 37 35 37 36 33 33 33 33 34 35 36 34 33 33 34 32 31 33 34 33 32
48 49 49 48 49 45 42 38 39 38 32 35 36 36 36 34 30 33 39 33 34 31 34 35 33 38 38 36 35 33 33 32 32 35 36 34 33 34 34 33 31 31 32 32 30
48 49 49 48 48 42 40 39 43 43 30 31 34 33 35 33 29 30 35 34 32 32 32 31 31 37 40 35 34 35 32 31 30 31 34 34 33 33 34 35 33 32 32 32 31
48 49 48 48 42 41 39 42 43 41 23 32 33 34 35 34 31 38 37 35 33 31 32 32 33 36 37 35 34 33 37 35 35 31 28 31 27 29 33 33 34 32 32 32 30
48 48 49 48 41 38 41 43 42 37 12 35 34 39 38 32 33 37 41 36 30 31 32 27 32 35 35 35 35 34 38 35 37 34 28 27 26 25 25 30 32 33 32 31 29
48 49 48 45 45 42 43 43 40 17 15 31 36 34 32 34 34 38 37 39 37 33 33 32 39 39 37 40 38 39 38 37 38 37 29 28 27 24 22 24 28 32 31 29 33
49 50 47 44 39 44 44 37 19 17 29 29 33 34 32 33 33 34 32 31 29 25 29 33 37 40 41 37 39 36 34 27 27 28 22 27 26 26 23 25 27 29 30 34 37
49 50 46 43 44 44 43 25 19 24 29 32 34 35 33 35 34 34 32 31 34 33 33 30 27 37 39 37 36 35 30 21 16 21 21 27 24 25 24 25 27 29 33 35 37
48 43 42 44 44 43 36 23 28 30 33 33 34 32 32 35 34 34 32 32 34 35 32 28 30 38 38 39 36 36 33 35 24 22 18 23 24 22 29 32 33 35 36 37 39
41 40 41 45 44 40 31 27 30 33 36 35 30 33 33 35 35 33 34 35 34 36 36 31 29 35 38 39 38 37 36 31 31 24 18 20 20 22 27 31 34 36 38 40 41
41 38 42 45 43 35 27 25 33 36 37 34 32 32 27 30 33 31 30 32 32 31 33 33 30 33 35 35 34 36 34 34 30 26 19 16 18 21 25 32 34 37 39 40 40
38 32 43 44 32 33 29 35 38 36 38 37 35 35 28 27 29 29 30 31 33 32 31 33 32 29 30 35 35 35 33 32 21 25 20 19 20 22 23 31 34 35 40 40 40
36 36 42 38 28 34 33 34 37 35 34 33 32 31 30 28 27 30 30 32 33 32 30 31 30 27 30 33 35 35 36 34 29 24 18 18 19 26 28 30 32 33 39 40 40
34 28 34 37 36 31 33 33 33 38 35 35 32 32 29 28 30 30 30 34 35 30 39 35 29 23 22 23 29 27 32 34 27 18 21 21 20 25 28 29 31 35 39 39 40
34 32 33 27 31 33 34 33 31 32 35 36 33 35 32 26 28 29 31 32 32 35 31 28 24 26 27 30 29 28 28 28 24 24 22 22 23 25 27 29 30 33 38 39 38
30 29 33 32 34 33 33 31 31 33 35 34 34 35 33 31 30 28 28 29 28 29 29 31 27 25 23 27 28 27 29 29 27 26 26 26 25 26 28 26 26 28 34 38 38
34 36 37 29 31 29 30 32 33 35 36 37 36 35 33 32 34 34 34 31 30 28 28 29 27 24 20 26 26 22 27 29 29 29 27 24 25 26 27 26 27 30 33 37 38

GFSSW_sfc_dewp_081.txt.gz
Dewpoint
50 52 53 52 52 51 50 50 50 50 50 49 49 50 49 49 50 50 47 47 48 51 49 45 48 47 52 50 52 48 41 38 38 36 36 39 38 39 45 42 42 40 55 59 65
47 52 52 51 51 51 50 50 51 50 50 49 49 49 49 49 47 46 48 51 54 53 47 44 44 47 47 48 49 46 41 40 40 39 38 44 42 40 42 42 41 41 60 64 67
49 48 50 50 50 50 51 51 52 51 50 50 49 48 49 47 40 39 48 53 52 53 47 46 45 47 45 46 46 46 39 40 41 42 45 45 45 47 44 42 42 41 47 62 64
49 50 50 50 51 51 51 51 51 51 51 50 49 49 46 45 28 42 49 50 51 50 49 46 44 45 42 42 45 41 43 41 41 45 44 42 42 45 46 44 45 44 43 55 61
50 49 49 49 50 51 51 50 49 50 50 49 49 48 44 39 38 40 47 45 42 46 45 45 43 44 41 41 44 43 43 43 41 43 43 42 41 41 44 45 47 46 41 56 60
49 49 48 49 48 50 49 48 48 49 49 47 48 48 40 34 37 39 41 44 41 42 46 46 43 43 42 40 41 43 42 42 41 40 40 39 39 40 40 49 48 48 39 57 60
47 49 48 50 49 50 49 48 49 48 49 48 49 44 40 34 36 39 42 42 43 43 43 46 45 44 43 40 41 42 41 43 41 39 38 37 36 36 40 51 48 47 38 46 58
48 48 49 50 50 50 49 48 49 48 50 48 46 43 35 40 40 37 42 44 44 44 45 44 47 45 44 41 39 37 39 37 39 40 39 35 32 36 45 48 48 47 42 37 44
47 48 49 50 50 49 47 47 48 48 47 47 44 40 31 40 38 38 39 41 43 43 43 41 46 43 44 39 35 36 30 34 35 39 36 35 32 35 38 42 41 40 40 34 34
48 48 50 49 49 49 46 45 45 44 44 43 43 33 33 32 36 39 38 41 40 39 38 41 43 41 41 37 28 29 30 31 31 37 36 35 33 34 37 37 36 35 34 34 34
48 49 50 49 49 47 43 39 35 33 37 35 36 33 33 35 35 39 39 37 38 36 33 39 37 34 37 37 32 34 32 32 34 36 36 34 34 34 34 33 34 35 39 34 34
48 49 50 49 49 44 41 36 38 36 29 34 36 36 37 34 30 35 39 33 33 32 34 35 33 36 38 37 34 33 32 32 33 35 35 35 35 34 34 34 33 31 33 33 34
48 49 49 48 47 42 39 38 43 41 29 31 35 35 36 34 29 31 36 34 32 31 31 29 31 37 39 36 34 33 31 32 30 32 34 32 32 34 35 35 35 33 32 32 33
47 48 49 48 41 40 38 42 43 40 19 31 33 34 36 34 31 39 38 34 33 31 31 30 32 37 36 35 36 33 34 33 33 30 27 32 25 29 33 34 34 35 34 33 32
48 49 49 47 40 37 41 43 41 34 7 35 35 39 38 30 33 35 40 35 30 31 30 28 30 35 34 36 36 35 38 36 36 31 26 26 26 28 26 30 32 34 34 33 32
48 49 47 44 43 42 42 42 37 17 12 30 36 33 32 34 33 37 36 37 37 33 32 32 36 37 37 39 38 40 37 38 37 34 27 27 28 27 25 25 29 32 34 33 31
49 50 47 43 38 43 43 34 19 19 30 30 33 33 32 30 30 34 31 29 28 22 27 33 34 39 40 35 39 38 34 28 27 27 23 27 27 28 28 24 26 26 31 31 32
50 49 47 43 44 44 41 26 19 24 29 35 35 35 31 34 34 32 29 25 31 32 29 28 27 36 38 37 36 33 30 21 16 22 23 27 25 26 28 28 27 26 30 33 36
47 42 42 44 44 44 34 24 29 30 33 33 35 31 32 35 33 32 30 30 31 33 31 29 30 38 39 39 37 36 28 32 23 20 17 23 25 24 25 28 29 31 34 36 38
41 40 41 45 44 40 29 30 29 32 34 35 29 31 29 34 32 33 32 34 34 34 37 30 30 36 38 39 38 34 36 28 31 13 16 19 20 22 24 27 32 33 34 36 40
40 37 42 45 42 33 24 25 31 36 36 34 31 31 29 29 35 32 32 36 37 37 35 32 31 33 36 36 34 35 34 33 29 25 18 16 17 22 22 28 32 34 38 39 41
37 29 43 43 30 31 25 32 37 36 38 36 35 34 30 28 29 30 32 34 35 35 33 33 32 30 32 36 36 34 33 32 21 26 24 16 19 24 23 27 35 37 40 41 40
34 34 40 38 25 25 31 33 36 36 34 35 33 34 30 28 27 30 31 35 34 31 31 33 30 28 28 32 35 34 33 32 28 24 18 17 20 25 28 31 36 38 40 40 40
33 28 32 35 34 30 31 30 31 37 35 35 34 33 31 27 30 29 30 36 35 30 39 34 29 24 21 23 32 32 33 34 32 26 22 20 23 22 27 30 33 38 40 39 40
32 30 33 24 29 32 33 32 31 31 34 36 33 34 32 28 28 28 30 31 32 36 32 28 26 26 27 29 29 29 29 33 31 29 23 24 22 22 26 30 32 36 39 39 40
30 27 30 29 32 32 32 30 30 32 34 32 34 34 34 30 30 28 28 29 28 29 29 30 25 25 24 27 28 27 29 32 33 31 28 26 25 26 27 29 31 34 39 39 39
33 34 33 27 28 27 28 28 30 30 37 37 38 35 33 33 32 33 34 33 30 30 28 28 27 23 17 26 26 21 26 29 29 28 28 25 26 26 27 27 30 31 37 39 39

GFSSW_sfc_dewp_084.txt.gz
Dewpoint
49 48 50 50 51 51 51 51 51 52 51 51 50 49 50 50 49 48 45 48 48 50 50 47 46 47 51 50 51 48 43 38 38 36 37 38 36 40 44 42 42 42 50 55 62
48 48 50 51 50 50 51 51 52 52 52 51 51 50 50 49 46 45 48 52 53 54 49 47 43 47 46 46 48 47 42 39 40 38 37 39 39 39 40 42 42 42 44 59 66
50 50 50 50 50 51 51 51 51 51 51 51 50 51 49 47 38 36 50 51 53 52 49 47 47 46 44 44 45 46 39 40 40 40 43 43 44 46 42 41 42 40 44 47 58
49 49 49 49 48 50 51 50 49 49 49 50 49 49 48 44 26 38 50 51 50 50 49 45 46 44 41 40 43 43 44 41 40 44 44 42 44 45 44 38 45 45 46 45 47
48 50 49 49 49 49 50 49 48 48 49 49 49 47 43 38 36 39 45 45 41 46 47 45 43 43 40 40 41 42 43 43 42 44 43 41 41 41 44 45 47 47 48 45 45
47 49 49 49 50 50 49 48 48 48 48 48 47 48 40 32 36 39 43 42 41 41 46 46 43 44 43 40 40 41 42 42 43 41 42 39 40 40 40 47 47 47 47 47 45
48 49 48 49 51 50 49 48 49 48 48 46 48 44 38 33 37 42 43 43 43 41 41 46 45 42 45 40 42 42 38 40 42 40 38 37 36 39 42 49 46 46 46 47 45
48 48 49 50 50 50 48 49 49 49 47 47 47 41 33 39 39 41 44 44 43 44 44 45 44 44 44 41 39 39 39 33 40 40 39 36 33 37 46 47 47 43 46 46 45
48 49 49 50 50 50 46 47 47 48 47 47 42 38 30 39 38 38 43 41 43 42 44 43 42 42 43 39 34 36 34 34 35 40 38 35 33 34 47 46 46 44 46 46 40
49 49 50 50 49 49 45 45 44 44 43 42 43 32 33 32 37 39 40 43 40 38 38 41 42 38 39 38 25 31 33 32 32 38 36 35 33 34 45 44 45 47 47 45 36
49 49 50 50 48 46 42 37 34 32 36 34 35 33 33 35 37 38 39 37 39 36 32 35 34 30 35 38 31 31 33 32 34 36 35 34 34 34 37 44 44 47 48 45 37
49 50 50 49 48 44 41 35 37 35 28 33 36 36 36 36 30 34 39 32 33 31 33 33 30 33 37 38 36 29 31 32 34 36 35 35 34 35 34 36 37 42 44 41 38
49 49 49 49 47 41 38 37 42 41 28 31 35 35 36 35 29 31 36 33 32 31 31 29 31 37 37 37 36 30 29 31 30 34 33 32 32 34 36 35 34 34 38 39 38
49 50 48 47 40 40 37 42 42 38 19 31 33 33 36 34 31 39 40 34 32 31 31 32 36 35 36 34 36 31 31 32 31 30 29 31 25 28 34 35 35 35 33 33 36
49 49 49 46 39 36 39 43 40 32 8 32 35 39 38 29 31 33 40 35 29 31 30 29 31 34 33 35 37 34 34 34 32 30 27 26 26 28 28 32 34 34 35 35 34
48 48 48 44 42 41 42 42 35 18 10 29 36 33 32 33 32 36 35 36 37 33 31 32 36 34 35 36 39 39 37 36 35 31 23 26 27 25 27 26 27 32 33 35 35
49 49 47 43 38 43 41 34 19 13 29 30 33 33 30 28 29 32 30 27 26 22 24 32 34 38 38 34 40 39 32 29 27 27 21 26 26 28 29 26 26 27 31 34 34
49 48 48 43 45 44 38 25 11 22 20 34 36 34 28 31 31 30 26 24 28 28 24 25 26 35 38 35 36 36 30 20 15 19 22 27 24 26 30 30 30 27 27 29 32
45 42 42 44 44 44 33 19 20 21 32 33 34 29 32 34 33 32 30 25 27 31 28 27 30 37 37 39 39 35 31 28 22 18 18 23 24 25 26 26 27 28 29 31 34
40 39 40 45 44 41 27 26 26 32 33 35 28 30 26 32 32 31 30 30 32 32 34 31 29 35 36 39 38 35 35 26 27 14 16 18 17 21 23 24 27 30 32 35 38
40 37 41 44 43 32 22 23 29 34 35 33 29 30 30 30 33 30 32 36 34 34 34 34 31 34 35 34 34 34 31 31 28 23 17 15 18 22 23 22 24 30 34 37 40
36 29 42 42 29 29 24 31 36 35 37 35 35 33 31 28 30 33 34 36 39 36 33 35 33 29 33 37 36 34 32 31 22 23 22 16 21 25 24 24 27 33 37 39 40
33 33 39 37 23 24 30 32 35 35 35 36 35 35 31 28 27 30 34 35 36 37 33 33 30 27 29 31 35 33 33 31 27 25 24 18 21 24 27 28 33 36 38 40 40
31 25 29 33 33 30 32 30 31 34 36 35 35 35 32 27 30 29 34 37 37 33 39 34 29 25 22 23 30 31 32 32 25 18 22 21 23 26 25 27 32 36 38 39 40
29 30 32 22 25 30 32 32 31 30 34 35 35 37 33 28 28 28 31 35 35 35 32 30 26 26 26 28 31 30 30 31 27 27 23 23 24 26 25 25 31 37 40 39 40
27 25 28 26 28 28 30 29 27 29 32 33 34 37 35 31 29 26 29 28 29 30 29 30 27 26 24 29 28 28 29 32 31 30 29 28 26 27 27 30 32 36 39 39 40
31 32 31 25 23 24 25 22 23 27 28 34 31 33 34 34 33 32 33 33 31 29 29 28 26 23 18 26 25 20 25 30 31 31 31 28 29 29 26 28 30 33 39 39 39

GFSSW_sfc_dewp_087.txt.gz
Dewpoint
48 50 49 53 51 51 52 52 52 52 52 51 52 51 50 49 49 47 44 47 48 51 52 48 46 48 50 48 52 48 43 39 38 38 38 38 38 41 43 42 42 45 53 55 64
48 52 50 51 50 50 49 52 51 50 50 50 51 51 49 48 45 43 46 49 53 54 49 47 45 47 47 45 48 47 41 39 40 39 39 38 38 42 41 41 41 42 46 50 61
48 49 51 50 50 50 50 52 49 48 48 49 50 49 47 46 37 34 50 52 52 51 49 48 48 46 44 46 44 45 39 40 40 40 40 40 43 43 41 40 41 40 45 48 51
49 49 50 49 51 50 51 50 48 48 49 49 49 49 49 43 23 36 49 49 50 49 49 46 46 43 42 41 44 42 43 41 41 43 43 42 44 43 42 40 43 45 46 46 46
49 49 49 49 51 51 50 49 48 49 47 48 48 49 43 37 34 38 46 46 40 42 45 43 41 42 39 40 43 43 42 42 41 44 43 43 42 41 43 45 47 47 48 47 46
50 49 50 50 51 51 50 48 49 49 48 47 47 47 39 29 35 43 43 41 40 41 40 46 41 41 41 39 40 42 42 42 42 41 43 40 40 41 41 43 46 46 46 48 47
49 49 49 50 50 50 49 49 49 49 48 47 47 43 38 31 38 44 43 42 43 41 38 46 45 44 44 41 39 42 38 41 42 42 39 38 38 39 40 47 45 46 46 47 47
50 50 50 50 50 50 47 49 49 48 46 47 47 41 32 39 40 43 43 42 42 44 43 45 44 43 43 44 38 40 38 36 38 41 40 38 36 37 40 45 42 45 45 46 46
49 50 50 50 50 49 46 46 47 46 47 47 42 39 30 41 38 40 43 39 42 41 44 44 43 42 42 39 35 37 33 33 36 41 38 36 35 36 41 45 41 44 43 45 45
50 50 50 50 50 49 45 46 45 44 42 42 42 32 33 32 37 38 41 42 39 38 40 40 41 38 38 34 27 29 31 33 33 39 37 35 33 34 42 44 41 45 45 45 45
49 50 50 50 49 46 42 37 34 31 36 33 35 33 33 36 39 39 40 38 39 35 30 36 33 32 35 36 34 31 33 32 33 37 36 35 35 35 41 44 43 45 47 45 45
49 50 50 50 48 44 40 35 36 35 28 33 35 35 36 37 30 36 39 33 33 31 32 32 29 34 35 37 37 31 32 32 34 36 37 35 34 36 36 43 44 44 45 44 44
49 50 50 49 47 40 37 37 42 40 28 30 34 34 35 36 29 31 36 33 32 31 31 27 32 32 36 34 34 32 32 32 31 35 34 34 34 35 36 36 39 41 45 43 42
49 49 48 47 40 39 36 42 42 36 18 27 33 33 36 35 29 39 40 34 31 30 31 32 36 33 35 35 35 30 32 32 34 32 29 32 26 30 35 35 35 37 37 42 42
48 48 49 46 39 36 39 42 39 31 8 30 33 39 37 29 31 33 39 35 29 30 30 30 34 34 33 34 35 35 31 32 31 30 29 29 29 28 29 33 35 35 35 35 37
49 47 49 44 41 41 43 40 35 18 7 29 35 33 32 33 32 35 35 35 37 32 31 30 36 34 34 35 36 36 35 34 34 30 26 26 28 26 27 28 33 35 36 36 36
48 49 46 43 37 43 39 33 19 12 26 28 33 34 31 28 28 31 30 25 24 18 18 33 32 38 36 34 35 34 32 28 26 25 21 26 28 27 29 29 28 30 33 35 37
48 50 47 42 45 44 36 25 9 20 18 32 35 35 29 31 30 29 25 23 26 27 20 24 23 33 37 34 33 34 30 24 18 20 22 28 26 26 29 31 29 30 28 30 36
47 41 42 43 45 44 33 18 18 19 28 33 34 30 31 34 33 30 27 24 25 28 27 27 29 35 36 37 36 36 28 27 23 20 22 24 24 24 27 27 28 28 30 30 30
40 39 40 44 45 39 26 24 25 31 33 35 29 30 30 33 31 31 29 29 31 29 32 32 28 34 37 38 39 36 34 28 26 17 18 19 20 20 23 24 25 27 30 31 35
39 36 41 45 43 32 20 21 28 33 35 34 31 31 32 32 33 30 32 32 31 32 31 35 32 32 35 33 34 35 34 30 28 25 19 17 17 22 24 23 22 24 30 33 37
35 26 41 43 28 28 23 30 35 34 37 35 36 34 33 32 31 33 32 35 36 33 31 34 33 29 31 36 38 36 32 29 24 25 19 20 20 23 23 25 26 27 34 37 40
31 32 39 39 23 25 30 32 33 33 34 36 35 36 35 30 30 33 35 37 38 34 33 34 31 28 29 31 36 35 33 29 27 27 25 22 21 24 26 27 31 34 37 39 41
28 22 27 32 31 27 28 28 31 34 34 36 36 38 33 29 30 32 33 38 39 38 39 36 30 26 21 22 30 31 32 30 27 24 25 24 24 26 27 27 27 35 38 39 40
28 29 30 20 23 26 29 31 23 25 28 32 34 33 31 30 28 28 34 35 38 38 35 33 30 27 28 28 31 31 31 31 25 26 24 23 24 25 27 27 26 32 39 39 40
26 24 27 25 26 25 26 25 22 22 25 24 30 29 32 30 33 33 32 34 34 35 33 31 28 26 26 29 29 28 30 31 31 30 29 28 28 27 27 28 30 34 39 39 40
30 31 28 23 21 20 22 21 23 25 26 27 27 28 31 35 36 38 34 34 32 32 32 29 28 25 20 26 25 19 25 29 31 31 30 28 28 28 28 28 29 32 39 39 40

GFSSW_sfc_dewp_090.txt.gz
Dewpoint
49 49 52 51 51 50 50 51 52 51 50 50 51 51 51 49 49 44 39 41 46 51 50 48 46 48 49 48 51 50 44 38 34 34 33 37 38 40 41 39 41 50 49 58 62
50 50 51 51 49 51 50 50 51 50 48 48 49 50 49 49 41 37 40 50 51 52 46 46 46 47 45 43 48 44 41 37 36 36 36 37 39 39 39 39 40 44 48 61 63
50 49 50 50 49 52 50 51 50 48 48 47 50 49 48 46 35 31 49 51 52 50 47 46 48 47 42 43 42 42 34 37 38 40 39 38 38 39 38 37 38 39 46 55 54
49 50 49 50 50 52 51 50 48 49 48 48 49 49 48 41 25 36 48 49 49 47 49 44 43 43 40 38 39 38 37 37 40 42 41 38 37 38 38 36 39 39 46 50 51
50 50 50 50 50 51 51 49 49 49 48 48 47 49 42 34 30 36 47 45 39 44 46 44 41 41 38 37 39 37 35 39 39 41 42 40 40 38 39 41 42 44 46 46 47
50 50 50 50 50 50 50 49 49 49 49 47 46 44 36 27 35 42 40 38 38 38 39 47 41 41 39 37 37 34 35 38 39 40 42 40 38 40 39 44 43 44 45 46 45
50 50 50 50 50 50 49 49 49 48 47 47 47 41 35 30 37 42 41 40 40 39 36 43 45 43 41 39 39 36 34 39 40 37 39 42 38 39 39 43 42 42 43 45 46
49 50 50 50 50 49 48 48 48 46 46 47 46 40 32 36 39 41 40 37 39 40 41 44 46 43 42 41 38 35 34 33 36 39 37 38 33 37 40 40 41 41 41 43 44
49 50 50 51 50 49 47 46 47 47 47 46 41 38 31 43 36 38 40 37 38 40 42 43 44 41 41 36 36 34 28 27 32 39 38 38 31 35 39 40 39 39 40 42 42
49 50 50 50 50 48 45 46 44 43 41 41 40 35 32 30 35 37 39 40 38 37 39 40 41 38 38 34 30 28 26 25 29 37 38 36 32 35 37 39 38 37 37 40 41
49 49 50 50 49 45 42 40 36 33 36 30 31 31 31 34 37 37 39 38 37 34 31 36 36 32 35 36 35 24 25 24 27 36 36 33 32 34 35 38 36 35 39 40 40
48 49 49 49 48 43 41 35 35 38 29 33 34 34 34 36 29 34 38 33 31 30 33 33 31 32 31 34 37 34 24 28 26 37 36 32 32 34 35 36 36 35 34 37 42
49 49 49 49 47 41 39 38 43 42 30 30 32 31 32 34 28 29 36 32 29 29 32 31 29 31 33 37 34 32 24 26 29 35 35 33 32 32 33 36 36 38 38 37 42
49 49 48 47 42 41 38 42 43 38 32 29 32 33 34 34 27 36 38 32 29 29 34 31 36 32 35 33 35 31 26 30 30 29 27 34 21 28 31 34 35 36 39 40 43
49 48 48 47 42 39 40 43 41 36 22 33 33 38 35 30 31 33 39 34 27 24 34 29 35 34 35 33 36 35 33 30 31 29 29 31 28 23 31 31 34 35 36 38 40
49 48 48 44 44 42 44 43 39 31 21 31 35 33 31 31 30 33 33 34 35 32 31 31 37 36 33 37 37 37 33 33 32 32 28 23 26 19 24 27 31 33 35 37 37
48 48 49 43 40 43 42 39 31 27 29 31 34 35 33 30 28 29 28 29 27 26 27 29 32 36 35 35 36 34 33 29 27 27 20 23 27 22 26 29 28 29 32 36 37
49 50 46 43 44 43 40 35 24 25 32 30 34 35 30 33 30 28 27 25 27 27 27 25 24 33 35 33 34 34 34 26 16 16 15 27 24 20 26 27 29 30 30 32 36
47 45 46 45 45 44 37 31 29 33 32 35 35 32 32 34 33 30 30 24 21 26 28 28 29 35 34 35 36 35 33 28 26 24 20 21 24 26 26 28 29 30 30 31 32
43 42 43 45 45 39 35 31 33 31 34 35 32 31 31 33 31 31 30 26 26 23 31 34 29 31 37 37 36 34 37 30 33 23 16 21 20 11 23 24 24 24 28 30 31
43 39 44 45 44 36 34 34 32 32 34 35 32 32 34 33 32 31 32 31 28 25 28 33 33 33 36 33 32 35 35 30 29 28 18 17 16 23 22 24 25 25 27 29 33
41 38 44 44 37 34 31 27 34 32 35 35 36 35 35 34 31 33 32 35 30 30 28 30 34 29 33 35 34 36 32 29 30 27 25 25 18 22 24 27 28 29 33 35 37
33 37 41 42 33 29 27 27 32 26 30 29 35 37 36 34 30 33 34 38 34 32 32 34 33 29 31 34 36 34 34 30 29 31 28 22 19 24 25 27 28 31 34 37 39
30 36 29 34 31 27 27 26 22 24 29 24 33 30 29 35 31 32 33 39 37 35 38 38 31 28 24 24 31 33 33 31 34 32 26 26 22 24 25 27 27 28 35 38 40
30 33 30 25 25 25 28 25 21 21 24 27 26 25 31 29 33 34 34 37 38 38 38 35 32 28 29 29 30 31 32 31 33 31 31 24 25 24 25 26 27 30 35 38 40
30 32 30 26 26 23 23 21 21 23 23 23 24 26 32 30 32 30 33 34 34 38 36 36 31 28 28 29 30 29 31 32 31 30 28 27 26 27 28 28 28 29 35 37 39
35 35 31 24 22 22 23 22 22 24 23 25 25 29 30 33 31 32 34 37 36 36 33 31 31 28 26 26 25 22 24 30 31 31 30 29 28 29 28 28 29 31 34 38 38

GFSSW_sfc_dewp_093.txt.gz
Dewpoint
49 50 50 52 51 50 51 50 51 52 50 48 49 50 51 51 50 43 38 41 45 50 51 44 45 44 47 46 47 49 45 38 33 30 29 33 31 33 35 37 38 47 49 56 59
49 50 50 51 50 50 52 51 51 49 48 49 48 50 50 49 43 38 44 49 52 52 46 43 40 43 45 42 46 44 42 38 35 31 29 33 35 36 37 37 40 44 56 58 61
49 50 50 50 50 51 53 51 50 49 50 49 49 49 48 47 37 32 49 50 51 52 44 44 45 45 43 41 41 40 37 39 35 34 42 37 37 38 37 35 36 39 52 60 64
51 50 50 50 50 51 52 51 49 50 49 49 49 49 48 42 28 34 45 48 49 47 45 43 42 41 41 39 36 37 36 33 37 46 42 39 41 36 38 37 37 39 47 55 59
51 51 50 50 51 50 51 49 50 50 49 48 47 49 45 35 30 36 44 44 39 41 45 43 40 40 38 38 35 34 33 32 35 42 44 42 39 37 36 38 38 39 45 49 53
51 51 51 50 50 50 50 49 50 49 47 47 47 48 38 30 34 39 39 37 35 37 42 45 41 40 39 39 37 32 34 33 34 42 41 39 37 35 37 37 39 40 43 43 48
51 50 50 51 50 50 50 49 48 47 47 47 46 40 35 29 34 38 39 37 36 37 37 41 46 43 40 38 38 36 33 33 35 34 39 38 35 35 37 39 40 39 40 43 44
50 50 50 51 51 50 49 47 47 46 47 48 47 39 31 36 37 37 38 36 37 37 37 41 47 45 40 40 36 34 35 29 32 34 33 37 31 32 36 36 40 38 38 43 44
49 50 50 50 51 50 49 46 47 47 47 46 42 37 29 42 35 35 37 34 36 37 40 39 43 40 40 39 36 35 35 26 26 36 31 36 31 28 34 37 38 37 37 38 41
49 50 50 50 50 48 46 45 45 45 43 38 38 35 31 29 33 34 37 37 34 35 37 38 39 37 38 36 30 33 31 24 22 33 33 32 31 29 34 35 35 35 35 37 39
48 50 50 50 49 46 43 40 36 35 35 30 29 28 29 31 35 35 36 36 34 32 30 36 34 33 35 35 31 34 27 21 20 30 31 32 30 29 34 35 35 33 33 34 37
49 49 50 50 49 44 40 34 35 40 29 31 32 33 32 34 28 31 36 31 29 27 33 34 31 31 33 34 37 36 31 24 20 31 32 31 30 30 32 34 34 33 32 33 36
48 49 49 49 47 43 38 36 42 41 31 29 31 30 30 33 27 28 33 29 25 25 28 30 29 30 31 36 35 34 30 26 20 31 33 31 29 29 31 32 34 33 33 32 33
49 49 49 49 45 42 39 40 42 40 33 30 31 33 33 32 27 30 33 30 26 26 32 31 31 31 34 35 34 32 29 29 25 29 24 30 23 25 28 30 31 33 33 34 34
48 49 48 48 43 41 41 42 41 38 24 32 33 36 34 30 29 32 36 32 26 25 28 32 32 30 32 33 34 35 37 27 30 27 25 27 24 20 25 27 30 31 32 33 36
48 49 48 45 44 42 43 43 40 30 24 32 34 34 35 35 28 30 31 33 31 27 31 34 38 35 34 33 34 37 35 35 31 30 29 24 22 15 24 25 28 29 31 32 35
48 47 48 42 41 43 43 39 31 27 30 32 32 36 35 34 31 27 26 28 27 27 29 32 35 38 38 35 36 36 34 30 27 27 19 20 23 20 23 25 26 29 30 32 35
49 50 46 43 44 43 41 36 28 24 35 30 31 35 31 34 33 26 25 25 26 24 27 26 26 35 37 35 35 34 34 29 20 21 18 23 19 20 22 24 28 29 29 31 34
51 47 45 45 44 45 36 33 29 32 28 35 32 32 34 34 34 30 30 25 19 24 29 26 29 36 33 34 35 35 32 31 26 19 18 19 18 23 25 26 28 29 30 31 33
43 43 43 45 45 42 35 28 25 29 34 33 30 29 29 33 31 32 30 26 20 20 29 35 28 30 35 34 35 34 36 29 33 21 16 16 12 16 23 24 26 27 29 30 31
43 38 44 45 45 37 34 27 27 31 32 29 26 28 32 33 32 31 30 29 23 20 26 32 33 32 33 31 32 34 34 34 29 29 17 17 14 22 23 24 25 25 26 27 30
41 38 45 45 38 37 29 24 32 24 28 31 36 36 33 35 33 33 32 32 26 23 26 34 34 30 33 35 32 34 33 29 29 25 27 26 19 24 26 28 28 28 33 33 34
29 37 43 42 31 30 23 24 22 22 27 23 30 31 28 34 33 36 33 37 33 27 34 35 33 29 31 34 36 33 34 35 28 34 30 24 19 23 27 27 27 28 32 35 37
29 38 30 30 27 24 25 24 21 23 24 26 25 28 28 28 34 34 32 38 34 33 40 39 36 32 27 27 31 33 33 31 33 33 23 24 21 23 24 26 26 28 31 35 38
32 34 28 24 25 23 24 23 21 21 23 23 24 25 32 28 26 29 34 35 38 38 38 38 34 29 28 29 29 32 32 31 34 31 33 24 24 22 23 26 26 28 32 35 38
28 31 27 23 24 22 22 21 22 23 23 21 23 26 30 29 31 30 32 35 34 38 37 36 31 28 30 29 29 29 30 31 30 29 28 27 27 28 28 28 27 27 31 34 37
34 34 29 24 22 21 22 22 22 24 23 24 26 28 29 30 28 30 31 33 36 37 36 31 30 29 27 26 25 25 28 30 30 30 30 29 29 29 29 28 29 29 31 33 36

GFSSW_sfc_dewp_096.txt.gz
Dewpoint
49 50 51 50 51 51 51 54 52 52 50 49 49 50 51 51 51 45 41 42 45 50 54 45 43 42 45 46 47 49 45 40 39 34 31 32 31 34 34 36 41 49 55 63 65
49 51 51 51 51 51 51 53 52 51 49 50 50 49 50 50 45 41 45 47 48 50 44 42 43 40 42 43 46 45 42 40 40 37 32 37 32 34 36 37 43 53 56 63 65
50 52 51 51 50 50 51 52 51 50 51 50 50 50 49 48 41 37 47 48 49 48 45 42 45 43 40 44 43 42 39 41 41 39 45 44 39 34 35 37 41 50 56 60 65
51 52 52 51 50 52 51 51 50 49 50 50 49 49 49 44 30 36 43 45 48 44 44 40 44 41 41 40 40 39 38 38 41 46 47 43 47 42 38 36 40 50 57 62 63
50 52 52 51 51 51 51 50 49 50 50 49 49 49 46 39 32 37 43 41 39 37 43 42 41 39 38 36 39 37 35 35 37 43 45 45 43 42 44 42 38 49 54 57 62
50 51 51 51 51 51 51 49 49 49 48 48 47 48 43 32 33 37 37 36 35 35 38 44 42 44 35 37 38 39 36 34 35 40 44 43 43 44 43 43 39 43 46 51 54
50 50 51 51 51 51 50 48 49 47 47 48 47 43 37 32 32 37 37 36 35 35 38 41 44 44 42 36 40 40 36 35 37 41 44 44 40 43 45 40 38 39 42 44 50
49 50 50 51 51 51 50 49 48 48 48 49 48 42 35 35 38 35 36 34 36 37 37 41 45 41 41 41 37 38 35 34 36 38 41 42 38 40 41 41 40 39 39 42 45
48 49 50 51 51 50 49 48 47 48 48 47 42 40 33 41 34 34 35 33 34 35 40 37 41 38 39 38 35 37 32 32 30 34 33 39 35 35 35 34 39 39 38 41 43
49 49 50 50 51 49 47 45 46 46 44 38 36 34 34 30 32 33 35 35 33 34 36 37 38 36 35 35 27 29 31 28 26 28 34 30 30 31 30 33 35 37 36 37 42
49 49 50 50 50 48 44 43 39 37 37 32 30 29 28 31 34 33 33 33 33 32 31 36 33 30 32 34 36 33 29 27 26 28 29 32 32 31 30 32 33 35 36 36 37
48 49 49 50 50 48 43 36 38 39 30 32 30 31 31 33 27 30 34 30 29 29 34 31 27 28 33 34 37 35 35 27 28 30 30 32 32 31 30 34 34 34 34 33 35
47 48 49 49 49 46 39 38 42 40 33 29 31 30 32 32 28 27 32 29 27 26 28 29 28 30 31 33 35 33 32 31 32 30 34 30 31 31 29 33 34 35 34 33 34
47 48 48 49 46 43 40 40 43 42 31 30 31 33 34 32 28 29 31 31 27 26 29 29 28 32 32 35 36 30 32 31 29 31 32 35 28 35 34 31 33 33 33 33 33
48 48 48 47 44 41 41 42 43 39 23 32 33 35 37 33 30 30 34 33 27 26 29 30 32 30 34 36 35 32 36 35 36 31 28 30 27 30 32 27 29 31 33 34 34
48 48 48 46 45 42 44 44 41 30 21 31 33 33 36 36 34 31 31 33 31 27 29 32 37 38 33 36 35 37 35 35 36 34 28 30 24 18 22 25 28 30 31 33 33
47 47 47 43 41 44 44 41 31 25 30 30 29 35 34 34 33 27 26 27 27 24 28 35 35 37 37 35 37 36 34 28 27 26 25 28 24 20 22 25 27 28 31 32 32
49 48 46 43 45 45 43 37 24 24 29 28 29 34 32 34 33 27 26 25 28 25 29 26 24 34 37 36 34 34 34 28 17 19 18 24 29 21 23 26 28 29 30 31 33
51 48 46 46 46 45 38 30 25 28 29 33 31 31 33 34 34 32 28 27 23 24 30 27 28 35 37 37 36 34 31 35 30 23 22 20 18 19 26 27 28 28 29 30 33
47 45 44 46 46 43 36 26 27 31 29 29 27 26 30 33 30 31 30 27 20 21 31 32 27 31 34 34 36 34 35 30 32 23 23 18 16 18 24 24 27 28 29 30 31
46 41 44 46 46 39 32 27 28 27 28 34 29 30 30 33 33 29 31 28 22 19 27 31 31 32 32 30 30 32 30 34 32 29 21 17 17 24 24 26 25 26 27 30 31
44 40 45 46 39 38 31 24 30 22 27 28 34 33 28 31 34 33 32 31 26 23 26 35 35 27 29 32 32 32 30 32 30 26 29 28 20 26 27 27 28 31 32 33 34
36 39 45 43 32 33 25 24 22 22 25 24 28 27 28 32 33 33 33 36 35 26 37 36 33 28 30 34 35 32 32 34 33 32 29 28 20 27 27 27 27 29 34 35 36
35 37 35 38 29 27 27 26 21 26 23 23 23 27 30 28 32 32 33 36 37 37 40 39 35 31 28 28 31 29 31 33 33 30 25 31 22 23 25 26 29 29 33 37 38
36 38 33 30 27 25 25 24 21 21 23 24 25 27 31 28 29 30 33 37 36 39 37 37 33 34 29 29 31 31 32 32 30 31 28 26 25 25 26 26 26 29 32 36 38
33 32 28 23 24 23 24 22 21 23 22 21 24 26 31 28 30 29 30 34 34 35 35 37 33 30 28 29 30 30 32 31 31 30 28 28 28 28 28 28 29 30 32 34 38
36 35 32 26 23 22 24 23 22 24 24 24 26 27 29 29 28 28 31 31 33 35 36 33 35 29 29 27 27 26 29 31 31 31 31 29 30 31 30 30 30 31 31 33 36

GFSSW_sfc_dewp_099.txt.gz
Dewpoint
51 51 51 51 51 51 51 52 54 52 51 50 50 51 50 51 51 48 45 45 46 48 49 48 46 43 44 45 46 48 43 41 38 37 37 37 33 35 36 39 51 55 60 63 66
51 51 52 52 51 51 51 52 53 52 50 51 51 50 50 50 47 44 47 48 47 48 45 45 42 45 42 43 45 45 42 40 42 41 40 44 38 36 40 45 53 57 64 65 66
50 51 52 52 51 51 52 51 52 49 49 50 50 50 50 48 42 41 47 47 48 47 43 45 43 44 41 42 43 42 40 41 42 43 47 45 43 45 41 42 52 56 62 64 65
49 51 52 52 51 51 51 51 51 49 51 50 49 49 49 46 32 38 42 44 46 45 44 44 42 42 39 39 41 40 40 41 41 48 47 44 46 45 45 42 52 57 63 63 64
50 50 51 51 52 51 52 51 50 49 49 48 49 49 48 42 37 39 43 40 38 40 42 43 41 38 37 38 39 39 39 39 38 47 47 47 45 46 46 47 48 58 62 63 63
49 50 50 51 51 51 51 51 49 49 49 49 48 48 44 37 33 37 37 36 36 37 40 44 41 43 40 35 36 41 39 38 38 46 46 46 46 48 47 47 47 57 60 62 63
49 49 50 51 51 51 51 50 48 48 48 49 48 44 41 37 33 38 38 36 37 36 36 42 44 42 41 35 37 40 38 37 41 45 45 45 44 45 49 50 47 50 54 57 62
49 49 50 50 51 51 50 49 49 49 49 48 48 43 36 39 39 36 36 35 37 39 41 46 44 42 40 40 38 38 38 34 38 40 44 43 38 44 48 50 47 46 44 52 56
49 49 49 50 50 51 50 49 47 47 49 48 44 41 34 41 36 35 35 34 35 39 41 42 42 39 39 34 35 36 33 33 33 38 44 41 38 43 46 49 47 45 40 46 48
48 49 49 49 50 51 49 48 46 47 45 42 40 34 36 32 34 35 36 37 36 35 39 38 38 35 35 32 26 30 32 31 31 34 42 40 36 36 46 47 46 43 40 42 44
49 48 49 50 50 50 47 41 38 37 38 34 33 31 30 34 36 35 35 35 35 33 28 34 30 25 33 33 34 32 32 31 28 30 37 39 36 36 39 45 45 43 43 37 42
48 47 49 49 50 49 45 38 39 38 31 34 35 31 33 35 30 32 35 32 32 29 33 28 26 28 34 33 33 35 33 29 29 28 29 31 33 33 31 32 36 38 37 36 36
48 48 48 49 49 46 41 39 42 41 33 32 33 32 34 36 31 31 34 32 29 28 27 25 26 27 31 33 32 33 34 30 28 31 32 31 32 34 33 32 35 35 35 34 34
47 48 49 48 47 43 41 42 42 40 28 29 31 33 37 37 31 33 35 32 31 28 28 28 32 28 31 33 34 32 37 33 32 33 29 36 27 32 33 32 33 33 34 34 33
47 48 48 47 45 40 42 42 41 38 10 29 34 36 37 35 35 32 37 33 28 27 30 28 32 30 34 34 35 34 37 35 34 33 30 34 32 30 34 31 32 33 33 34 33
47 48 48 46 45 42 43 42 40 21 7 29 34 33 36 36 34 34 34 35 33 27 30 31 35 37 34 36 37 37 37 37 36 35 25 32 31 20 30 31 31 31 33 33 34
46 47 48 45 42 42 43 39 23 13 25 24 30 34 34 33 32 30 28 27 23 24 27 33 35 38 37 35 36 36 34 28 26 26 22 30 28 23 26 29 30 29 31 33 34
48 48 47 44 43 43 41 29 13 22 22 31 31 33 32 34 31 32 26 21 26 29 27 19 25 34 37 34 31 34 33 24 21 22 20 28 24 25 25 26 29 29 31 32 33
50 48 45 45 45 44 35 18 17 23 28 30 29 24 32 34 33 30 23 24 25 28 30 23 28 37 36 36 36 34 30 35 29 26 20 25 23 20 26 27 27 29 30 32 32
48 44 43 45 45 41 28 21 24 30 27 31 22 27 27 32 30 28 26 28 25 22 33 30 27 31 35 35 35 34 34 30 29 21 19 18 16 16 24 25 27 29 29 30 32
45 40 44 45 44 34 20 20 26 26 29 32 31 30 29 31 33 23 29 29 22 22 26 32 28 31 32 30 28 30 29 33 33 27 21 16 17 25 25 25 26 27 29 30 31
43 35 44 44 29 31 22 25 30 24 27 31 32 31 27 30 34 30 30 31 36 23 32 35 32 25 27 36 33 31 29 33 25 26 24 20 19 27 27 27 30 31 32 33 34
38 36 43 41 21 22 24 27 25 25 25 26 27 29 29 31 32 30 33 35 37 35 35 34 33 24 27 33 34 32 33 34 34 30 26 25 21 27 27 26 29 33 34 35 36
34 30 33 36 26 24 25 25 24 27 25 25 26 30 30 31 32 31 32 36 39 38 40 39 33 29 22 24 30 28 31 33 29 24 30 30 24 25 26 27 29 31 35 37 37
35 33 31 26 24 23 25 24 23 23 25 26 26 30 30 26 29 30 33 36 35 38 36 37 32 32 32 31 32 31 31 33 30 30 29 30 25 27 26 26 27 30 36 37 38
28 27 26 22 22 22 24 21 23 24 24 23 25 27 30 27 29 29 29 33 33 35 34 35 30 31 26 29 31 31 32 33 32 31 30 29 28 30 28 29 29 30 33 37 38
34 33 27 26 21 21 21 22 24 25 25 25 26 26 29 29 29 29 31 31 32 34 35 33 33 28 24 26 26 26 29 32 31 31 30 28 30 31 30 30 31 31 31 34 38

GFSSW_sfc_dewp_102.txt.gz
Dewpoint
51 51 51 53 51 50 51 51 52 53 52 50 51 52 51 51 51 47 45 46 47 50 47 46 45 44 46 44 47 47 41 36 39 39 39 39 36 34 38 41 52 56 59 62 64
50 51 51 52 52 51 51 52 51 52 50 49 51 50 50 50 47 45 48 51 52 49 44 43 39 41 43 42 45 43 38 37 40 42 41 45 39 36 48 52 55 61 63 64 65
49 50 51 52 52 51 51 51 51 50 50 51 50 50 50 49 43 40 47 47 48 48 44 43 42 41 40 41 41 41 36 38 43 43 45 46 45 45 47 49 55 59 62 63 65
49 49 51 52 51 51 51 52 51 48 49 49 49 49 49 47 31 38 43 44 45 45 45 42 42 41 38 37 39 37 40 38 44 47 48 46 47 46 45 44 51 61 62 63 63
50 49 50 51 51 51 51 51 50 49 49 50 49 49 47 42 40 41 42 41 37 40 40 42 41 40 36 38 37 39 38 39 41 48 47 48 47 46 44 48 49 58 62 62 62
49 50 50 50 51 51 51 51 49 48 48 49 49 48 44 36 35 37 37 36 36 37 38 42 41 41 38 38 37 39 40 39 39 46 47 46 47 48 47 50 49 54 60 61 61
49 49 50 50 50 51 51 50 49 48 48 48 49 45 41 37 35 38 38 36 37 37 36 41 44 41 39 38 39 37 38 38 38 44 44 46 45 45 49 50 48 47 51 59 61
50 49 50 50 50 50 51 50 49 48 49 49 47 43 37 39 38 37 36 36 37 40 41 45 43 42 39 40 39 38 37 33 39 43 45 45 37 45 50 49 48 47 47 51 60
49 49 50 49 49 51 51 50 48 46 47 48 44 40 35 40 36 35 35 35 36 39 41 42 41 39 38 34 34 36 32 33 35 42 43 40 39 45 49 50 47 48 47 46 55
49 49 49 49 50 51 50 49 46 46 44 43 42 35 34 33 35 35 35 37 36 36 38 36 36 34 35 32 26 29 31 32 33 38 42 38 37 43 48 48 48 48 48 47 50
48 49 48 49 50 50 47 40 36 36 38 33 33 32 33 36 36 35 35 36 36 34 28 33 25 23 31 33 34 33 33 31 31 36 39 38 36 44 47 47 46 48 47 47 45
48 49 48 49 49 49 45 38 38 36 27 34 33 34 33 35 32 33 35 31 32 28 32 25 23 30 29 35 34 34 31 32 33 33 37 37 36 39 46 45 46 46 47 46 43
48 48 48 49 49 46 40 39 42 40 31 32 34 33 36 36 33 32 34 32 29 28 28 24 26 28 28 34 32 33 31 31 32 35 36 35 35 38 40 43 45 47 47 44 38
48 48 48 48 46 44 39 42 42 39 22 29 32 35 37 37 33 35 35 31 30 27 28 26 31 31 29 33 34 29 35 33 32 33 31 36 28 34 38 35 36 41 45 41 37
47 48 47 48 44 39 42 42 41 35 1 24 34 39 37 35 35 33 36 33 28 27 28 21 30 31 32 30 34 34 38 34 33 32 30 34 28 29 33 32 31 32 35 35 34
47 48 48 46 45 41 43 42 37 17 0 26 35 34 36 35 32 35 33 34 33 29 30 31 35 36 36 36 36 38 37 36 36 33 24 31 29 24 30 30 31 32 33 34 34
47 48 48 46 41 42 43 37 18 9 21 20 29 35 34 32 31 32 28 26 24 21 25 31 33 38 37 35 35 36 34 27 26 26 20 33 32 29 28 31 31 31 32 34 34
48 49 47 44 43 44 39 24 9 21 22 29 31 33 32 31 30 31 25 21 30 29 26 26 25 35 36 33 29 33 32 27 21 19 24 31 27 25 26 27 33 33 32 33 34
49 46 45 45 45 43 31 14 17 21 28 27 27 19 29 32 29 28 20 23 27 30 28 24 29 36 36 36 35 33 30 35 26 24 22 27 25 22 26 27 28 30 30 31 33
46 44 43 45 45 39 25 19 25 28 28 32 23 29 24 30 25 27 24 28 25 29 36 30 26 32 34 35 34 34 35 26 26 20 17 20 17 18 23 26 28 29 29 30 32
45 40 43 45 42 29 19 19 26 25 30 30 29 29 27 29 31 21 26 29 31 21 31 32 26 28 31 28 29 31 30 31 31 24 18 15 16 24 25 25 26 27 30 30 32
43 35 43 43 28 27 21 24 29 24 27 33 31 30 27 31 31 29 28 30 36 31 32 34 28 24 25 34 33 30 28 32 20 23 21 16 20 25 27 29 30 31 33 34 32
38 36 42 37 22 21 23 24 24 25 24 26 25 29 29 31 30 27 31 33 38 35 34 33 30 23 22 31 32 31 32 33 31 26 23 15 20 27 28 27 31 33 35 35 36
34 27 32 33 26 24 25 22 23 26 25 25 27 30 29 31 32 29 28 35 38 39 39 39 33 25 16 21 28 27 31 33 26 20 25 23 27 24 25 27 29 33 36 37 37
36 29 29 24 24 25 25 23 23 22 24 26 28 29 29 28 28 29 31 33 34 37 35 37 30 32 31 31 31 29 29 32 25 31 30 30 29 27 26 27 27 31 36 37 38
32 27 25 23 23 22 25 21 23 24 23 23 25 27 29 28 28 29 30 33 32 34 33 34 29 29 26 28 31 30 31 32 32 30 33 33 30 31 30 30 30 32 36 37 38
34 33 25 25 21 21 21 23 24 25 24 26 26 25 28 29 29 29 30 32 32 33 34 33 30 28 23 26 26 23 31 31 31 31 30 28 29 31 30 30 31 31 31 34 38

GFSSW_sfc_dewp_105.txt.gz
Dewpoint
50 50 51 52 53 53 51 52 52 52 52 50 50 51 50 51 50 47 45 46 49 53 48 46 42 43 44 44 44 46 38 34 34 36 41 42 38 38 37 41 47 54 58 61 66
50 50 51 51 52 52 51 51 51 51 49 50 49 50 50 50 47 45 48 50 53 51 44 42 40 41 39 42 42 39 37 35 36 36 41 46 44 38 40 48 54 58 63 65 65
50 51 51 51 52 52 52 52 52 51 48 49 50 50 49 49 43 41 48 48 48 46 44 42 42 39 37 41 39 38 35 38 37 40 46 46 47 46 44 42 53 56 62 64 64
49 50 50 51 51 52 52 52 52 50 48 50 49 50 49 46 30 39 44 43 43 44 44 41 42 39 36 36 39 36 36 37 39 44 43 45 50 47 46 45 48 51 62 63 64
49 49 50 50 51 51 51 52 52 49 49 49 50 48 46 41 40 40 40 41 37 40 40 40 40 39 35 35 36 38 34 36 39 41 46 46 48 47 44 48 52 54 62 62 63
50 50 51 51 51 50 52 51 50 49 48 49 50 48 43 36 37 38 37 36 35 36 37 41 40 41 38 36 36 39 37 35 37 42 43 43 45 49 48 49 49 55 58 61 62
50 50 50 51 49 51 51 52 50 49 48 48 49 46 41 37 36 37 38 36 36 37 36 40 43 41 40 36 39 38 37 38 37 40 42 43 40 47 50 48 48 49 50 55 61
51 49 50 50 50 50 50 51 49 48 47 49 47 43 36 40 37 36 36 35 37 39 41 44 42 41 39 39 36 37 37 32 35 39 42 40 35 44 50 47 47 48 48 49 53
50 49 49 50 49 50 51 50 49 47 45 48 43 40 35 40 36 35 35 35 36 39 41 41 41 38 38 34 30 36 28 33 33 40 43 39 36 42 50 49 47 47 47 47 48
49 49 49 49 49 50 50 48 47 46 44 44 42 35 33 33 35 34 35 36 35 36 37 35 34 33 34 32 23 29 30 31 32 39 40 38 37 41 45 49 47 47 46 46 46
49 48 47 48 49 50 47 39 35 35 37 33 33 32 33 35 36 34 34 35 35 33 27 32 24 21 26 34 33 33 32 30 33 39 39 37 36 39 42 42 47 47 45 46 46
50 47 47 48 49 49 44 38 37 35 27 34 35 35 34 36 32 33 35 30 31 27 31 24 21 29 29 34 33 33 32 30 34 36 38 38 36 39 42 42 47 47 46 46 46
49 48 47 48 48 46 40 39 41 39 29 31 33 33 36 37 34 33 34 31 29 27 27 23 24 28 27 34 32 32 31 32 31 38 38 37 37 39 43 44 46 47 47 47 46
49 48 48 49 45 44 39 41 41 36 19 27 32 35 38 37 32 36 35 31 29 27 27 25 30 31 28 34 32 29 33 33 33 34 31 37 29 36 39 41 43 45 46 46 46
49 48 48 49 44 41 41 42 40 30 -2 21 34 39 38 34 35 32 36 32 28 27 26 20 30 31 31 31 34 33 35 33 34 35 34 34 28 29 37 37 40 41 45 47 47
49 48 48 47 45 42 43 41 35 16 -5 24 34 35 35 33 32 35 33 33 33 29 30 29 34 34 35 35 37 37 36 34 36 34 23 31 28 25 33 32 34 37 43 46 47
49 48 48 47 41 43 42 35 17 4 19 20 28 34 34 32 29 32 27 25 24 19 20 30 33 36 37 34 35 34 31 26 24 24 21 32 29 25 30 31 31 33 34 42 41
49 49 48 44 43 42 37 22 -0 17 19 28 31 33 30 32 30 29 25 22 30 30 26 25 24 35 36 33 31 32 33 19 17 19 24 33 26 25 28 28 31 32 32 33 34
50 46 44 44 44 41 27 9 13 19 27 26 26 18 26 32 29 28 20 23 25 30 29 25 25 36 35 36 35 32 29 35 23 22 22 27 27 22 25 27 27 32 32 32 34
45 44 43 45 44 36 23 18 24 30 27 30 19 28 22 30 27 27 23 26 26 29 34 29 23 31 34 34 33 34 35 29 22 12 19 22 19 18 24 24 28 30 31 32 32
44 39 43 45 40 27 16 19 26 25 31 30 28 28 26 29 29 26 25 29 34 27 31 31 23 25 30 28 26 29 27 32 30 23 18 17 17 23 26 26 27 29 29 31 31
42 35 44 43 27 25 21 24 29 25 29 32 30 28 27 30 29 28 26 29 34 34 31 32 25 19 24 31 34 30 28 30 22 22 22 16 22 25 27 30 31 32 33 34 33
37 37 43 38 21 19 23 24 24 25 24 26 25 28 29 31 26 25 29 32 37 35 33 34 27 15 18 28 31 30 31 32 29 25 26 14 21 26 27 28 32 33 34 36 36
34 29 34 33 25 23 24 22 22 25 24 26 28 29 29 30 30 28 27 34 37 38 39 39 34 23 15 21 27 27 30 31 22 18 26 22 24 25 25 27 28 33 36 37 37
36 29 30 25 24 24 24 23 22 21 24 26 28 28 25 25 28 26 28 32 34 36 35 36 31 34 32 30 30 29 29 30 22 26 21 29 28 27 28 27 28 30 36 37 38
32 29 25 23 24 24 24 22 22 23 23 23 26 28 28 27 26 29 28 31 28 33 33 35 29 29 24 28 30 29 30 30 31 32 32 31 29 32 31 32 31 31 34 36 38
34 30 25 24 22 21 22 22 23 24 24 26 27 27 27 28 29 29 30 31 31 32 33 32 28 25 20 24 27 22 26 30 31 31 32 29 31 31 30 31 32 33 32 31 33

GFSSW_sfc_dewp_108.txt.gz
Dewpoint
52 50 51 51 52 53 53 52 51 52 53 49 50 50 51 51 50 47 44 46 48 52 51 45 42 42 44 41 44 43 36 32 34 33 33 41 44 43 42 38 44 56 56 61 68
52 50 51 51 52 53 53 52 53 52 50 49 50 49 50 50 47 45 48 50 51 52 46 41 39 40 37 40 41 39 34 32 34 35 34 37 43 46 46 40 45 58 62 66 67
51 50 50 50 51 51 52 52 52 53 50 47 50 50 50 49 42 40 49 46 48 46 44 42 42 39 36 39 39 37 33 32 34 38 40 38 43 46 47 45 43 54 61 65 66
52 50 50 50 51 51 52 52 52 51 49 49 50 49 50 46 27 39 45 44 44 43 44 41 41 37 34 33 38 35 36 35 35 40 39 41 44 44 47 47 48 48 62 64 63
52 50 50 51 50 50 50 52 51 50 48 49 50 48 46 40 40 41 42 41 36 40 40 38 39 39 33 35 36 37 35 37 36 37 38 42 44 45 44 47 49 52 59 61 62
52 51 50 50 50 50 51 51 52 49 48 48 49 47 42 35 37 38 37 36 35 36 36 40 39 40 38 36 36 37 37 38 37 37 38 40 41 43 45 48 48 55 59 59 62
52 51 50 50 50 49 51 50 51 49 49 48 48 45 41 37 37 36 38 36 36 37 37 38 42 40 39 35 39 38 34 36 37 34 36 42 39 38 43 47 49 52 54 58 61
53 51 50 50 49 49 50 51 50 49 47 47 48 42 35 40 38 37 37 35 36 38 40 43 42 40 38 39 36 35 34 31 36 33 35 39 33 38 45 45 47 48 49 52 56
53 51 49 50 49 49 50 50 49 47 45 47 42 39 34 40 36 35 35 34 35 37 40 41 40 37 38 33 28 33 29 30 32 32 33 38 34 38 43 44 47 47 47 49 52
53 51 49 50 48 49 50 46 46 45 44 44 42 34 33 33 35 34 35 36 34 35 35 34 32 30 31 31 12 24 29 31 30 32 32 37 36 41 42 42 43 48 46 49 49
54 51 49 48 48 49 46 39 35 35 37 33 33 32 32 34 36 34 34 35 34 32 28 30 24 19 24 28 33 31 29 29 31 37 35 37 35 36 42 40 42 46 46 47 50
54 50 49 48 49 50 43 36 35 33 27 33 36 34 35 38 32 33 35 31 30 27 29 24 21 25 30 29 33 32 29 31 33 36 36 37 36 40 40 41 42 45 46 46 48
54 50 48 48 49 46 39 39 41 38 29 31 33 33 35 38 34 33 34 31 29 27 26 23 24 28 29 29 31 31 30 32 32 37 39 38 36 39 41 43 44 45 46 46 47
53 50 48 49 45 44 39 41 41 33 18 25 32 35 37 37 31 36 35 31 29 27 26 25 28 30 30 30 33 26 34 36 34 33 31 36 28 37 40 41 43 44 45 46 46
53 49 49 49 44 41 41 41 39 29 4 19 33 39 38 33 34 33 35 31 28 27 27 19 29 29 31 33 35 33 36 34 35 32 35 33 27 34 39 38 39 41 44 46 46
52 49 49 47 44 42 43 38 33 16 -4 25 34 35 32 33 32 34 32 33 32 30 29 27 33 32 33 37 36 36 36 34 34 31 24 32 26 28 35 36 38 39 44 45 45
51 49 48 46 41 43 41 33 17 6 19 21 28 33 32 30 29 31 29 25 27 21 23 30 31 35 37 34 35 33 27 23 19 19 22 30 27 24 35 35 37 36 41 45 44
51 49 48 43 43 41 33 23 8 14 18 26 31 32 25 31 27 28 26 23 30 30 23 25 24 35 36 34 31 32 27 20 17 20 24 31 25 25 28 32 36 37 37 45 43
50 47 44 43 43 38 25 12 11 18 26 26 25 17 27 31 28 25 19 23 25 31 29 25 26 35 34 35 35 33 29 33 24 21 19 25 24 22 26 26 28 31 36 36 37
46 44 43 45 41 35 23 18 23 28 27 28 18 27 24 28 26 25 22 28 31 28 33 29 16 29 33 35 36 35 36 25 24 16 19 22 19 20 25 26 27 30 32 33 33
44 38 44 45 37 30 17 18 25 25 31 29 27 26 26 28 27 19 23 28 34 33 30 29 22 23 28 29 29 31 30 30 28 24 20 18 19 24 26 27 28 31 31 31 31
42 34 44 42 31 25 21 24 28 25 31 30 29 27 26 30 26 18 26 28 33 35 29 30 25 21 27 30 35 30 28 31 21 22 21 19 22 25 27 31 32 33 35 34 35
37 38 43 40 23 21 22 24 24 25 24 27 25 27 29 29 23 25 25 31 36 35 34 34 25 10 15 22 29 29 31 32 27 25 26 19 22 27 27 29 33 34 35 36 37
35 32 37 38 27 23 23 22 22 25 24 28 28 29 29 29 29 27 26 33 37 36 39 37 32 22 18 24 26 25 29 31 21 20 25 23 24 26 26 27 28 34 36 37 37
33 31 34 30 25 24 22 22 21 21 23 27 28 28 26 25 27 25 28 31 33 34 34 35 29 31 31 30 30 29 29 30 22 25 19 26 26 27 29 29 30 32 36 37 38
32 31 25 23 25 23 24 22 21 22 23 22 26 28 27 25 24 25 26 30 26 33 34 34 27 28 24 27 30 29 30 29 30 30 30 29 28 31 32 31 31 31 31 33 37
33 28 26 24 22 21 21 22 22 24 24 25 27 28 27 28 29 29 29 30 30 31 32 32 26 23 19 23 27 21 24 30 31 30 31 27 30 30 30 32 33 34 33 32 34

GFSSW_sfc_dewp_111.txt.gz
Dewpoint
54 52 51 51 52 53 54 53 52 52 52 49 50 50 50 51 50 47 42 44 48 52 49 45 42 41 43 41 44 43 35 30 30 34 34 34 32 40 44 42 41 43 55 58 65
53 52 51 51 52 52 52 52 53 52 53 48 49 50 49 50 47 45 46 49 50 50 47 43 39 39 37 41 42 39 34 30 30 31 33 35 35 38 39 43 45 46 54 62 66
54 53 51 50 51 52 51 53 52 53 51 50 49 49 50 48 39 37 49 45 47 48 45 42 41 38 36 38 39 38 32 30 31 32 37 38 38 38 43 43 45 45 48 58 66
54 53 51 51 51 50 51 51 52 52 49 48 50 48 49 46 24 38 44 43 45 46 44 42 41 37 32 33 37 35 36 35 32 34 36 37 40 40 41 42 44 46 48 48 63
55 53 51 51 51 50 50 51 52 50 48 48 49 48 46 41 38 42 43 40 36 40 39 38 40 39 34 32 35 34 34 35 36 38 36 37 37 38 42 46 42 44 48 49 51
55 53 52 50 50 50 49 51 51 50 48 47 48 46 42 33 37 38 37 37 35 36 36 41 38 40 37 36 35 35 36 35 36 36 37 35 35 40 43 45 46 45 46 49 52
56 54 52 51 50 50 49 51 51 49 48 47 48 44 41 36 39 37 37 37 36 36 37 38 42 40 37 33 37 36 34 35 34 36 35 37 34 34 41 43 45 45 44 46 52
57 55 54 51 50 49 48 50 50 48 47 47 48 42 33 38 40 39 37 36 37 38 40 41 43 40 38 38 34 33 32 27 30 34 35 36 30 37 41 43 44 43 42 47 52
57 56 54 50 49 49 49 50 50 48 46 48 42 40 32 39 36 36 36 34 36 37 40 40 40 37 37 30 26 29 23 24 25 35 33 35 30 39 42 45 43 41 40 48 52
57 56 53 49 49 48 50 46 46 46 45 43 41 36 33 33 35 34 36 36 34 36 35 34 32 31 30 28 18 20 25 27 25 32 32 33 30 40 43 44 42 40 40 46 50
57 55 53 50 47 48 45 42 37 36 39 32 33 32 32 35 36 35 34 35 35 33 29 31 28 24 23 26 28 29 28 27 27 29 32 33 29 35 42 41 39 40 42 44 48
57 54 52 49 47 50 43 37 35 33 29 35 36 35 35 38 33 34 35 32 31 28 30 26 24 26 27 29 29 29 29 28 29 31 32 31 31 36 40 38 39 41 43 43 47
55 53 52 49 49 47 41 39 42 38 29 31 32 33 35 37 34 33 34 32 29 28 27 25 24 28 28 30 29 29 29 29 30 34 35 34 35 39 39 40 42 43 45 45 47
54 53 50 50 46 43 39 41 41 34 20 26 32 35 37 37 31 36 36 32 30 27 27 26 27 28 30 31 30 28 34 35 32 34 30 37 28 36 38 38 41 43 44 46 47
53 51 49 49 44 41 41 42 38 30 6 21 34 40 38 33 33 33 36 31 28 27 27 21 25 28 27 33 35 33 34 35 35 35 33 33 29 35 38 36 39 43 45 46 46
53 51 50 47 44 42 42 38 32 19 3 26 34 34 32 33 31 34 32 33 32 30 30 28 30 32 32 36 35 36 35 35 34 32 27 32 27 30 35 36 38 41 45 47 45
53 51 49 46 41 43 40 31 21 11 20 22 29 31 30 28 28 30 30 25 27 24 20 30 32 35 36 33 34 34 27 21 23 23 24 32 27 26 33 37 38 40 44 45 45
52 50 49 44 44 40 32 26 11 13 18 27 32 29 23 29 27 27 26 23 29 30 20 20 21 34 36 35 32 32 27 23 16 19 25 29 26 23 26 28 36 39 44 46 44
51 47 44 44 43 36 28 17 14 18 25 27 25 15 27 30 27 24 21 24 26 30 28 25 21 34 34 36 34 33 27 34 24 22 23 25 22 23 26 27 28 32 43 44 43
46 44 43 45 42 34 27 22 23 25 27 27 18 27 22 26 21 18 22 28 32 28 32 30 20 26 32 35 35 33 35 26 26 18 20 20 21 23 25 27 29 31 36 43 41
44 39 44 45 39 32 21 19 26 27 32 29 27 26 24 25 23 15 23 28 33 34 30 31 22 24 28 31 31 31 31 30 27 23 21 18 25 25 26 29 31 33 32 39 41
40 34 44 43 34 28 21 23 27 26 32 30 29 27 24 28 24 18 25 29 32 36 32 32 25 23 27 30 35 30 30 30 23 24 21 23 25 26 28 32 33 34 35 36 40
38 38 44 41 26 21 23 24 24 24 26 27 27 28 28 26 22 26 26 30 35 36 34 36 26 16 19 23 28 29 31 32 26 27 25 21 23 27 27 28 33 36 36 37 39
37 32 38 39 29 22 22 22 22 25 24 27 28 29 28 28 29 27 24 32 36 34 37 36 32 24 24 26 29 27 29 30 23 25 25 24 24 27 28 29 31 35 37 37 38
35 34 35 29 30 24 22 22 21 21 24 29 28 28 25 25 27 25 28 28 31 34 35 33 28 32 30 31 30 30 30 31 27 28 23 27 26 28 29 30 31 31 33 35 37
32 31 26 24 27 23 24 21 21 21 23 24 27 28 27 25 23 25 26 26 26 32 32 33 25 27 24 30 29 27 29 30 31 30 30 29 29 30 31 32 33 33 32 33 36
34 28 26 25 22 21 21 22 22 23 25 25 27 28 27 28 28 29 29 30 30 31 30 30 26 23 20 23 26 21 24 30 30 31 30 28 30 31 32 33 34 34 35 35 36

GFSSW_sfc_dewp_114.txt.gz
Dewpoint
55 54 53 51 51 52 53 53 52 53 53 51 49 50 50 50 49 44 38 37 44 51 48 46 42 40 40 38 40 39 34 28 26 24 25 29 28 30 32 36 40 41 44 44 47
56 55 53 52 51 51 52 52 52 53 53 50 46 49 51 50 44 40 40 48 50 50 47 44 39 38 35 36 38 35 30 27 25 24 24 27 33 33 34 30 35 42 43 47 52
57 56 54 52 52 51 52 51 53 52 51 49 48 49 50 48 39 37 49 48 49 49 44 43 40 37 34 35 35 33 30 26 25 27 28 29 31 33 34 35 35 37 42 48 50
58 57 54 52 51 50 50 51 51 51 49 48 48 49 48 44 20 38 45 43 46 43 41 39 37 34 32 31 31 30 29 28 30 30 29 30 31 31 34 36 37 38 42 48 47
59 57 55 54 51 51 50 51 51 52 49 48 48 48 45 37 31 40 44 40 35 39 36 36 34 33 30 27 29 29 27 27 28 32 33 32 30 32 33 36 39 40 43 46 46
59 58 55 55 53 50 50 49 51 52 49 48 47 47 40 29 37 38 37 36 34 34 34 37 32 34 32 30 30 27 30 31 31 32 33 33 32 31 33 37 41 43 43 44 45
58 57 55 55 51 50 49 49 51 50 49 47 48 43 39 31 37 37 37 36 35 35 34 36 36 35 31 28 29 30 29 29 29 31 33 34 32 31 29 33 39 43 43 42 44
55 58 55 55 53 49 49 48 50 49 48 47 49 42 30 35 39 39 37 33 36 36 37 38 40 36 34 32 30 28 27 25 19 26 30 34 30 29 30 29 34 40 42 41 42
55 56 56 55 53 49 49 49 49 48 47 48 43 38 29 38 34 35 35 32 33 35 38 38 38 34 33 31 27 27 23 18 18 21 27 32 30 31 35 32 32 38 41 42 41
55 56 55 54 52 49 50 47 47 46 46 44 41 37 32 31 34 34 35 35 32 33 34 34 33 31 31 29 20 20 23 22 20 23 31 29 29 32 39 41 41 41 42 41 41
54 56 55 53 51 50 48 45 38 37 40 30 30 31 31 34 35 33 33 33 34 32 30 32 30 26 22 24 27 26 26 25 22 24 26 33 29 30 40 42 41 43 42 42 42
55 55 54 53 50 51 44 38 35 35 30 36 35 35 34 36 32 33 34 30 29 27 30 30 26 22 25 25 25 27 25 25 23 25 27 29 30 28 35 39 41 42 41 41 41
56 54 53 51 51 48 43 39 42 37 30 31 32 31 34 36 33 32 33 30 28 26 27 27 21 24 25 27 28 27 28 26 26 31 30 30 29 30 38 39 39 40 41 43 42
54 54 52 50 46 44 41 42 42 36 32 28 31 34 36 36 30 34 34 31 29 26 25 26 25 25 25 27 30 28 32 34 34 31 29 30 25 33 35 38 39 41 43 44 43
52 53 51 50 44 41 42 42 38 34 19 26 33 39 37 31 32 31 35 31 27 25 26 25 23 24 27 27 34 33 35 34 35 32 33 32 31 33 38 37 38 40 42 43 45
52 53 50 46 44 43 42 38 34 30 16 29 33 33 32 31 31 32 31 32 31 29 29 29 29 30 30 31 35 36 35 35 34 33 29 31 28 33 36 35 37 38 41 43 47
51 52 49 46 42 42 39 34 31 24 20 27 30 31 31 30 27 29 28 28 29 27 29 29 33 34 36 33 34 35 33 27 26 27 26 34 25 27 29 36 38 39 41 46 47
52 52 48 45 44 40 36 33 20 16 24 29 31 30 31 30 29 26 27 28 29 29 29 26 25 32 37 35 32 32 32 27 20 23 27 30 26 28 28 29 31 41 43 46 47
51 47 45 44 41 39 33 30 22 25 24 30 29 30 28 29 26 25 27 28 27 28 27 26 27 33 36 35 35 33 31 35 27 23 23 28 27 28 29 31 31 41 43 45 47
47 45 43 44 41 38 32 26 22 24 28 28 29 26 25 29 28 27 27 29 32 32 29 30 26 25 31 36 34 35 36 31 31 21 22 24 28 28 28 30 32 40 42 45 46
45 40 44 45 43 35 32 28 27 29 31 28 26 26 24 27 25 26 26 28 34 34 31 31 25 29 30 32 33 32 31 30 27 25 21 21 27 27 30 33 33 38 44 45 45
42 35 45 44 35 32 31 21 27 26 32 29 29 27 25 27 24 28 27 28 33 36 30 32 28 28 29 29 34 31 31 30 29 24 25 24 27 27 30 34 35 35 42 45 45
38 38 44 42 30 30 24 25 24 25 28 27 28 28 28 27 24 25 31 31 34 36 33 34 29 26 25 27 30 29 30 31 27 30 26 25 27 29 31 33 35 36 38 42 43
39 33 38 40 31 24 24 24 23 25 25 26 27 29 29 26 29 25 32 30 35 33 37 36 30 30 25 27 31 31 30 30 31 30 25 26 26 28 30 31 32 34 37 38 40
38 35 35 30 32 26 24 23 22 22 25 29 28 29 32 26 26 26 30 29 30 34 35 33 31 30 30 30 30 31 30 29 32 28 30 26 27 29 30 32 32 32 35 37 38
33 34 32 29 32 30 24 22 21 22 24 25 26 29 30 28 27 26 27 30 31 31 32 32 30 29 28 26 27 27 29 29 29 28 28 28 28 31 32 33 33 33 34 34 35
35 32 28 29 29 28 22 21 21 24 25 25 28 30 28 28 29 30 30 30 31 31 30 30 29 27 24 24 26 25 28 30 30 30 30 28 30 32 32 33 34 34 34 35 35

GFSSW_sfc_dewp_117.txt.gz
Dewpoint
57 56 55 53 52 52 52 53 53 52 53 53 48 48 49 50 51 45 39 40 41 47 49 41 40 38 38 36 36 35 31 28 26 23 22 22 21 24 25 25 26 28 32 37 46
59 57 56 54 53 51 52 53 52 53 52 51 47 48 49 50 43 38 42 44 48 52 44 40 39 38 37 36 36 33 29 26 24 24 22 22 22 21 24 26 25 27 34 42 45
59 59 58 57 54 52 52 52 51 53 52 50 48 50 49 49 37 33 50 53 53 51 45 43 40 37 35 35 34 33 30 28 26 25 25 25 25 25 26 29 32 27 28 40 45
58 59 59 57 54 52 52 51 51 51 51 48 48 49 48 43 26 39 46 45 48 43 41 38 36 34 31 29 30 29 28 27 27 28 28 28 28 25 26 28 28 33 35 34 42
55 57 59 56 54 53 52 51 51 51 51 48 47 49 45 38 31 41 44 40 35 36 35 35 32 31 28 26 25 25 24 25 25 26 26 27 28 28 27 27 27 31 37 40 41
53 56 58 56 55 54 53 50 49 51 50 49 48 48 40 31 36 38 37 34 32 32 33 33 31 30 29 27 26 26 25 24 23 26 28 27 28 29 28 28 27 30 34 37 42
53 55 58 55 54 54 51 49 49 51 50 49 48 43 39 32 34 36 37 35 33 32 31 33 33 32 28 25 25 24 23 23 23 22 24 27 27 27 29 27 26 29 32 36 41
52 55 55 55 54 52 51 49 51 51 48 47 48 43 33 34 35 37 36 33 34 34 35 34 35 34 32 31 28 26 25 23 20 18 18 24 27 28 29 29 28 26 33 36 40
52 53 54 55 54 53 50 50 51 51 49 49 44 40 29 39 35 35 36 31 32 33 34 34 36 32 30 31 28 24 22 16 14 12 14 21 30 29 30 29 28 26 26 32 38
52 53 54 55 54 51 50 49 49 47 45 43 39 36 32 30 33 33 34 33 32 31 33 33 31 27 28 31 22 20 21 18 15 15 22 28 28 28 29 29 28 26 27 32 38
51 54 54 56 54 51 49 44 39 39 39 33 31 30 30 33 34 33 32 32 32 30 28 30 30 26 26 22 23 23 22 22 18 18 18 18 23 33 30 33 33 32 35 35 41
52 56 55 54 52 51 47 39 36 36 34 36 34 33 34 35 32 33 33 29 28 27 28 28 27 24 21 19 21 21 20 19 19 19 21 23 23 24 29 35 38 38 38 41 40
51 55 54 53 52 50 44 39 41 36 31 32 33 30 33 35 32 31 31 28 26 25 25 25 23 21 21 22 23 23 23 23 21 25 29 30 26 24 29 33 35 39 39 39 39
49 54 52 52 49 45 42 42 42 38 34 29 31 34 36 35 31 32 32 30 27 26 25 25 23 22 22 22 25 28 26 32 30 30 26 26 24 28 27 31 35 36 38 40 40
50 51 52 51 44 42 42 43 39 36 20 30 32 38 35 33 31 30 33 32 28 26 25 26 24 23 25 25 35 30 33 34 34 32 31 29 28 30 28 32 35 37 40 41 42
50 51 52 50 45 43 43 39 36 32 22 29 33 32 32 29 29 30 32 33 31 29 28 28 29 29 30 30 34 36 35 34 33 32 26 28 29 31 34 36 36 39 41 43 45
50 52 51 46 41 43 39 35 33 27 23 29 29 31 31 28 27 28 28 29 29 27 31 30 32 33 35 34 34 34 33 28 26 25 25 33 30 33 35 35 40 40 42 46 46
52 51 49 44 44 41 37 35 27 20 24 28 30 29 30 28 29 26 27 27 29 29 27 27 27 33 38 35 32 32 33 28 21 24 25 26 27 32 35 35 40 40 43 46 45
50 48 46 45 43 39 33 32 23 29 23 30 29 30 27 28 28 25 30 27 26 28 28 27 28 31 34 36 36 33 32 34 29 30 25 30 33 35 34 37 39 40 43 45 44
47 45 44 45 41 37 33 29 22 24 28 29 30 26 26 28 28 29 26 28 29 32 31 29 27 27 30 36 36 36 36 30 32 25 23 27 27 28 34 37 39 39 44 45 45
46 40 44 45 41 33 32 28 26 27 28 26 24 25 23 26 25 26 26 27 33 32 33 30 29 32 33 34 33 34 31 29 28 24 26 22 26 36 34 35 39 40 44 45 44
43 34 44 45 35 34 32 21 28 26 31 29 29 27 25 24 23 29 28 28 33 34 30 30 30 30 29 29 31 32 31 29 31 24 28 24 28 34 35 37 40 41 44 45 45
38 37 44 44 31 32 25 25 24 26 28 27 27 28 27 25 24 26 33 29 32 33 35 33 29 29 29 27 29 31 29 29 28 32 27 24 29 30 31 35 38 41 43 44 44
39 33 38 40 34 28 24 23 23 27 28 26 27 28 26 25 26 26 32 29 33 32 37 36 29 30 26 27 30 32 28 30 34 30 28 30 29 29 30 31 34 37 39 41 43
40 36 35 32 31 25 24 22 22 22 26 27 27 28 30 25 24 24 30 29 29 34 33 32 29 27 27 29 28 28 28 28 31 28 30 27 28 30 31 31 32 33 35 36 37
34 35 35 31 30 28 23 21 20 22 24 24 27 28 29 27 28 25 27 30 31 30 30 31 29 28 27 26 27 28 29 29 29 28 28 28 29 32 32 33 33 33 34 34 35
36 35 31 30 30 27 23 20 21 24 25 26 26 29 28 28 29 29 29 30 31 31 30 30 28 27 25 25 25 23 29 29 30 30 29 29 30 31 32 34 34 34 34 35 36